<?xml version="1.0" encoding="UTF-8" standalone="no" ?>
<gpx xmlns="http://www.topografix.com/GPX/1/1" xmlns:xsi="http://www.w3.org/2001/XMLSchema-instance" xsi:schemaLocation="http://www.topografix.com/GPX/1/1 http://www.topografix.com/GPX/1/1/gpx.xsd" version="1.1" creator="VisuGPX - https://www.visugpx.com">
  <metadata>
    <name>11000361-Etape 2 PN</name>
    <desc><![CDATA[
11000348-Etape 1 PN]]></desc>
  </metadata>
  <trk>
    <name><![CDATA[11000361-Etape 2 PN]]></name>
    <trkseg>
      <trkpt lat="48.70756" lon="2.04412">
        <ele>87</ele>
        <time>2020-02-12T10:17:26Z</time>
      </trkpt>
      <trkpt lat="48.70748" lon="2.04371">
        <ele>87</ele>
        <time>2020-02-12T10:17:31Z</time>
      </trkpt>
      <trkpt lat="48.70754" lon="2.04237">
        <ele>87</ele>
        <time>2020-02-12T10:17:47Z</time>
      </trkpt>
      <trkpt lat="48.70755" lon="2.03973">
        <ele>87</ele>
        <time>2020-02-12T10:18:18Z</time>
      </trkpt>
      <trkpt lat="48.70742" lon="2.03916">
        <ele>85</ele>
        <time>2020-02-12T10:18:25Z</time>
      </trkpt>
      <trkpt lat="48.70741" lon="2.03893">
        <ele>84</ele>
        <time>2020-02-12T10:18:28Z</time>
      </trkpt>
      <trkpt lat="48.70745" lon="2.03796">
        <ele>83</ele>
        <time>2020-02-12T10:18:39Z</time>
      </trkpt>
      <trkpt lat="48.70743" lon="2.03777">
        <ele>82</ele>
        <time>2020-02-12T10:18:41Z</time>
      </trkpt>
      <trkpt lat="48.70734" lon="2.0374">
        <ele>82</ele>
        <time>2020-02-12T10:18:46Z</time>
      </trkpt>
      <trkpt lat="48.70722" lon="2.03754">
        <ele>81</ele>
        <time>2020-02-12T10:18:49Z</time>
      </trkpt>
      <trkpt lat="48.70696" lon="2.03764">
        <ele>81</ele>
        <time>2020-02-12T10:18:53Z</time>
      </trkpt>
      <trkpt lat="48.7064" lon="2.0378">
        <ele>80</ele>
        <time>2020-02-12T10:19:03Z</time>
      </trkpt>
      <trkpt lat="48.70625" lon="2.03787">
        <ele>79</ele>
        <time>2020-02-12T10:19:06Z</time>
      </trkpt>
      <trkpt lat="48.70596" lon="2.03774">
        <ele>79</ele>
        <time>2020-02-12T10:19:12Z</time>
      </trkpt>
      <trkpt lat="48.70574" lon="2.03768">
        <ele>79</ele>
        <time>2020-02-12T10:19:16Z</time>
      </trkpt>
      <trkpt lat="48.7048" lon="2.03765">
        <ele>81</ele>
        <time>2020-02-12T10:19:32Z</time>
      </trkpt>
      <trkpt lat="48.7047" lon="2.03761">
        <ele>81</ele>
        <time>2020-02-12T10:19:34Z</time>
      </trkpt>
      <trkpt lat="48.70448" lon="2.03744">
        <ele>82</ele>
        <time>2020-02-12T10:19:39Z</time>
      </trkpt>
      <trkpt lat="48.70417" lon="2.03713">
        <ele>83</ele>
        <time>2020-02-12T10:19:45Z</time>
      </trkpt>
      <trkpt lat="48.70379" lon="2.0367">
        <ele>85</ele>
        <time>2020-02-12T10:19:54Z</time>
      </trkpt>
      <trkpt lat="48.70347" lon="2.03615">
        <ele>84</ele>
        <time>2020-02-12T10:20:02Z</time>
      </trkpt>
      <trkpt lat="48.70297" lon="2.03504">
        <ele>86</ele>
        <time>2020-02-12T10:20:18Z</time>
      </trkpt>
      <trkpt lat="48.70283" lon="2.03455">
        <ele>86</ele>
        <time>2020-02-12T10:20:24Z</time>
      </trkpt>
      <trkpt lat="48.70262" lon="2.0334">
        <ele>85</ele>
        <time>2020-02-12T10:20:38Z</time>
      </trkpt>
      <trkpt lat="48.70249" lon="2.03297">
        <ele>86</ele>
        <time>2020-02-12T10:20:44Z</time>
      </trkpt>
      <trkpt lat="48.70217" lon="2.03226">
        <ele>88</ele>
        <time>2020-02-12T10:20:54Z</time>
      </trkpt>
      <trkpt lat="48.70191" lon="2.03181">
        <ele>89</ele>
        <time>2020-02-12T10:21:01Z</time>
      </trkpt>
      <trkpt lat="48.70149" lon="2.03116">
        <ele>89</ele>
        <time>2020-02-12T10:21:12Z</time>
      </trkpt>
      <trkpt lat="48.70115" lon="2.03082">
        <ele>89</ele>
        <time>2020-02-12T10:21:19Z</time>
      </trkpt>
      <trkpt lat="48.70092" lon="2.03068">
        <ele>90</ele>
        <time>2020-02-12T10:21:23Z</time>
      </trkpt>
      <trkpt lat="48.70053" lon="2.03056">
        <ele>90</ele>
        <time>2020-02-12T10:21:30Z</time>
      </trkpt>
      <trkpt lat="48.7" lon="2.03045">
        <ele>90</ele>
        <time>2020-02-12T10:21:40Z</time>
      </trkpt>
      <trkpt lat="48.69988" lon="2.03037">
        <ele>90</ele>
        <time>2020-02-12T10:21:42Z</time>
      </trkpt>
      <trkpt lat="48.69955" lon="2.03005">
        <ele>90</ele>
        <time>2020-02-12T10:21:49Z</time>
      </trkpt>
      <trkpt lat="48.6993" lon="2.02974">
        <ele>90</ele>
        <time>2020-02-12T10:21:55Z</time>
      </trkpt>
      <trkpt lat="48.69909" lon="2.02938">
        <ele>90</ele>
        <time>2020-02-12T10:22:01Z</time>
      </trkpt>
      <trkpt lat="48.69897" lon="2.02906">
        <ele>89</ele>
        <time>2020-02-12T10:22:05Z</time>
      </trkpt>
      <trkpt lat="48.69855" lon="2.02713">
        <ele>85</ele>
        <time>2020-02-12T10:22:29Z</time>
      </trkpt>
      <trkpt lat="48.69811" lon="2.02557">
        <ele>87</ele>
        <time>2020-02-12T10:22:49Z</time>
      </trkpt>
      <trkpt lat="48.69689" lon="2.0216">
        <ele>96</ele>
        <time>2020-02-12T10:23:40Z</time>
      </trkpt>
      <trkpt lat="48.69655" lon="2.02075">
        <ele>103</ele>
        <time>2020-02-12T10:23:52Z</time>
      </trkpt>
      <trkpt lat="48.69615" lon="2.02002">
        <ele>111</ele>
        <time>2020-02-12T10:24:03Z</time>
      </trkpt>
      <trkpt lat="48.69592" lon="2.01967">
        <ele>111</ele>
        <time>2020-02-12T10:24:09Z</time>
      </trkpt>
      <trkpt lat="48.69529" lon="2.01898">
        <ele>115</ele>
        <time>2020-02-12T10:24:23Z</time>
      </trkpt>
      <trkpt lat="48.6947" lon="2.01842">
        <ele>118</ele>
        <time>2020-02-12T10:24:35Z</time>
      </trkpt>
      <trkpt lat="48.69325" lon="2.01736">
        <ele>119</ele>
        <time>2020-02-12T10:25:04Z</time>
      </trkpt>
      <trkpt lat="48.69208" lon="2.01655">
        <ele>122</ele>
        <time>2020-02-12T10:25:27Z</time>
      </trkpt>
      <trkpt lat="48.6916" lon="2.01618">
        <ele>123</ele>
        <time>2020-02-12T10:25:36Z</time>
      </trkpt>
      <trkpt lat="48.69046" lon="2.01496">
        <ele>112</ele>
        <time>2020-02-12T10:26:01Z</time>
      </trkpt>
      <trkpt lat="48.69019" lon="2.01473">
        <ele>113</ele>
        <time>2020-02-12T10:26:06Z</time>
      </trkpt>
      <trkpt lat="48.68984" lon="2.01455">
        <ele>113</ele>
        <time>2020-02-12T10:26:13Z</time>
      </trkpt>
      <trkpt lat="48.68905" lon="2.01429">
        <ele>116</ele>
        <time>2020-02-12T10:26:27Z</time>
      </trkpt>
      <trkpt lat="48.68825" lon="2.01407">
        <ele>122</ele>
        <time>2020-02-12T10:26:42Z</time>
      </trkpt>
      <trkpt lat="48.68791" lon="2.01402">
        <ele>126</ele>
        <time>2020-02-12T10:26:48Z</time>
      </trkpt>
      <trkpt lat="48.68665" lon="2.01394">
        <ele>136</ele>
        <time>2020-02-12T10:27:10Z</time>
      </trkpt>
      <trkpt lat="48.68588" lon="2.01385">
        <ele>140</ele>
        <time>2020-02-12T10:27:24Z</time>
      </trkpt>
      <trkpt lat="48.6856" lon="2.01379">
        <ele>142</ele>
        <time>2020-02-12T10:27:29Z</time>
      </trkpt>
      <trkpt lat="48.68547" lon="2.01374">
        <ele>143</ele>
        <time>2020-02-12T10:27:32Z</time>
      </trkpt>
      <trkpt lat="48.68535" lon="2.01365">
        <ele>144</ele>
        <time>2020-02-12T10:27:34Z</time>
      </trkpt>
      <trkpt lat="48.68521" lon="2.01353">
        <ele>145</ele>
        <time>2020-02-12T10:27:37Z</time>
      </trkpt>
      <trkpt lat="48.68516" lon="2.01344">
        <ele>146</ele>
        <time>2020-02-12T10:27:38Z</time>
      </trkpt>
      <trkpt lat="48.68508" lon="2.01329">
        <ele>147</ele>
        <time>2020-02-12T10:27:40Z</time>
      </trkpt>
      <trkpt lat="48.68499" lon="2.01288">
        <ele>152</ele>
        <time>2020-02-12T10:27:46Z</time>
      </trkpt>
      <trkpt lat="48.68499" lon="2.01275">
        <ele>153</ele>
        <time>2020-02-12T10:27:47Z</time>
      </trkpt>
      <trkpt lat="48.68503" lon="2.01254">
        <ele>155</ele>
        <time>2020-02-12T10:27:50Z</time>
      </trkpt>
      <trkpt lat="48.68512" lon="2.01229">
        <ele>158</ele>
        <time>2020-02-12T10:27:53Z</time>
      </trkpt>
      <trkpt lat="48.68521" lon="2.01212">
        <ele>159</ele>
        <time>2020-02-12T10:27:56Z</time>
      </trkpt>
      <trkpt lat="48.68598" lon="2.01095">
        <ele>162</ele>
        <time>2020-02-12T10:28:15Z</time>
      </trkpt>
      <trkpt lat="48.68605" lon="2.01069">
        <ele>163</ele>
        <time>2020-02-12T10:28:18Z</time>
      </trkpt>
      <trkpt lat="48.68607" lon="2.01035">
        <ele>165</ele>
        <time>2020-02-12T10:28:22Z</time>
      </trkpt>
      <trkpt lat="48.68584" lon="2.0093">
        <ele>172</ele>
        <time>2020-02-12T10:28:35Z</time>
      </trkpt>
      <trkpt lat="48.6854" lon="2.00707">
        <ele>170</ele>
        <time>2020-02-12T10:29:03Z</time>
      </trkpt>
      <trkpt lat="48.6851" lon="2.00531">
        <ele>171</ele>
        <time>2020-02-12T10:29:24Z</time>
      </trkpt>
      <trkpt lat="48.68481" lon="2.00406">
        <ele>172</ele>
        <time>2020-02-12T10:29:39Z</time>
      </trkpt>
      <trkpt lat="48.68462" lon="2.0036">
        <ele>172</ele>
        <time>2020-02-12T10:29:46Z</time>
      </trkpt>
      <trkpt lat="48.68433" lon="2.00313">
        <ele>173</ele>
        <time>2020-02-12T10:29:53Z</time>
      </trkpt>
      <trkpt lat="48.68348" lon="2.00186">
        <ele>174</ele>
        <time>2020-02-12T10:30:15Z</time>
      </trkpt>
      <trkpt lat="48.68315" lon="2.00141">
        <ele>174</ele>
        <time>2020-02-12T10:30:23Z</time>
      </trkpt>
      <trkpt lat="48.68251" lon="2.00042">
        <ele>175</ele>
        <time>2020-02-12T10:30:39Z</time>
      </trkpt>
      <trkpt lat="48.68158" lon="1.99847">
        <ele>176</ele>
        <time>2020-02-12T10:31:07Z</time>
      </trkpt>
      <trkpt lat="48.68019" lon="1.99644">
        <ele>177</ele>
        <time>2020-02-12T10:31:41Z</time>
      </trkpt>
      <trkpt lat="48.67911" lon="1.99457">
        <ele>177</ele>
        <time>2020-02-12T10:32:11Z</time>
      </trkpt>
      <trkpt lat="48.67884" lon="1.99415">
        <ele>177</ele>
        <time>2020-02-12T10:32:18Z</time>
      </trkpt>
      <trkpt lat="48.67826" lon="1.9931">
        <ele>176</ele>
        <time>2020-02-12T10:32:34Z</time>
      </trkpt>
      <trkpt lat="48.67811" lon="1.99277">
        <ele>176</ele>
        <time>2020-02-12T10:32:38Z</time>
      </trkpt>
      <trkpt lat="48.67791" lon="1.99219">
        <ele>176</ele>
        <time>2020-02-12T10:32:46Z</time>
      </trkpt>
      <trkpt lat="48.67768" lon="1.99122">
        <ele>177</ele>
        <time>2020-02-12T10:32:58Z</time>
      </trkpt>
      <trkpt lat="48.67726" lon="1.9892">
        <ele>175</ele>
        <time>2020-02-12T10:33:23Z</time>
      </trkpt>
      <trkpt lat="48.67607" lon="1.99053">
        <ele>174</ele>
        <time>2020-02-12T10:33:49Z</time>
      </trkpt>
      <trkpt lat="48.67593" lon="1.99065">
        <ele>173</ele>
        <time>2020-02-12T10:33:52Z</time>
      </trkpt>
      <trkpt lat="48.67577" lon="1.99073">
        <ele>173</ele>
        <time>2020-02-12T10:33:55Z</time>
      </trkpt>
      <trkpt lat="48.67565" lon="1.99076">
        <ele>173</ele>
        <time>2020-02-12T10:33:57Z</time>
      </trkpt>
      <trkpt lat="48.67546" lon="1.99076">
        <ele>174</ele>
        <time>2020-02-12T10:34:01Z</time>
      </trkpt>
      <trkpt lat="48.67528" lon="1.9907">
        <ele>174</ele>
        <time>2020-02-12T10:34:04Z</time>
      </trkpt>
      <trkpt lat="48.67273" lon="1.98957">
        <ele>174</ele>
        <time>2020-02-12T10:34:51Z</time>
      </trkpt>
      <trkpt lat="48.6722" lon="1.98935">
        <ele>173</ele>
        <time>2020-02-12T10:35:01Z</time>
      </trkpt>
      <trkpt lat="48.67194" lon="1.98927">
        <ele>172</ele>
        <time>2020-02-12T10:35:06Z</time>
      </trkpt>
      <trkpt lat="48.66897" lon="1.9887">
        <ele>168</ele>
        <time>2020-02-12T10:35:59Z</time>
      </trkpt>
      <trkpt lat="48.66894" lon="1.98853">
        <ele>169</ele>
        <time>2020-02-12T10:36:01Z</time>
      </trkpt>
      <trkpt lat="48.66883" lon="1.98845">
        <ele>169</ele>
        <time>2020-02-12T10:36:03Z</time>
      </trkpt>
      <trkpt lat="48.66874" lon="1.98849">
        <ele>168</ele>
        <time>2020-02-12T10:36:05Z</time>
      </trkpt>
      <trkpt lat="48.66869" lon="1.98858">
        <ele>168</ele>
        <time>2020-02-12T10:36:06Z</time>
      </trkpt>
      <trkpt lat="48.66868" lon="1.98865">
        <ele>168</ele>
        <time>2020-02-12T10:36:07Z</time>
      </trkpt>
      <trkpt lat="48.66735" lon="1.98851">
        <ele>171</ele>
        <time>2020-02-12T10:36:31Z</time>
      </trkpt>
      <trkpt lat="48.66709" lon="1.98845">
        <ele>171</ele>
        <time>2020-02-12T10:36:36Z</time>
      </trkpt>
      <trkpt lat="48.66481" lon="1.98765">
        <ele>172</ele>
        <time>2020-02-12T10:37:17Z</time>
      </trkpt>
      <trkpt lat="48.66435" lon="1.98752">
        <ele>173</ele>
        <time>2020-02-12T10:37:26Z</time>
      </trkpt>
      <trkpt lat="48.66408" lon="1.98749">
        <ele>173</ele>
        <time>2020-02-12T10:37:30Z</time>
      </trkpt>
      <trkpt lat="48.66329" lon="1.98749">
        <ele>175</ele>
        <time>2020-02-12T10:37:44Z</time>
      </trkpt>
      <trkpt lat="48.65856" lon="1.98774">
        <ele>175</ele>
        <time>2020-02-12T10:39:09Z</time>
      </trkpt>
      <trkpt lat="48.65795" lon="1.98778">
        <ele>174</ele>
        <time>2020-02-12T10:39:19Z</time>
      </trkpt>
      <trkpt lat="48.65633" lon="1.98801">
        <ele>174</ele>
        <time>2020-02-12T10:39:48Z</time>
      </trkpt>
      <trkpt lat="48.65545" lon="1.9881">
        <ele>173</ele>
        <time>2020-02-12T10:40:04Z</time>
      </trkpt>
      <trkpt lat="48.65476" lon="1.9881">
        <ele>173</ele>
        <time>2020-02-12T10:40:16Z</time>
      </trkpt>
      <trkpt lat="48.64785" lon="1.98776">
        <ele>172</ele>
        <time>2020-02-12T10:42:19Z</time>
      </trkpt>
      <trkpt lat="48.64759" lon="1.98773">
        <ele>172</ele>
        <time>2020-02-12T10:42:24Z</time>
      </trkpt>
      <trkpt lat="48.64725" lon="1.98765">
        <ele>172</ele>
        <time>2020-02-12T10:42:30Z</time>
      </trkpt>
      <trkpt lat="48.64677" lon="1.98749">
        <ele>172</ele>
        <time>2020-02-12T10:42:39Z</time>
      </trkpt>
      <trkpt lat="48.64346" lon="1.98623">
        <ele>173</ele>
        <time>2020-02-12T10:43:40Z</time>
      </trkpt>
      <trkpt lat="48.64293" lon="1.9861">
        <ele>173</ele>
        <time>2020-02-12T10:43:49Z</time>
      </trkpt>
      <trkpt lat="48.64274" lon="1.98609">
        <ele>172</ele>
        <time>2020-02-12T10:43:53Z</time>
      </trkpt>
      <trkpt lat="48.64258" lon="1.98611">
        <ele>172</ele>
        <time>2020-02-12T10:43:55Z</time>
      </trkpt>
      <trkpt lat="48.64234" lon="1.98617">
        <ele>173</ele>
        <time>2020-02-12T10:44:00Z</time>
      </trkpt>
      <trkpt lat="48.64193" lon="1.98638">
        <ele>174</ele>
        <time>2020-02-12T10:44:07Z</time>
      </trkpt>
      <trkpt lat="48.6417" lon="1.98655">
        <ele>174</ele>
        <time>2020-02-12T10:44:12Z</time>
      </trkpt>
      <trkpt lat="48.641" lon="1.98717">
        <ele>175</ele>
        <time>2020-02-12T10:44:26Z</time>
      </trkpt>
      <trkpt lat="48.64072" lon="1.98734">
        <ele>175</ele>
        <time>2020-02-12T10:44:32Z</time>
      </trkpt>
      <trkpt lat="48.63951" lon="1.98789">
        <ele>175</ele>
        <time>2020-02-12T10:44:54Z</time>
      </trkpt>
      <trkpt lat="48.6393" lon="1.98801">
        <ele>175</ele>
        <time>2020-02-12T10:44:58Z</time>
      </trkpt>
      <trkpt lat="48.63915" lon="1.98812">
        <ele>174</ele>
        <time>2020-02-12T10:45:01Z</time>
      </trkpt>
      <trkpt lat="48.63892" lon="1.98836">
        <ele>175</ele>
        <time>2020-02-12T10:45:06Z</time>
      </trkpt>
      <trkpt lat="48.63867" lon="1.98868">
        <ele>176</ele>
        <time>2020-02-12T10:45:12Z</time>
      </trkpt>
      <trkpt lat="48.63842" lon="1.98914">
        <ele>179</ele>
        <time>2020-02-12T10:45:19Z</time>
      </trkpt>
      <trkpt lat="48.63825" lon="1.98961">
        <ele>180</ele>
        <time>2020-02-12T10:45:25Z</time>
      </trkpt>
      <trkpt lat="48.6368" lon="1.99452">
        <ele>173</ele>
        <time>2020-02-12T10:46:29Z</time>
      </trkpt>
      <trkpt lat="48.63648" lon="1.99552">
        <ele>170</ele>
        <time>2020-02-12T10:46:42Z</time>
      </trkpt>
      <trkpt lat="48.63631" lon="1.99585">
        <ele>169</ele>
        <time>2020-02-12T10:46:47Z</time>
      </trkpt>
      <trkpt lat="48.63598" lon="1.9963">
        <ele>165</ele>
        <time>2020-02-12T10:46:55Z</time>
      </trkpt>
      <trkpt lat="48.63571" lon="1.99654">
        <ele>163</ele>
        <time>2020-02-12T10:47:00Z</time>
      </trkpt>
      <trkpt lat="48.63543" lon="1.99669">
        <ele>161</ele>
        <time>2020-02-12T10:47:05Z</time>
      </trkpt>
      <trkpt lat="48.63526" lon="1.99675">
        <ele>160</ele>
        <time>2020-02-12T10:47:08Z</time>
      </trkpt>
      <trkpt lat="48.63495" lon="1.9968">
        <ele>159</ele>
        <time>2020-02-12T10:47:14Z</time>
      </trkpt>
      <trkpt lat="48.63261" lon="1.99699">
        <ele>143</ele>
        <time>2020-02-12T10:47:56Z</time>
      </trkpt>
      <trkpt lat="48.63202" lon="1.99706">
        <ele>143</ele>
        <time>2020-02-12T10:48:06Z</time>
      </trkpt>
      <trkpt lat="48.63165" lon="1.99713">
        <ele>142</ele>
        <time>2020-02-12T10:48:13Z</time>
      </trkpt>
      <trkpt lat="48.63106" lon="1.99733">
        <ele>140</ele>
        <time>2020-02-12T10:48:24Z</time>
      </trkpt>
      <trkpt lat="48.62989" lon="1.99783">
        <ele>135</ele>
        <time>2020-02-12T10:48:45Z</time>
      </trkpt>
      <trkpt lat="48.62935" lon="1.99802">
        <ele>132</ele>
        <time>2020-02-12T10:48:55Z</time>
      </trkpt>
      <trkpt lat="48.62871" lon="1.99809">
        <ele>130</ele>
        <time>2020-02-12T10:49:07Z</time>
      </trkpt>
      <trkpt lat="48.62773" lon="1.99807">
        <ele>129</ele>
        <time>2020-02-12T10:49:24Z</time>
      </trkpt>
      <trkpt lat="48.62702" lon="1.9978">
        <ele>126</ele>
        <time>2020-02-12T10:49:37Z</time>
      </trkpt>
      <trkpt lat="48.6264" lon="1.99743">
        <ele>122</ele>
        <time>2020-02-12T10:49:49Z</time>
      </trkpt>
      <trkpt lat="48.62614" lon="1.99723">
        <ele>121</ele>
        <time>2020-02-12T10:49:54Z</time>
      </trkpt>
      <trkpt lat="48.62581" lon="1.99692">
        <ele>120</ele>
        <time>2020-02-12T10:50:01Z</time>
      </trkpt>
      <trkpt lat="48.6255" lon="1.99659">
        <ele>119</ele>
        <time>2020-02-12T10:50:08Z</time>
      </trkpt>
      <trkpt lat="48.62459" lon="1.99551">
        <ele>112</ele>
        <time>2020-02-12T10:50:28Z</time>
      </trkpt>
      <trkpt lat="48.62437" lon="1.99537">
        <ele>111</ele>
        <time>2020-02-12T10:50:33Z</time>
      </trkpt>
      <trkpt lat="48.62416" lon="1.99534">
        <ele>110</ele>
        <time>2020-02-12T10:50:36Z</time>
      </trkpt>
      <trkpt lat="48.62406" lon="1.99536">
        <ele>109</ele>
        <time>2020-02-12T10:50:38Z</time>
      </trkpt>
      <trkpt lat="48.6239" lon="1.99544">
        <ele>109</ele>
        <time>2020-02-12T10:50:41Z</time>
      </trkpt>
      <trkpt lat="48.62375" lon="1.99559">
        <ele>109</ele>
        <time>2020-02-12T10:50:44Z</time>
      </trkpt>
      <trkpt lat="48.62364" lon="1.99577">
        <ele>108</ele>
        <time>2020-02-12T10:50:47Z</time>
      </trkpt>
      <trkpt lat="48.6234" lon="1.99631">
        <ele>109</ele>
        <time>2020-02-12T10:50:55Z</time>
      </trkpt>
      <trkpt lat="48.6233" lon="1.99645">
        <ele>109</ele>
        <time>2020-02-12T10:50:57Z</time>
      </trkpt>
      <trkpt lat="48.62301" lon="1.99665">
        <ele>111</ele>
        <time>2020-02-12T10:51:03Z</time>
      </trkpt>
      <trkpt lat="48.62252" lon="1.99705">
        <ele>114</ele>
        <time>2020-02-12T10:51:13Z</time>
      </trkpt>
      <trkpt lat="48.62228" lon="1.99728">
        <ele>114</ele>
        <time>2020-02-12T10:51:18Z</time>
      </trkpt>
      <trkpt lat="48.62203" lon="1.99746">
        <ele>114</ele>
        <time>2020-02-12T10:51:23Z</time>
      </trkpt>
      <trkpt lat="48.62193" lon="1.99772">
        <ele>115</ele>
        <time>2020-02-12T10:51:26Z</time>
      </trkpt>
      <trkpt lat="48.62174" lon="1.99803">
        <ele>115</ele>
        <time>2020-02-12T10:51:31Z</time>
      </trkpt>
      <trkpt lat="48.6216" lon="1.99819">
        <ele>115</ele>
        <time>2020-02-12T10:51:34Z</time>
      </trkpt>
      <trkpt lat="48.62105" lon="1.99862">
        <ele>113</ele>
        <time>2020-02-12T10:51:45Z</time>
      </trkpt>
      <trkpt lat="48.62016" lon="1.99924">
        <ele>112</ele>
        <time>2020-02-12T10:52:03Z</time>
      </trkpt>
      <trkpt lat="48.6199" lon="1.99931">
        <ele>111</ele>
        <time>2020-02-12T10:52:08Z</time>
      </trkpt>
      <trkpt lat="48.61897" lon="1.99929">
        <ele>113</ele>
        <time>2020-02-12T10:52:24Z</time>
      </trkpt>
      <trkpt lat="48.61794" lon="1.99933">
        <ele>115</ele>
        <time>2020-02-12T10:52:42Z</time>
      </trkpt>
      <trkpt lat="48.6161" lon="1.9992">
        <ele>116</ele>
        <time>2020-02-12T10:53:15Z</time>
      </trkpt>
      <trkpt lat="48.61501" lon="1.99915">
        <ele>121</ele>
        <time>2020-02-12T10:53:35Z</time>
      </trkpt>
      <trkpt lat="48.61384" lon="1.99887">
        <ele>129</ele>
        <time>2020-02-12T10:53:56Z</time>
      </trkpt>
      <trkpt lat="48.61274" lon="1.99847">
        <ele>128</ele>
        <time>2020-02-12T10:54:16Z</time>
      </trkpt>
      <trkpt lat="48.6126" lon="1.9984">
        <ele>127</ele>
        <time>2020-02-12T10:54:18Z</time>
      </trkpt>
      <trkpt lat="48.61163" lon="1.99771">
        <ele>124</ele>
        <time>2020-02-12T10:54:38Z</time>
      </trkpt>
      <trkpt lat="48.61133" lon="1.99757">
        <ele>124</ele>
        <time>2020-02-12T10:54:43Z</time>
      </trkpt>
      <trkpt lat="48.61112" lon="1.9975">
        <ele>124</ele>
        <time>2020-02-12T10:54:47Z</time>
      </trkpt>
      <trkpt lat="48.61034" lon="1.99735">
        <ele>122</ele>
        <time>2020-02-12T10:55:01Z</time>
      </trkpt>
      <trkpt lat="48.60946" lon="1.99732">
        <ele>120</ele>
        <time>2020-02-12T10:55:17Z</time>
      </trkpt>
      <trkpt lat="48.60907" lon="1.99729">
        <ele>119</ele>
        <time>2020-02-12T10:55:24Z</time>
      </trkpt>
      <trkpt lat="48.60888" lon="1.99725">
        <ele>119</ele>
        <time>2020-02-12T10:55:27Z</time>
      </trkpt>
      <trkpt lat="48.60761" lon="1.9969">
        <ele>118</ele>
        <time>2020-02-12T10:55:50Z</time>
      </trkpt>
      <trkpt lat="48.60656" lon="1.99644">
        <ele>115</ele>
        <time>2020-02-12T10:56:09Z</time>
      </trkpt>
      <trkpt lat="48.60632" lon="1.99635">
        <ele>114</ele>
        <time>2020-02-12T10:56:14Z</time>
      </trkpt>
      <trkpt lat="48.60615" lon="1.99632">
        <ele>114</ele>
        <time>2020-02-12T10:56:17Z</time>
      </trkpt>
      <trkpt lat="48.60586" lon="1.99628">
        <ele>114</ele>
        <time>2020-02-12T10:56:22Z</time>
      </trkpt>
      <trkpt lat="48.60473" lon="1.99639">
        <ele>109</ele>
        <time>2020-02-12T10:56:42Z</time>
      </trkpt>
      <trkpt lat="48.60455" lon="1.99639">
        <ele>108</ele>
        <time>2020-02-12T10:56:45Z</time>
      </trkpt>
      <trkpt lat="48.60421" lon="1.99632">
        <ele>106</ele>
        <time>2020-02-12T10:56:51Z</time>
      </trkpt>
      <trkpt lat="48.60372" lon="1.99605">
        <ele>102</ele>
        <time>2020-02-12T10:57:01Z</time>
      </trkpt>
      <trkpt lat="48.60348" lon="1.99581">
        <ele>100</ele>
        <time>2020-02-12T10:57:06Z</time>
      </trkpt>
      <trkpt lat="48.60229" lon="1.99438">
        <ele>97</ele>
        <time>2020-02-12T10:57:33Z</time>
      </trkpt>
      <trkpt lat="48.60199" lon="1.99412">
        <ele>96</ele>
        <time>2020-02-12T10:57:39Z</time>
      </trkpt>
      <trkpt lat="48.60174" lon="1.99394">
        <ele>96</ele>
        <time>2020-02-12T10:57:44Z</time>
      </trkpt>
      <trkpt lat="48.60149" lon="1.99386">
        <ele>96</ele>
        <time>2020-02-12T10:57:49Z</time>
      </trkpt>
      <trkpt lat="48.60125" lon="1.99379">
        <ele>96</ele>
        <time>2020-02-12T10:57:53Z</time>
      </trkpt>
      <trkpt lat="48.6008" lon="1.99371">
        <ele>96</ele>
        <time>2020-02-12T10:58:01Z</time>
      </trkpt>
      <trkpt lat="48.59725" lon="1.99324">
        <ele>120</ele>
        <time>2020-02-12T10:59:04Z</time>
      </trkpt>
      <trkpt lat="48.59698" lon="1.99324">
        <ele>121</ele>
        <time>2020-02-12T10:59:09Z</time>
      </trkpt>
      <trkpt lat="48.59663" lon="1.99332">
        <ele>122</ele>
        <time>2020-02-12T10:59:15Z</time>
      </trkpt>
      <trkpt lat="48.59611" lon="1.99348">
        <ele>120</ele>
        <time>2020-02-12T10:59:25Z</time>
      </trkpt>
      <trkpt lat="48.59575" lon="1.99348">
        <ele>120</ele>
        <time>2020-02-12T10:59:31Z</time>
      </trkpt>
      <trkpt lat="48.59552" lon="1.99342">
        <ele>120</ele>
        <time>2020-02-12T10:59:35Z</time>
      </trkpt>
      <trkpt lat="48.59528" lon="1.9933">
        <ele>121</ele>
        <time>2020-02-12T10:59:40Z</time>
      </trkpt>
      <trkpt lat="48.5947" lon="1.99284">
        <ele>122</ele>
        <time>2020-02-12T10:59:52Z</time>
      </trkpt>
      <trkpt lat="48.59433" lon="1.99263">
        <ele>123</ele>
        <time>2020-02-12T10:59:59Z</time>
      </trkpt>
      <trkpt lat="48.59387" lon="1.9925">
        <ele>123</ele>
        <time>2020-02-12T11:00:07Z</time>
      </trkpt>
      <trkpt lat="48.59364" lon="1.99238">
        <ele>123</ele>
        <time>2020-02-12T11:00:11Z</time>
      </trkpt>
      <trkpt lat="48.59352" lon="1.99231">
        <ele>123</ele>
        <time>2020-02-12T11:00:14Z</time>
      </trkpt>
      <trkpt lat="48.59323" lon="1.99143">
        <ele>122</ele>
        <time>2020-02-12T11:00:25Z</time>
      </trkpt>
      <trkpt lat="48.59289" lon="1.99065">
        <ele>121</ele>
        <time>2020-02-12T11:00:36Z</time>
      </trkpt>
      <trkpt lat="48.59258" lon="1.9901">
        <ele>120</ele>
        <time>2020-02-12T11:00:45Z</time>
      </trkpt>
      <trkpt lat="48.59237" lon="1.98981">
        <ele>120</ele>
        <time>2020-02-12T11:00:50Z</time>
      </trkpt>
      <trkpt lat="48.59108" lon="1.98825">
        <ele>118</ele>
        <time>2020-02-12T11:01:19Z</time>
      </trkpt>
      <trkpt lat="48.5884" lon="1.98483">
        <ele>115</ele>
        <time>2020-02-12T11:02:22Z</time>
      </trkpt>
      <trkpt lat="48.58747" lon="1.9837">
        <ele>112</ele>
        <time>2020-02-12T11:02:43Z</time>
      </trkpt>
      <trkpt lat="48.58574" lon="1.9815">
        <ele>109</ele>
        <time>2020-02-12T11:03:23Z</time>
      </trkpt>
      <trkpt lat="48.58551" lon="1.98124">
        <ele>110</ele>
        <time>2020-02-12T11:03:28Z</time>
      </trkpt>
      <trkpt lat="48.58523" lon="1.981">
        <ele>110</ele>
        <time>2020-02-12T11:03:34Z</time>
      </trkpt>
      <trkpt lat="48.58491" lon="1.98078">
        <ele>109</ele>
        <time>2020-02-12T11:03:40Z</time>
      </trkpt>
      <trkpt lat="48.58475" lon="1.98069">
        <ele>109</ele>
        <time>2020-02-12T11:03:43Z</time>
      </trkpt>
      <trkpt lat="48.58439" lon="1.98057">
        <ele>108</ele>
        <time>2020-02-12T11:03:50Z</time>
      </trkpt>
      <trkpt lat="48.58391" lon="1.98054">
        <ele>108</ele>
        <time>2020-02-12T11:03:58Z</time>
      </trkpt>
      <trkpt lat="48.5826" lon="1.98076">
        <ele>109</ele>
        <time>2020-02-12T11:04:22Z</time>
      </trkpt>
      <trkpt lat="48.58213" lon="1.98075">
        <ele>110</ele>
        <time>2020-02-12T11:04:30Z</time>
      </trkpt>
      <trkpt lat="48.58209" lon="1.98056">
        <ele>110</ele>
        <time>2020-02-12T11:04:32Z</time>
      </trkpt>
      <trkpt lat="48.582" lon="1.98043">
        <ele>110</ele>
        <time>2020-02-12T11:04:35Z</time>
      </trkpt>
      <trkpt lat="48.58192" lon="1.98039">
        <ele>110</ele>
        <time>2020-02-12T11:04:36Z</time>
      </trkpt>
      <trkpt lat="48.58183" lon="1.98039">
        <ele>110</ele>
        <time>2020-02-12T11:04:38Z</time>
      </trkpt>
      <trkpt lat="48.58173" lon="1.98046">
        <ele>110</ele>
        <time>2020-02-12T11:04:40Z</time>
      </trkpt>
      <trkpt lat="48.58167" lon="1.98055">
        <ele>111</ele>
        <time>2020-02-12T11:04:41Z</time>
      </trkpt>
      <trkpt lat="48.58162" lon="1.98075">
        <ele>111</ele>
        <time>2020-02-12T11:04:44Z</time>
      </trkpt>
      <trkpt lat="48.58134" lon="1.98105">
        <ele>111</ele>
        <time>2020-02-12T11:04:50Z</time>
      </trkpt>
      <trkpt lat="48.5797" lon="1.98141">
        <ele>112</ele>
        <time>2020-02-12T11:05:19Z</time>
      </trkpt>
      <trkpt lat="48.57935" lon="1.98151">
        <ele>111</ele>
        <time>2020-02-12T11:05:26Z</time>
      </trkpt>
      <trkpt lat="48.57865" lon="1.98182">
        <ele>108</ele>
        <time>2020-02-12T11:05:39Z</time>
      </trkpt>
      <trkpt lat="48.57831" lon="1.98202">
        <ele>106</ele>
        <time>2020-02-12T11:05:45Z</time>
      </trkpt>
      <trkpt lat="48.57784" lon="1.98237">
        <ele>105</ele>
        <time>2020-02-12T11:05:54Z</time>
      </trkpt>
      <trkpt lat="48.57728" lon="1.98292">
        <ele>101</ele>
        <time>2020-02-12T11:06:06Z</time>
      </trkpt>
      <trkpt lat="48.57683" lon="1.98347">
        <ele>97</ele>
        <time>2020-02-12T11:06:17Z</time>
      </trkpt>
      <trkpt lat="48.5763" lon="1.98418">
        <ele>98</ele>
        <time>2020-02-12T11:06:29Z</time>
      </trkpt>
      <trkpt lat="48.57552" lon="1.9853">
        <ele>99</ele>
        <time>2020-02-12T11:06:48Z</time>
      </trkpt>
      <trkpt lat="48.57542" lon="1.98551">
        <ele>100</ele>
        <time>2020-02-12T11:06:51Z</time>
      </trkpt>
      <trkpt lat="48.57497" lon="1.98613">
        <ele>102</ele>
        <time>2020-02-12T11:07:02Z</time>
      </trkpt>
      <trkpt lat="48.57462" lon="1.9865">
        <ele>105</ele>
        <time>2020-02-12T11:07:10Z</time>
      </trkpt>
      <trkpt lat="48.5743" lon="1.98682">
        <ele>106</ele>
        <time>2020-02-12T11:07:17Z</time>
      </trkpt>
      <trkpt lat="48.57394" lon="1.98713">
        <ele>106</ele>
        <time>2020-02-12T11:07:24Z</time>
      </trkpt>
      <trkpt lat="48.5733" lon="1.98759">
        <ele>106</ele>
        <time>2020-02-12T11:07:37Z</time>
      </trkpt>
      <trkpt lat="48.57282" lon="1.98786">
        <ele>107</ele>
        <time>2020-02-12T11:07:46Z</time>
      </trkpt>
      <trkpt lat="48.57225" lon="1.98805">
        <ele>107</ele>
        <time>2020-02-12T11:07:56Z</time>
      </trkpt>
      <trkpt lat="48.57224" lon="1.98817">
        <ele>107</ele>
        <time>2020-02-12T11:07:58Z</time>
      </trkpt>
      <trkpt lat="48.57228" lon="1.98838">
        <ele>107</ele>
        <time>2020-02-12T11:08:00Z</time>
      </trkpt>
      <trkpt lat="48.57251" lon="1.98854">
        <ele>107</ele>
        <time>2020-02-12T11:08:05Z</time>
      </trkpt>
      <trkpt lat="48.5726" lon="1.98856">
        <ele>107</ele>
        <time>2020-02-12T11:08:06Z</time>
      </trkpt>
      <trkpt lat="48.57304" lon="1.989">
        <ele>106</ele>
        <time>2020-02-12T11:08:16Z</time>
      </trkpt>
      <trkpt lat="48.57607" lon="1.99185">
        <ele>96</ele>
        <time>2020-02-12T11:09:19Z</time>
      </trkpt>
      <trkpt lat="48.57626" lon="1.99206">
        <ele>95</ele>
        <time>2020-02-12T11:09:23Z</time>
      </trkpt>
      <trkpt lat="48.57635" lon="1.99224">
        <ele>95</ele>
        <time>2020-02-12T11:09:26Z</time>
      </trkpt>
      <trkpt lat="48.5764" lon="1.99242">
        <ele>94</ele>
        <time>2020-02-12T11:09:28Z</time>
      </trkpt>
      <trkpt lat="48.57641" lon="1.99262">
        <ele>94</ele>
        <time>2020-02-12T11:09:31Z</time>
      </trkpt>
      <trkpt lat="48.57636" lon="1.99292">
        <ele>94</ele>
        <time>2020-02-12T11:09:34Z</time>
      </trkpt>
      <trkpt lat="48.57575" lon="1.99453">
        <ele>92</ele>
        <time>2020-02-12T11:09:56Z</time>
      </trkpt>
      <trkpt lat="48.57548" lon="1.99535">
        <ele>92</ele>
        <time>2020-02-12T11:10:07Z</time>
      </trkpt>
      <trkpt lat="48.57529" lon="1.99602">
        <ele>93</ele>
        <time>2020-02-12T11:10:15Z</time>
      </trkpt>
      <trkpt lat="48.5752" lon="1.99643">
        <ele>92</ele>
        <time>2020-02-12T11:10:21Z</time>
      </trkpt>
      <trkpt lat="48.57513" lon="1.99721">
        <ele>91</ele>
        <time>2020-02-12T11:10:30Z</time>
      </trkpt>
      <trkpt lat="48.57512" lon="1.99904">
        <ele>93</ele>
        <time>2020-02-12T11:10:51Z</time>
      </trkpt>
      <trkpt lat="48.57499" lon="2.00093">
        <ele>95</ele>
        <time>2020-02-12T11:11:14Z</time>
      </trkpt>
      <trkpt lat="48.57488" lon="2.00167">
        <ele>97</ele>
        <time>2020-02-12T11:11:23Z</time>
      </trkpt>
      <trkpt lat="48.57442" lon="2.00382">
        <ele>96</ele>
        <time>2020-02-12T11:11:49Z</time>
      </trkpt>
      <trkpt lat="48.57436" lon="2.00435">
        <ele>96</ele>
        <time>2020-02-12T11:11:56Z</time>
      </trkpt>
      <trkpt lat="48.57435" lon="2.00467">
        <ele>96</ele>
        <time>2020-02-12T11:11:59Z</time>
      </trkpt>
      <trkpt lat="48.57438" lon="2.0051">
        <ele>95</ele>
        <time>2020-02-12T11:12:04Z</time>
      </trkpt>
      <trkpt lat="48.57448" lon="2.00565">
        <ele>95</ele>
        <time>2020-02-12T11:12:11Z</time>
      </trkpt>
      <trkpt lat="48.57461" lon="2.00611">
        <ele>95</ele>
        <time>2020-02-12T11:12:17Z</time>
      </trkpt>
      <trkpt lat="48.57512" lon="2.00747">
        <ele>94</ele>
        <time>2020-02-12T11:12:35Z</time>
      </trkpt>
      <trkpt lat="48.57519" lon="2.00771">
        <ele>94</ele>
        <time>2020-02-12T11:12:39Z</time>
      </trkpt>
      <trkpt lat="48.57533" lon="2.00828">
        <ele>94</ele>
        <time>2020-02-12T11:12:46Z</time>
      </trkpt>
      <trkpt lat="48.5754" lon="2.00884">
        <ele>94</ele>
        <time>2020-02-12T11:12:52Z</time>
      </trkpt>
      <trkpt lat="48.5754" lon="2.00924">
        <ele>94</ele>
        <time>2020-02-12T11:12:57Z</time>
      </trkpt>
      <trkpt lat="48.57534" lon="2.01001">
        <ele>94</ele>
        <time>2020-02-12T11:13:06Z</time>
      </trkpt>
      <trkpt lat="48.57499" lon="2.01266">
        <ele>93</ele>
        <time>2020-02-12T11:13:38Z</time>
      </trkpt>
      <trkpt lat="48.57418" lon="2.01752">
        <ele>95</ele>
        <time>2020-02-12T11:14:37Z</time>
      </trkpt>
      <trkpt lat="48.57351" lon="2.02132">
        <ele>96</ele>
        <time>2020-02-12T11:15:23Z</time>
      </trkpt>
      <trkpt lat="48.57325" lon="2.02245">
        <ele>96</ele>
        <time>2020-02-12T11:15:37Z</time>
      </trkpt>
      <trkpt lat="48.57296" lon="2.02343">
        <ele>95</ele>
        <time>2020-02-12T11:15:50Z</time>
      </trkpt>
      <trkpt lat="48.57256" lon="2.02461">
        <ele>94</ele>
        <time>2020-02-12T11:16:06Z</time>
      </trkpt>
      <trkpt lat="48.57229" lon="2.02521">
        <ele>91</ele>
        <time>2020-02-12T11:16:14Z</time>
      </trkpt>
      <trkpt lat="48.57206" lon="2.02558">
        <ele>88</ele>
        <time>2020-02-12T11:16:20Z</time>
      </trkpt>
      <trkpt lat="48.57001" lon="2.02833">
        <ele>86</ele>
        <time>2020-02-12T11:17:09Z</time>
      </trkpt>
      <trkpt lat="48.5695" lon="2.02907">
        <ele>85</ele>
        <time>2020-02-12T11:17:22Z</time>
      </trkpt>
      <trkpt lat="48.56919" lon="2.02972">
        <ele>83</ele>
        <time>2020-02-12T11:17:31Z</time>
      </trkpt>
      <trkpt lat="48.5687" lon="2.03099">
        <ele>80</ele>
        <time>2020-02-12T11:17:48Z</time>
      </trkpt>
      <trkpt lat="48.56842" lon="2.03147">
        <ele>79</ele>
        <time>2020-02-12T11:17:56Z</time>
      </trkpt>
      <trkpt lat="48.56829" lon="2.03166">
        <ele>79</ele>
        <time>2020-02-12T11:17:59Z</time>
      </trkpt>
      <trkpt lat="48.56825" lon="2.03161">
        <ele>79</ele>
        <time>2020-02-12T11:18:00Z</time>
      </trkpt>
      <trkpt lat="48.5677" lon="2.03205">
        <ele>80</ele>
        <time>2020-02-12T11:18:11Z</time>
      </trkpt>
      <trkpt lat="48.56752" lon="2.03225">
        <ele>80</ele>
        <time>2020-02-12T11:18:15Z</time>
      </trkpt>
      <trkpt lat="48.56736" lon="2.03251">
        <ele>80</ele>
        <time>2020-02-12T11:18:19Z</time>
      </trkpt>
      <trkpt lat="48.56717" lon="2.03297">
        <ele>81</ele>
        <time>2020-02-12T11:18:26Z</time>
      </trkpt>
      <trkpt lat="48.56695" lon="2.03371">
        <ele>81</ele>
        <time>2020-02-12T11:18:35Z</time>
      </trkpt>
      <trkpt lat="48.56667" lon="2.03518">
        <ele>78</ele>
        <time>2020-02-12T11:18:53Z</time>
      </trkpt>
      <trkpt lat="48.56643" lon="2.03621">
        <ele>80</ele>
        <time>2020-02-12T11:19:06Z</time>
      </trkpt>
      <trkpt lat="48.56629" lon="2.03701">
        <ele>80</ele>
        <time>2020-02-12T11:19:16Z</time>
      </trkpt>
      <trkpt lat="48.56621" lon="2.03733">
        <ele>80</ele>
        <time>2020-02-12T11:19:20Z</time>
      </trkpt>
      <trkpt lat="48.5661" lon="2.03761">
        <ele>80</ele>
        <time>2020-02-12T11:19:24Z</time>
      </trkpt>
      <trkpt lat="48.56591" lon="2.03794">
        <ele>79</ele>
        <time>2020-02-12T11:19:29Z</time>
      </trkpt>
      <trkpt lat="48.56514" lon="2.03914">
        <ele>79</ele>
        <time>2020-02-12T11:19:48Z</time>
      </trkpt>
      <trkpt lat="48.56496" lon="2.03954">
        <ele>79</ele>
        <time>2020-02-12T11:19:54Z</time>
      </trkpt>
      <trkpt lat="48.56488" lon="2.03978">
        <ele>80</ele>
        <time>2020-02-12T11:19:57Z</time>
      </trkpt>
      <trkpt lat="48.56459" lon="2.04083">
        <ele>83</ele>
        <time>2020-02-12T11:20:11Z</time>
      </trkpt>
      <trkpt lat="48.56426" lon="2.04225">
        <ele>85</ele>
        <time>2020-02-12T11:20:28Z</time>
      </trkpt>
      <trkpt lat="48.56411" lon="2.04307">
        <ele>87</ele>
        <time>2020-02-12T11:20:38Z</time>
      </trkpt>
      <trkpt lat="48.56403" lon="2.04381">
        <ele>87</ele>
        <time>2020-02-12T11:20:47Z</time>
      </trkpt>
      <trkpt lat="48.56361" lon="2.04947">
        <ele>83</ele>
        <time>2020-02-12T11:21:54Z</time>
      </trkpt>
      <trkpt lat="48.56268" lon="2.04932">
        <ele>90</ele>
        <time>2020-02-12T11:22:11Z</time>
      </trkpt>
      <trkpt lat="48.56236" lon="2.04948">
        <ele>94</ele>
        <time>2020-02-12T11:22:17Z</time>
      </trkpt>
      <trkpt lat="48.56205" lon="2.04955">
        <ele>97</ele>
        <time>2020-02-12T11:22:23Z</time>
      </trkpt>
      <trkpt lat="48.56163" lon="2.04939">
        <ele>101</ele>
        <time>2020-02-12T11:22:30Z</time>
      </trkpt>
      <trkpt lat="48.56147" lon="2.0493">
        <ele>103</ele>
        <time>2020-02-12T11:22:33Z</time>
      </trkpt>
      <trkpt lat="48.56107" lon="2.04898">
        <ele>106</ele>
        <time>2020-02-12T11:22:41Z</time>
      </trkpt>
      <trkpt lat="48.56094" lon="2.04892">
        <ele>107</ele>
        <time>2020-02-12T11:22:44Z</time>
      </trkpt>
      <trkpt lat="48.56076" lon="2.0489">
        <ele>107</ele>
        <time>2020-02-12T11:22:47Z</time>
      </trkpt>
      <trkpt lat="48.56058" lon="2.04894">
        <ele>108</ele>
        <time>2020-02-12T11:22:50Z</time>
      </trkpt>
      <trkpt lat="48.56029" lon="2.04912">
        <ele>110</ele>
        <time>2020-02-12T11:22:56Z</time>
      </trkpt>
      <trkpt lat="48.55989" lon="2.04949">
        <ele>112</ele>
        <time>2020-02-12T11:23:04Z</time>
      </trkpt>
      <trkpt lat="48.55979" lon="2.04963">
        <ele>113</ele>
        <time>2020-02-12T11:23:07Z</time>
      </trkpt>
      <trkpt lat="48.55966" lon="2.04996">
        <ele>115</ele>
        <time>2020-02-12T11:23:11Z</time>
      </trkpt>
      <trkpt lat="48.55939" lon="2.05114">
        <ele>118</ele>
        <time>2020-02-12T11:23:26Z</time>
      </trkpt>
      <trkpt lat="48.55925" lon="2.05137">
        <ele>117</ele>
        <time>2020-02-12T11:23:29Z</time>
      </trkpt>
      <trkpt lat="48.55908" lon="2.05149">
        <ele>117</ele>
        <time>2020-02-12T11:23:33Z</time>
      </trkpt>
      <trkpt lat="48.55895" lon="2.05151">
        <ele>118</ele>
        <time>2020-02-12T11:23:35Z</time>
      </trkpt>
      <trkpt lat="48.55649" lon="2.05121">
        <ele>134</ele>
        <time>2020-02-12T11:24:19Z</time>
      </trkpt>
      <trkpt lat="48.55629" lon="2.05122">
        <ele>137</ele>
        <time>2020-02-12T11:24:23Z</time>
      </trkpt>
      <trkpt lat="48.55603" lon="2.05132">
        <ele>139</ele>
        <time>2020-02-12T11:24:27Z</time>
      </trkpt>
      <trkpt lat="48.55562" lon="2.05169">
        <ele>143</ele>
        <time>2020-02-12T11:24:36Z</time>
      </trkpt>
      <trkpt lat="48.55531" lon="2.05202">
        <ele>148</ele>
        <time>2020-02-12T11:24:43Z</time>
      </trkpt>
      <trkpt lat="48.55498" lon="2.05257">
        <ele>151</ele>
        <time>2020-02-12T11:24:51Z</time>
      </trkpt>
      <trkpt lat="48.55475" lon="2.05331">
        <ele>148</ele>
        <time>2020-02-12T11:25:01Z</time>
      </trkpt>
      <trkpt lat="48.55443" lon="2.05417">
        <ele>147</ele>
        <time>2020-02-12T11:25:13Z</time>
      </trkpt>
      <trkpt lat="48.55429" lon="2.05436">
        <ele>147</ele>
        <time>2020-02-12T11:25:16Z</time>
      </trkpt>
      <trkpt lat="48.55414" lon="2.05445">
        <ele>148</ele>
        <time>2020-02-12T11:25:19Z</time>
      </trkpt>
      <trkpt lat="48.55395" lon="2.05446">
        <ele>149</ele>
        <time>2020-02-12T11:25:22Z</time>
      </trkpt>
      <trkpt lat="48.55373" lon="2.05436">
        <ele>149</ele>
        <time>2020-02-12T11:25:26Z</time>
      </trkpt>
      <trkpt lat="48.55129" lon="2.052">
        <ele>158</ele>
        <time>2020-02-12T11:26:18Z</time>
      </trkpt>
      <trkpt lat="48.55089" lon="2.05166">
        <ele>159</ele>
        <time>2020-02-12T11:26:26Z</time>
      </trkpt>
      <trkpt lat="48.5507" lon="2.05156">
        <ele>158</ele>
        <time>2020-02-12T11:26:30Z</time>
      </trkpt>
      <trkpt lat="48.55048" lon="2.05148">
        <ele>158</ele>
        <time>2020-02-12T11:26:34Z</time>
      </trkpt>
      <trkpt lat="48.55012" lon="2.0514">
        <ele>156</ele>
        <time>2020-02-12T11:26:40Z</time>
      </trkpt>
      <trkpt lat="48.54962" lon="2.05138">
        <ele>155</ele>
        <time>2020-02-12T11:26:49Z</time>
      </trkpt>
      <trkpt lat="48.54755" lon="2.05165">
        <ele>153</ele>
        <time>2020-02-12T11:27:26Z</time>
      </trkpt>
      <trkpt lat="48.54727" lon="2.05165">
        <ele>153</ele>
        <time>2020-02-12T11:27:31Z</time>
      </trkpt>
      <trkpt lat="48.54676" lon="2.05153">
        <ele>152</ele>
        <time>2020-02-12T11:27:40Z</time>
      </trkpt>
      <trkpt lat="48.54615" lon="2.05125">
        <ele>152</ele>
        <time>2020-02-12T11:27:51Z</time>
      </trkpt>
      <trkpt lat="48.54574" lon="2.0511">
        <ele>152</ele>
        <time>2020-02-12T11:27:59Z</time>
      </trkpt>
      <trkpt lat="48.54521" lon="2.05094">
        <ele>152</ele>
        <time>2020-02-12T11:28:09Z</time>
      </trkpt>
      <trkpt lat="48.54486" lon="2.05087">
        <ele>152</ele>
        <time>2020-02-12T11:28:15Z</time>
      </trkpt>
      <trkpt lat="48.54368" lon="2.05054">
        <ele>152</ele>
        <time>2020-02-12T11:28:36Z</time>
      </trkpt>
      <trkpt lat="48.54322" lon="2.05048">
        <ele>152</ele>
        <time>2020-02-12T11:28:44Z</time>
      </trkpt>
      <trkpt lat="48.54215" lon="2.05043">
        <ele>154</ele>
        <time>2020-02-12T11:29:03Z</time>
      </trkpt>
      <trkpt lat="48.53992" lon="2.05006">
        <ele>153</ele>
        <time>2020-02-12T11:29:43Z</time>
      </trkpt>
      <trkpt lat="48.53956" lon="2.05002">
        <ele>151</ele>
        <time>2020-02-12T11:29:50Z</time>
      </trkpt>
      <trkpt lat="48.53939" lon="2.05005">
        <ele>151</ele>
        <time>2020-02-12T11:29:53Z</time>
      </trkpt>
      <trkpt lat="48.53928" lon="2.05014">
        <ele>151</ele>
        <time>2020-02-12T11:29:55Z</time>
      </trkpt>
      <trkpt lat="48.53918" lon="2.05033">
        <ele>150</ele>
        <time>2020-02-12T11:29:58Z</time>
      </trkpt>
      <trkpt lat="48.53895" lon="2.05104">
        <ele>150</ele>
        <time>2020-02-12T11:30:07Z</time>
      </trkpt>
      <trkpt lat="48.5389" lon="2.05113">
        <ele>150</ele>
        <time>2020-02-12T11:30:09Z</time>
      </trkpt>
      <trkpt lat="48.53883" lon="2.05118">
        <ele>150</ele>
        <time>2020-02-12T11:30:10Z</time>
      </trkpt>
      <trkpt lat="48.53877" lon="2.05119">
        <ele>150</ele>
        <time>2020-02-12T11:30:11Z</time>
      </trkpt>
      <trkpt lat="48.53824" lon="2.05075">
        <ele>148</ele>
        <time>2020-02-12T11:30:22Z</time>
      </trkpt>
      <trkpt lat="48.53761" lon="2.05012">
        <ele>144</ele>
        <time>2020-02-12T11:30:35Z</time>
      </trkpt>
      <trkpt lat="48.53752" lon="2.05009">
        <ele>143</ele>
        <time>2020-02-12T11:30:37Z</time>
      </trkpt>
      <trkpt lat="48.53719" lon="2.05009">
        <ele>143</ele>
        <time>2020-02-12T11:30:43Z</time>
      </trkpt>
      <trkpt lat="48.53672" lon="2.05013">
        <ele>144</ele>
        <time>2020-02-12T11:30:51Z</time>
      </trkpt>
      <trkpt lat="48.53648" lon="2.05007">
        <ele>143</ele>
        <time>2020-02-12T11:30:56Z</time>
      </trkpt>
      <trkpt lat="48.53623" lon="2.04994">
        <ele>142</ele>
        <time>2020-02-12T11:31:00Z</time>
      </trkpt>
      <trkpt lat="48.53608" lon="2.04989">
        <ele>142</ele>
        <time>2020-02-12T11:31:03Z</time>
      </trkpt>
      <trkpt lat="48.53539" lon="2.05064">
        <ele>136</ele>
        <time>2020-02-12T11:31:18Z</time>
      </trkpt>
      <trkpt lat="48.53519" lon="2.05095">
        <ele>135</ele>
        <time>2020-02-12T11:31:23Z</time>
      </trkpt>
      <trkpt lat="48.53509" lon="2.05124">
        <ele>135</ele>
        <time>2020-02-12T11:31:27Z</time>
      </trkpt>
      <trkpt lat="48.53506" lon="2.05151">
        <ele>135</ele>
        <time>2020-02-12T11:31:30Z</time>
      </trkpt>
      <trkpt lat="48.53508" lon="2.05163">
        <ele>135</ele>
        <time>2020-02-12T11:31:32Z</time>
      </trkpt>
      <trkpt lat="48.53534" lon="2.05245">
        <ele>134</ele>
        <time>2020-02-12T11:31:42Z</time>
      </trkpt>
      <trkpt lat="48.53536" lon="2.05263">
        <ele>134</ele>
        <time>2020-02-12T11:31:45Z</time>
      </trkpt>
      <trkpt lat="48.53535" lon="2.05288">
        <ele>133</ele>
        <time>2020-02-12T11:31:48Z</time>
      </trkpt>
      <trkpt lat="48.53529" lon="2.05297">
        <ele>133</ele>
        <time>2020-02-12T11:31:49Z</time>
      </trkpt>
      <trkpt lat="48.53513" lon="2.05311">
        <ele>131</ele>
        <time>2020-02-12T11:31:52Z</time>
      </trkpt>
      <trkpt lat="48.53502" lon="2.05313">
        <ele>131</ele>
        <time>2020-02-12T11:31:54Z</time>
      </trkpt>
      <trkpt lat="48.53491" lon="2.05309">
        <ele>129</ele>
        <time>2020-02-12T11:31:56Z</time>
      </trkpt>
      <trkpt lat="48.53475" lon="2.05287">
        <ele>127</ele>
        <time>2020-02-12T11:32:00Z</time>
      </trkpt>
      <trkpt lat="48.53462" lon="2.0526">
        <ele>126</ele>
        <time>2020-02-12T11:32:04Z</time>
      </trkpt>
      <trkpt lat="48.53433" lon="2.05187">
        <ele>121</ele>
        <time>2020-02-12T11:32:14Z</time>
      </trkpt>
      <trkpt lat="48.53427" lon="2.05163">
        <ele>120</ele>
        <time>2020-02-12T11:32:17Z</time>
      </trkpt>
      <trkpt lat="48.53423" lon="2.05136">
        <ele>119</ele>
        <time>2020-02-12T11:32:20Z</time>
      </trkpt>
      <trkpt lat="48.53417" lon="2.04982">
        <ele>116</ele>
        <time>2020-02-12T11:32:39Z</time>
      </trkpt>
      <trkpt lat="48.53413" lon="2.04957">
        <ele>115</ele>
        <time>2020-02-12T11:32:42Z</time>
      </trkpt>
      <trkpt lat="48.53392" lon="2.04907">
        <ele>113</ele>
        <time>2020-02-12T11:32:49Z</time>
      </trkpt>
      <trkpt lat="48.53315" lon="2.04812">
        <ele>105</ele>
        <time>2020-02-12T11:33:06Z</time>
      </trkpt>
      <trkpt lat="48.53294" lon="2.04783">
        <ele>102</ele>
        <time>2020-02-12T11:33:11Z</time>
      </trkpt>
      <trkpt lat="48.53285" lon="2.04765">
        <ele>101</ele>
        <time>2020-02-12T11:33:14Z</time>
      </trkpt>
      <trkpt lat="48.53277" lon="2.04742">
        <ele>101</ele>
        <time>2020-02-12T11:33:17Z</time>
      </trkpt>
      <trkpt lat="48.5327" lon="2.04702">
        <ele>101</ele>
        <time>2020-02-12T11:33:22Z</time>
      </trkpt>
      <trkpt lat="48.53266" lon="2.04638">
        <ele>103</ele>
        <time>2020-02-12T11:33:30Z</time>
      </trkpt>
      <trkpt lat="48.53259" lon="2.04582">
        <ele>103</ele>
        <time>2020-02-12T11:33:36Z</time>
      </trkpt>
      <trkpt lat="48.53243" lon="2.04559">
        <ele>101</ele>
        <time>2020-02-12T11:33:40Z</time>
      </trkpt>
      <trkpt lat="48.53201" lon="2.04567">
        <ele>96</ele>
        <time>2020-02-12T11:33:48Z</time>
      </trkpt>
      <trkpt lat="48.53179" lon="2.04575">
        <ele>93</ele>
        <time>2020-02-12T11:33:52Z</time>
      </trkpt>
      <trkpt lat="48.53152" lon="2.04593">
        <ele>91</ele>
        <time>2020-02-12T11:33:57Z</time>
      </trkpt>
      <trkpt lat="48.53138" lon="2.04597">
        <ele>90</ele>
        <time>2020-02-12T11:34:00Z</time>
      </trkpt>
      <trkpt lat="48.53094" lon="2.04599">
        <ele>89</ele>
        <time>2020-02-12T11:34:07Z</time>
      </trkpt>
      <trkpt lat="48.53064" lon="2.04593">
        <ele>89</ele>
        <time>2020-02-12T11:34:13Z</time>
      </trkpt>
      <trkpt lat="48.53051" lon="2.04594">
        <ele>90</ele>
        <time>2020-02-12T11:34:15Z</time>
      </trkpt>
      <trkpt lat="48.5291" lon="2.0466">
        <ele>92</ele>
        <time>2020-02-12T11:34:41Z</time>
      </trkpt>
      <trkpt lat="48.52868" lon="2.04675">
        <ele>98</ele>
        <time>2020-02-12T11:34:49Z</time>
      </trkpt>
      <trkpt lat="48.52847" lon="2.04678">
        <ele>101</ele>
        <time>2020-02-12T11:34:53Z</time>
      </trkpt>
      <trkpt lat="48.52801" lon="2.04675">
        <ele>103</ele>
        <time>2020-02-12T11:35:01Z</time>
      </trkpt>
      <trkpt lat="48.52784" lon="2.04679">
        <ele>103</ele>
        <time>2020-02-12T11:35:04Z</time>
      </trkpt>
      <trkpt lat="48.5276" lon="2.04694">
        <ele>104</ele>
        <time>2020-02-12T11:35:09Z</time>
      </trkpt>
      <trkpt lat="48.5266" lon="2.04778">
        <ele>109</ele>
        <time>2020-02-12T11:35:29Z</time>
      </trkpt>
      <trkpt lat="48.52614" lon="2.04813">
        <ele>110</ele>
        <time>2020-02-12T11:35:38Z</time>
      </trkpt>
      <trkpt lat="48.52399" lon="2.0496">
        <ele>113</ele>
        <time>2020-02-12T11:36:20Z</time>
      </trkpt>
      <trkpt lat="48.52352" lon="2.04987">
        <ele>114</ele>
        <time>2020-02-12T11:36:29Z</time>
      </trkpt>
      <trkpt lat="48.52328" lon="2.04995">
        <ele>114</ele>
        <time>2020-02-12T11:36:33Z</time>
      </trkpt>
      <trkpt lat="48.523" lon="2.04995">
        <ele>115</ele>
        <time>2020-02-12T11:36:38Z</time>
      </trkpt>
      <trkpt lat="48.52263" lon="2.0498">
        <ele>116</ele>
        <time>2020-02-12T11:36:45Z</time>
      </trkpt>
      <trkpt lat="48.52241" lon="2.04965">
        <ele>116</ele>
        <time>2020-02-12T11:36:50Z</time>
      </trkpt>
      <trkpt lat="48.5205" lon="2.04814">
        <ele>122</ele>
        <time>2020-02-12T11:37:28Z</time>
      </trkpt>
      <trkpt lat="48.5202" lon="2.04794">
        <ele>123</ele>
        <time>2020-02-12T11:37:34Z</time>
      </trkpt>
      <trkpt lat="48.52002" lon="2.0479">
        <ele>123</ele>
        <time>2020-02-12T11:37:37Z</time>
      </trkpt>
      <trkpt lat="48.51986" lon="2.04795">
        <ele>125</ele>
        <time>2020-02-12T11:37:40Z</time>
      </trkpt>
      <trkpt lat="48.51971" lon="2.04806">
        <ele>127</ele>
        <time>2020-02-12T11:37:43Z</time>
      </trkpt>
      <trkpt lat="48.51961" lon="2.0482">
        <ele>128</ele>
        <time>2020-02-12T11:37:45Z</time>
      </trkpt>
      <trkpt lat="48.51952" lon="2.04842">
        <ele>129</ele>
        <time>2020-02-12T11:37:48Z</time>
      </trkpt>
      <trkpt lat="48.51947" lon="2.04871">
        <ele>131</ele>
        <time>2020-02-12T11:37:52Z</time>
      </trkpt>
      <trkpt lat="48.51948" lon="2.04892">
        <ele>131</ele>
        <time>2020-02-12T11:37:54Z</time>
      </trkpt>
      <trkpt lat="48.51958" lon="2.04953">
        <ele>131</ele>
        <time>2020-02-12T11:38:02Z</time>
      </trkpt>
      <trkpt lat="48.51955" lon="2.0499">
        <ele>132</ele>
        <time>2020-02-12T11:38:06Z</time>
      </trkpt>
      <trkpt lat="48.51951" lon="2.05004">
        <ele>133</ele>
        <time>2020-02-12T11:38:08Z</time>
      </trkpt>
      <trkpt lat="48.51942" lon="2.05022">
        <ele>133</ele>
        <time>2020-02-12T11:38:11Z</time>
      </trkpt>
      <trkpt lat="48.51907" lon="2.0506">
        <ele>136</ele>
        <time>2020-02-12T11:38:18Z</time>
      </trkpt>
      <trkpt lat="48.51898" lon="2.05078">
        <ele>136</ele>
        <time>2020-02-12T11:38:21Z</time>
      </trkpt>
      <trkpt lat="48.51893" lon="2.05099">
        <ele>136</ele>
        <time>2020-02-12T11:38:24Z</time>
      </trkpt>
      <trkpt lat="48.51892" lon="2.05126">
        <ele>136</ele>
        <time>2020-02-12T11:38:27Z</time>
      </trkpt>
      <trkpt lat="48.51903" lon="2.05225">
        <ele>138</ele>
        <time>2020-02-12T11:38:39Z</time>
      </trkpt>
      <trkpt lat="48.51911" lon="2.05439">
        <ele>147</ele>
        <time>2020-02-12T11:39:04Z</time>
      </trkpt>
      <trkpt lat="48.51911" lon="2.05483">
        <ele>149</ele>
        <time>2020-02-12T11:39:09Z</time>
      </trkpt>
      <trkpt lat="48.51905" lon="2.05514">
        <ele>151</ele>
        <time>2020-02-12T11:39:13Z</time>
      </trkpt>
      <trkpt lat="48.51893" lon="2.05537">
        <ele>152</ele>
        <time>2020-02-12T11:39:16Z</time>
      </trkpt>
      <trkpt lat="48.51874" lon="2.05555">
        <ele>153</ele>
        <time>2020-02-12T11:39:20Z</time>
      </trkpt>
      <trkpt lat="48.51768" lon="2.05626">
        <ele>156</ele>
        <time>2020-02-12T11:39:41Z</time>
      </trkpt>
      <trkpt lat="48.51752" lon="2.05635">
        <ele>156</ele>
        <time>2020-02-12T11:39:44Z</time>
      </trkpt>
      <trkpt lat="48.51694" lon="2.05658">
        <ele>156</ele>
        <time>2020-02-12T11:39:55Z</time>
      </trkpt>
      <trkpt lat="48.51606" lon="2.05716">
        <ele>154</ele>
        <time>2020-02-12T11:40:12Z</time>
      </trkpt>
      <trkpt lat="48.516" lon="2.05737">
        <ele>154</ele>
        <time>2020-02-12T11:40:14Z</time>
      </trkpt>
      <trkpt lat="48.516" lon="2.05759">
        <ele>153</ele>
        <time>2020-02-12T11:40:17Z</time>
      </trkpt>
      <trkpt lat="48.51609" lon="2.05796">
        <ele>153</ele>
        <time>2020-02-12T11:40:22Z</time>
      </trkpt>
      <trkpt lat="48.51718" lon="2.06031">
        <ele>151</ele>
        <time>2020-02-12T11:40:55Z</time>
      </trkpt>
      <trkpt lat="48.51728" lon="2.0606">
        <ele>151</ele>
        <time>2020-02-12T11:40:59Z</time>
      </trkpt>
      <trkpt lat="48.51734" lon="2.06098">
        <ele>151</ele>
        <time>2020-02-12T11:41:04Z</time>
      </trkpt>
      <trkpt lat="48.51733" lon="2.06135">
        <ele>152</ele>
        <time>2020-02-12T11:41:08Z</time>
      </trkpt>
      <trkpt lat="48.51685" lon="2.06697">
        <ele>148</ele>
        <time>2020-02-12T11:42:15Z</time>
      </trkpt>
      <trkpt lat="48.51681" lon="2.06776">
        <ele>148</ele>
        <time>2020-02-12T11:42:24Z</time>
      </trkpt>
      <trkpt lat="48.51681" lon="2.06976">
        <ele>146</ele>
        <time>2020-02-12T11:42:48Z</time>
      </trkpt>
      <trkpt lat="48.51684" lon="2.07032">
        <ele>146</ele>
        <time>2020-02-12T11:42:55Z</time>
      </trkpt>
      <trkpt lat="48.51739" lon="2.07519">
        <ele>150</ele>
        <time>2020-02-12T11:43:53Z</time>
      </trkpt>
      <trkpt lat="48.51739" lon="2.07567">
        <ele>150</ele>
        <time>2020-02-12T11:43:58Z</time>
      </trkpt>
      <trkpt lat="48.51719" lon="2.07887">
        <ele>151</ele>
        <time>2020-02-12T11:44:36Z</time>
      </trkpt>
      <trkpt lat="48.51708" lon="2.07985">
        <ele>151</ele>
        <time>2020-02-12T11:44:48Z</time>
      </trkpt>
      <trkpt lat="48.51662" lon="2.08309">
        <ele>152</ele>
        <time>2020-02-12T11:45:27Z</time>
      </trkpt>
      <trkpt lat="48.51569" lon="2.08746">
        <ele>152</ele>
        <time>2020-02-12T11:46:21Z</time>
      </trkpt>
      <trkpt lat="48.51501" lon="2.09149">
        <ele>150</ele>
        <time>2020-02-12T11:47:10Z</time>
      </trkpt>
      <trkpt lat="48.51487" lon="2.09246">
        <ele>150</ele>
        <time>2020-02-12T11:47:22Z</time>
      </trkpt>
      <trkpt lat="48.51478" lon="2.0944">
        <ele>149</ele>
        <time>2020-02-12T11:47:45Z</time>
      </trkpt>
      <trkpt lat="48.5148" lon="2.09487">
        <ele>149</ele>
        <time>2020-02-12T11:47:50Z</time>
      </trkpt>
      <trkpt lat="48.51487" lon="2.09523">
        <ele>148</ele>
        <time>2020-02-12T11:47:55Z</time>
      </trkpt>
      <trkpt lat="48.51495" lon="2.09548">
        <ele>148</ele>
        <time>2020-02-12T11:47:58Z</time>
      </trkpt>
      <trkpt lat="48.51546" lon="2.09663">
        <ele>148</ele>
        <time>2020-02-12T11:48:14Z</time>
      </trkpt>
      <trkpt lat="48.51553" lon="2.0969">
        <ele>148</ele>
        <time>2020-02-12T11:48:18Z</time>
      </trkpt>
      <trkpt lat="48.51557" lon="2.09725">
        <ele>148</ele>
        <time>2020-02-12T11:48:22Z</time>
      </trkpt>
      <trkpt lat="48.51552" lon="2.09795">
        <ele>148</ele>
        <time>2020-02-12T11:48:30Z</time>
      </trkpt>
      <trkpt lat="48.51545" lon="2.09828">
        <ele>148</ele>
        <time>2020-02-12T11:48:34Z</time>
      </trkpt>
      <trkpt lat="48.5151" lon="2.09951">
        <ele>152</ele>
        <time>2020-02-12T11:48:50Z</time>
      </trkpt>
      <trkpt lat="48.51503" lon="2.1">
        <ele>153</ele>
        <time>2020-02-12T11:48:56Z</time>
      </trkpt>
      <trkpt lat="48.51503" lon="2.10042">
        <ele>153</ele>
        <time>2020-02-12T11:49:01Z</time>
      </trkpt>
      <trkpt lat="48.5151" lon="2.10133">
        <ele>152</ele>
        <time>2020-02-12T11:49:12Z</time>
      </trkpt>
      <trkpt lat="48.51507" lon="2.10183">
        <ele>152</ele>
        <time>2020-02-12T11:49:18Z</time>
      </trkpt>
      <trkpt lat="48.51498" lon="2.10246">
        <ele>151</ele>
        <time>2020-02-12T11:49:25Z</time>
      </trkpt>
      <trkpt lat="48.51487" lon="2.10295">
        <ele>150</ele>
        <time>2020-02-12T11:49:31Z</time>
      </trkpt>
      <trkpt lat="48.51437" lon="2.10462">
        <ele>150</ele>
        <time>2020-02-12T11:49:53Z</time>
      </trkpt>
      <trkpt lat="48.51421" lon="2.10509">
        <ele>151</ele>
        <time>2020-02-12T11:49:59Z</time>
      </trkpt>
      <trkpt lat="48.51412" lon="2.10528">
        <ele>152</ele>
        <time>2020-02-12T11:50:02Z</time>
      </trkpt>
      <trkpt lat="48.51387" lon="2.10569">
        <ele>151</ele>
        <time>2020-02-12T11:50:09Z</time>
      </trkpt>
      <trkpt lat="48.51351" lon="2.10617">
        <ele>149</ele>
        <time>2020-02-12T11:50:17Z</time>
      </trkpt>
      <trkpt lat="48.51299" lon="2.10678">
        <ele>148</ele>
        <time>2020-02-12T11:50:29Z</time>
      </trkpt>
      <trkpt lat="48.51262" lon="2.10715">
        <ele>146</ele>
        <time>2020-02-12T11:50:37Z</time>
      </trkpt>
      <trkpt lat="48.51223" lon="2.10766">
        <ele>144</ele>
        <time>2020-02-12T11:50:46Z</time>
      </trkpt>
      <trkpt lat="48.51202" lon="2.10809">
        <ele>142</ele>
        <time>2020-02-12T11:50:52Z</time>
      </trkpt>
      <trkpt lat="48.51191" lon="2.10854">
        <ele>142</ele>
        <time>2020-02-12T11:50:58Z</time>
      </trkpt>
      <trkpt lat="48.51188" lon="2.10885">
        <ele>141</ele>
        <time>2020-02-12T11:51:02Z</time>
      </trkpt>
      <trkpt lat="48.51187" lon="2.10925">
        <ele>140</ele>
        <time>2020-02-12T11:51:06Z</time>
      </trkpt>
      <trkpt lat="48.5119" lon="2.1096">
        <ele>138</ele>
        <time>2020-02-12T11:51:10Z</time>
      </trkpt>
      <trkpt lat="48.51212" lon="2.11053">
        <ele>134</ele>
        <time>2020-02-12T11:51:22Z</time>
      </trkpt>
      <trkpt lat="48.51219" lon="2.11096">
        <ele>133</ele>
        <time>2020-02-12T11:51:27Z</time>
      </trkpt>
      <trkpt lat="48.51218" lon="2.11141">
        <ele>131</ele>
        <time>2020-02-12T11:51:33Z</time>
      </trkpt>
      <trkpt lat="48.51207" lon="2.11262">
        <ele>128</ele>
        <time>2020-02-12T11:51:47Z</time>
      </trkpt>
      <trkpt lat="48.51213" lon="2.11338">
        <ele>126</ele>
        <time>2020-02-12T11:51:56Z</time>
      </trkpt>
      <trkpt lat="48.51217" lon="2.11361">
        <ele>125</ele>
        <time>2020-02-12T11:51:59Z</time>
      </trkpt>
      <trkpt lat="48.51229" lon="2.11404">
        <ele>124</ele>
        <time>2020-02-12T11:52:04Z</time>
      </trkpt>
      <trkpt lat="48.51285" lon="2.11543">
        <ele>121</ele>
        <time>2020-02-12T11:52:24Z</time>
      </trkpt>
      <trkpt lat="48.51299" lon="2.11589">
        <ele>119</ele>
        <time>2020-02-12T11:52:29Z</time>
      </trkpt>
      <trkpt lat="48.51313" lon="2.11651">
        <ele>115</ele>
        <time>2020-02-12T11:52:37Z</time>
      </trkpt>
      <trkpt lat="48.51318" lon="2.11707">
        <ele>112</ele>
        <time>2020-02-12T11:52:44Z</time>
      </trkpt>
      <trkpt lat="48.51313" lon="2.1176">
        <ele>108</ele>
        <time>2020-02-12T11:52:50Z</time>
      </trkpt>
      <trkpt lat="48.51301" lon="2.11823">
        <ele>104</ele>
        <time>2020-02-12T11:52:58Z</time>
      </trkpt>
      <trkpt lat="48.513" lon="2.11862">
        <ele>102</ele>
        <time>2020-02-12T11:53:03Z</time>
      </trkpt>
      <trkpt lat="48.51302" lon="2.11889">
        <ele>101</ele>
        <time>2020-02-12T11:53:06Z</time>
      </trkpt>
      <trkpt lat="48.5137" lon="2.1218">
        <ele>94</ele>
        <time>2020-02-12T11:53:42Z</time>
      </trkpt>
      <trkpt lat="48.5139" lon="2.12231">
        <ele>94</ele>
        <time>2020-02-12T11:53:49Z</time>
      </trkpt>
      <trkpt lat="48.5143" lon="2.12311">
        <ele>90</ele>
        <time>2020-02-12T11:54:01Z</time>
      </trkpt>
      <trkpt lat="48.51432" lon="2.12335">
        <ele>89</ele>
        <time>2020-02-12T11:54:04Z</time>
      </trkpt>
      <trkpt lat="48.51428" lon="2.12393">
        <ele>90</ele>
        <time>2020-02-12T11:54:11Z</time>
      </trkpt>
      <trkpt lat="48.51421" lon="2.1245">
        <ele>90</ele>
        <time>2020-02-12T11:54:17Z</time>
      </trkpt>
      <trkpt lat="48.51406" lon="2.12485">
        <ele>90</ele>
        <time>2020-02-12T11:54:22Z</time>
      </trkpt>
      <trkpt lat="48.51367" lon="2.12542">
        <ele>91</ele>
        <time>2020-02-12T11:54:32Z</time>
      </trkpt>
      <trkpt lat="48.51358" lon="2.12565">
        <ele>92</ele>
        <time>2020-02-12T11:54:35Z</time>
      </trkpt>
      <trkpt lat="48.51352" lon="2.12565">
        <ele>92</ele>
        <time>2020-02-12T11:54:36Z</time>
      </trkpt>
      <trkpt lat="48.51341" lon="2.1257">
        <ele>92</ele>
        <time>2020-02-12T11:54:38Z</time>
      </trkpt>
      <trkpt lat="48.51296" lon="2.12605">
        <ele>92</ele>
        <time>2020-02-12T11:54:47Z</time>
      </trkpt>
      <trkpt lat="48.51199" lon="2.12675">
        <ele>91</ele>
        <time>2020-02-12T11:55:06Z</time>
      </trkpt>
      <trkpt lat="48.51185" lon="2.12683">
        <ele>90</ele>
        <time>2020-02-12T11:55:09Z</time>
      </trkpt>
      <trkpt lat="48.5116" lon="2.12692">
        <ele>89</ele>
        <time>2020-02-12T11:55:14Z</time>
      </trkpt>
      <trkpt lat="48.51057" lon="2.12696">
        <ele>88</ele>
        <time>2020-02-12T11:55:32Z</time>
      </trkpt>
      <trkpt lat="48.50961" lon="2.12716">
        <ele>91</ele>
        <time>2020-02-12T11:55:49Z</time>
      </trkpt>
      <trkpt lat="48.50835" lon="2.1273">
        <ele>94</ele>
        <time>2020-02-12T11:56:12Z</time>
      </trkpt>
      <trkpt lat="48.50796" lon="2.12724">
        <ele>95</ele>
        <time>2020-02-12T11:56:19Z</time>
      </trkpt>
      <trkpt lat="48.50661" lon="2.12673">
        <ele>98</ele>
        <time>2020-02-12T11:56:43Z</time>
      </trkpt>
      <trkpt lat="48.50583" lon="2.12648">
        <ele>99</ele>
        <time>2020-02-12T11:56:58Z</time>
      </trkpt>
      <trkpt lat="48.50541" lon="2.12622">
        <ele>97</ele>
        <time>2020-02-12T11:57:06Z</time>
      </trkpt>
      <trkpt lat="48.50456" lon="2.1255">
        <ele>96</ele>
        <time>2020-02-12T11:57:23Z</time>
      </trkpt>
      <trkpt lat="48.50441" lon="2.12542">
        <ele>96</ele>
        <time>2020-02-12T11:57:26Z</time>
      </trkpt>
      <trkpt lat="48.50377" lon="2.12517">
        <ele>97</ele>
        <time>2020-02-12T11:57:38Z</time>
      </trkpt>
      <trkpt lat="48.50364" lon="2.12514">
        <ele>97</ele>
        <time>2020-02-12T11:57:40Z</time>
      </trkpt>
      <trkpt lat="48.50323" lon="2.12514">
        <ele>98</ele>
        <time>2020-02-12T11:57:47Z</time>
      </trkpt>
      <trkpt lat="48.50247" lon="2.12524">
        <ele>100</ele>
        <time>2020-02-12T11:58:01Z</time>
      </trkpt>
      <trkpt lat="48.50145" lon="2.12544">
        <ele>102</ele>
        <time>2020-02-12T11:58:19Z</time>
      </trkpt>
      <trkpt lat="48.50089" lon="2.12563">
        <ele>105</ele>
        <time>2020-02-12T11:58:29Z</time>
      </trkpt>
      <trkpt lat="48.5006" lon="2.12576">
        <ele>106</ele>
        <time>2020-02-12T11:58:35Z</time>
      </trkpt>
      <trkpt lat="48.50034" lon="2.12591">
        <ele>108</ele>
        <time>2020-02-12T11:58:40Z</time>
      </trkpt>
      <trkpt lat="48.50007" lon="2.12612">
        <ele>110</ele>
        <time>2020-02-12T11:58:45Z</time>
      </trkpt>
      <trkpt lat="48.49904" lon="2.12709">
        <ele>122</ele>
        <time>2020-02-12T11:59:07Z</time>
      </trkpt>
      <trkpt lat="48.49852" lon="2.12772">
        <ele>134</ele>
        <time>2020-02-12T11:59:19Z</time>
      </trkpt>
      <trkpt lat="48.49834" lon="2.12799">
        <ele>136</ele>
        <time>2020-02-12T11:59:23Z</time>
      </trkpt>
      <trkpt lat="48.49819" lon="2.12833">
        <ele>139</ele>
        <time>2020-02-12T11:59:28Z</time>
      </trkpt>
      <trkpt lat="48.498" lon="2.12892">
        <ele>143</ele>
        <time>2020-02-12T11:59:36Z</time>
      </trkpt>
      <trkpt lat="48.49789" lon="2.1296">
        <ele>147</ele>
        <time>2020-02-12T11:59:44Z</time>
      </trkpt>
      <trkpt lat="48.49779" lon="2.13117">
        <ele>148</ele>
        <time>2020-02-12T12:00:02Z</time>
      </trkpt>
      <trkpt lat="48.49767" lon="2.13171">
        <ele>147</ele>
        <time>2020-02-12T12:00:09Z</time>
      </trkpt>
      <trkpt lat="48.49761" lon="2.1319">
        <ele>147</ele>
        <time>2020-02-12T12:00:12Z</time>
      </trkpt>
      <trkpt lat="48.49753" lon="2.13204">
        <ele>147</ele>
        <time>2020-02-12T12:00:14Z</time>
      </trkpt>
      <trkpt lat="48.49758" lon="2.13213">
        <ele>147</ele>
        <time>2020-02-12T12:00:15Z</time>
      </trkpt>
      <trkpt lat="48.49823" lon="2.13254">
        <ele>146</ele>
        <time>2020-02-12T12:00:28Z</time>
      </trkpt>
      <trkpt lat="48.4984" lon="2.13257">
        <ele>146</ele>
        <time>2020-02-12T12:00:31Z</time>
      </trkpt>
      <trkpt lat="48.49854" lon="2.13255">
        <ele>146</ele>
        <time>2020-02-12T12:00:33Z</time>
      </trkpt>
      <trkpt lat="48.49869" lon="2.13261">
        <ele>147</ele>
        <time>2020-02-12T12:00:36Z</time>
      </trkpt>
      <trkpt lat="48.49894" lon="2.13277">
        <ele>147</ele>
        <time>2020-02-12T12:00:41Z</time>
      </trkpt>
      <trkpt lat="48.49938" lon="2.13316">
        <ele>147</ele>
        <time>2020-02-12T12:00:50Z</time>
      </trkpt>
      <trkpt lat="48.49961" lon="2.13341">
        <ele>148</ele>
        <time>2020-02-12T12:00:55Z</time>
      </trkpt>
      <trkpt lat="48.49982" lon="2.13375">
        <ele>148</ele>
        <time>2020-02-12T12:01:01Z</time>
      </trkpt>
      <trkpt lat="48.49995" lon="2.13409">
        <ele>149</ele>
        <time>2020-02-12T12:01:05Z</time>
      </trkpt>
      <trkpt lat="48.49963" lon="2.14105">
        <ele>152</ele>
        <time>2020-02-12T12:02:27Z</time>
      </trkpt>
      <trkpt lat="48.49955" lon="2.142">
        <ele>152</ele>
        <time>2020-02-12T12:02:39Z</time>
      </trkpt>
      <trkpt lat="48.49937" lon="2.14358">
        <ele>152</ele>
        <time>2020-02-12T12:02:58Z</time>
      </trkpt>
      <trkpt lat="48.49926" lon="2.1441">
        <ele>152</ele>
        <time>2020-02-12T12:03:04Z</time>
      </trkpt>
      <trkpt lat="48.49911" lon="2.14449">
        <ele>152</ele>
        <time>2020-02-12T12:03:09Z</time>
      </trkpt>
      <trkpt lat="48.49853" lon="2.14565">
        <ele>153</ele>
        <time>2020-02-12T12:03:26Z</time>
      </trkpt>
      <trkpt lat="48.49827" lon="2.14647">
        <ele>154</ele>
        <time>2020-02-12T12:03:37Z</time>
      </trkpt>
      <trkpt lat="48.49814" lon="2.14708">
        <ele>154</ele>
        <time>2020-02-12T12:03:45Z</time>
      </trkpt>
      <trkpt lat="48.49793" lon="2.14856">
        <ele>155</ele>
        <time>2020-02-12T12:04:03Z</time>
      </trkpt>
      <trkpt lat="48.49742" lon="2.15273">
        <ele>152</ele>
        <time>2020-02-12T12:04:53Z</time>
      </trkpt>
      <trkpt lat="48.49726" lon="2.15333">
        <ele>152</ele>
        <time>2020-02-12T12:05:00Z</time>
      </trkpt>
      <trkpt lat="48.49697" lon="2.15373">
        <ele>152</ele>
        <time>2020-02-12T12:05:07Z</time>
      </trkpt>
      <trkpt lat="48.49516" lon="2.15569">
        <ele>149</ele>
        <time>2020-02-12T12:05:47Z</time>
      </trkpt>
      <trkpt lat="48.49473" lon="2.1562">
        <ele>148</ele>
        <time>2020-02-12T12:05:57Z</time>
      </trkpt>
      <trkpt lat="48.49455" lon="2.15647">
        <ele>148</ele>
        <time>2020-02-12T12:06:01Z</time>
      </trkpt>
      <trkpt lat="48.49444" lon="2.15668">
        <ele>147</ele>
        <time>2020-02-12T12:06:04Z</time>
      </trkpt>
      <trkpt lat="48.49425" lon="2.15721">
        <ele>147</ele>
        <time>2020-02-12T12:06:11Z</time>
      </trkpt>
      <trkpt lat="48.49288" lon="2.16057">
        <ele>142</ele>
        <time>2020-02-12T12:06:58Z</time>
      </trkpt>
      <trkpt lat="48.49255" lon="2.16105">
        <ele>142</ele>
        <time>2020-02-12T12:07:06Z</time>
      </trkpt>
      <trkpt lat="48.49231" lon="2.16145">
        <ele>143</ele>
        <time>2020-02-12T12:07:12Z</time>
      </trkpt>
      <trkpt lat="48.49201" lon="2.16305">
        <ele>143</ele>
        <time>2020-02-12T12:07:32Z</time>
      </trkpt>
      <trkpt lat="48.49201" lon="2.16332">
        <ele>142</ele>
        <time>2020-02-12T12:07:35Z</time>
      </trkpt>
      <trkpt lat="48.49232" lon="2.16637">
        <ele>135</ele>
        <time>2020-02-12T12:08:12Z</time>
      </trkpt>
      <trkpt lat="48.49241" lon="2.1669">
        <ele>134</ele>
        <time>2020-02-12T12:08:18Z</time>
      </trkpt>
      <trkpt lat="48.49249" lon="2.16717">
        <ele>134</ele>
        <time>2020-02-12T12:08:22Z</time>
      </trkpt>
      <trkpt lat="48.49265" lon="2.16757">
        <ele>133</ele>
        <time>2020-02-12T12:08:27Z</time>
      </trkpt>
      <trkpt lat="48.49266" lon="2.16765">
        <ele>133</ele>
        <time>2020-02-12T12:08:28Z</time>
      </trkpt>
      <trkpt lat="48.49266" lon="2.16793">
        <ele>134</ele>
        <time>2020-02-12T12:08:31Z</time>
      </trkpt>
      <trkpt lat="48.49261" lon="2.16841">
        <ele>135</ele>
        <time>2020-02-12T12:08:37Z</time>
      </trkpt>
      <trkpt lat="48.49261" lon="2.16876">
        <ele>135</ele>
        <time>2020-02-12T12:08:41Z</time>
      </trkpt>
      <trkpt lat="48.49278" lon="2.16971">
        <ele>132</ele>
        <time>2020-02-12T12:08:53Z</time>
      </trkpt>
      <trkpt lat="48.49321" lon="2.17329">
        <ele>110</ele>
        <time>2020-02-12T12:09:36Z</time>
      </trkpt>
      <trkpt lat="48.49321" lon="2.17366">
        <ele>107</ele>
        <time>2020-02-12T12:09:40Z</time>
      </trkpt>
      <trkpt lat="48.49304" lon="2.17668">
        <ele>91</ele>
        <time>2020-02-12T12:10:16Z</time>
      </trkpt>
      <trkpt lat="48.49298" lon="2.17744">
        <ele>88</ele>
        <time>2020-02-12T12:10:25Z</time>
      </trkpt>
      <trkpt lat="48.49271" lon="2.17972">
        <ele>83</ele>
        <time>2020-02-12T12:10:52Z</time>
      </trkpt>
      <trkpt lat="48.49208" lon="2.17981">
        <ele>82</ele>
        <time>2020-02-12T12:11:03Z</time>
      </trkpt>
      <trkpt lat="48.49193" lon="2.17976">
        <ele>82</ele>
        <time>2020-02-12T12:11:06Z</time>
      </trkpt>
      <trkpt lat="48.49042" lon="2.17876">
        <ele>83</ele>
        <time>2020-02-12T12:11:35Z</time>
      </trkpt>
      <trkpt lat="48.48913" lon="2.18266">
        <ele>80</ele>
        <time>2020-02-12T12:12:27Z</time>
      </trkpt>
      <trkpt lat="48.489" lon="2.18335">
        <ele>80</ele>
        <time>2020-02-12T12:12:35Z</time>
      </trkpt>
      <trkpt lat="48.48863" lon="2.18454">
        <ele>77</ele>
        <time>2020-02-12T12:12:51Z</time>
      </trkpt>
      <trkpt lat="48.48825" lon="2.18533">
        <ele>75</ele>
        <time>2020-02-12T12:13:02Z</time>
      </trkpt>
      <trkpt lat="48.48801" lon="2.18608">
        <ele>73</ele>
        <time>2020-02-12T12:13:12Z</time>
      </trkpt>
      <trkpt lat="48.48798" lon="2.1869">
        <ele>72</ele>
        <time>2020-02-12T12:13:22Z</time>
      </trkpt>
      <trkpt lat="48.48806" lon="2.18756">
        <ele>71</ele>
        <time>2020-02-12T12:13:30Z</time>
      </trkpt>
      <trkpt lat="48.48808" lon="2.18863">
        <ele>69</ele>
        <time>2020-02-12T12:13:42Z</time>
      </trkpt>
      <trkpt lat="48.48813" lon="2.18884">
        <ele>69</ele>
        <time>2020-02-12T12:13:45Z</time>
      </trkpt>
      <trkpt lat="48.48807" lon="2.18889">
        <ele>69</ele>
        <time>2020-02-12T12:13:46Z</time>
      </trkpt>
      <trkpt lat="48.48807" lon="2.18901">
        <ele>69</ele>
        <time>2020-02-12T12:13:48Z</time>
      </trkpt>
      <trkpt lat="48.48788" lon="2.1892">
        <ele>69</ele>
        <time>2020-02-12T12:13:52Z</time>
      </trkpt>
      <trkpt lat="48.48773" lon="2.18931">
        <ele>69</ele>
        <time>2020-02-12T12:13:55Z</time>
      </trkpt>
      <trkpt lat="48.48675" lon="2.18991">
        <ele>71</ele>
        <time>2020-02-12T12:14:13Z</time>
      </trkpt>
      <trkpt lat="48.4864" lon="2.19017">
        <ele>71</ele>
        <time>2020-02-12T12:14:20Z</time>
      </trkpt>
      <trkpt lat="48.48596" lon="2.19065">
        <ele>71</ele>
        <time>2020-02-12T12:14:30Z</time>
      </trkpt>
      <trkpt lat="48.48554" lon="2.19117">
        <ele>71</ele>
        <time>2020-02-12T12:14:40Z</time>
      </trkpt>
      <trkpt lat="48.48519" lon="2.19165">
        <ele>70</ele>
        <time>2020-02-12T12:14:48Z</time>
      </trkpt>
      <trkpt lat="48.48509" lon="2.19161">
        <ele>70</ele>
        <time>2020-02-12T12:14:50Z</time>
      </trkpt>
      <trkpt lat="48.48504" lon="2.19163">
        <ele>70</ele>
        <time>2020-02-12T12:14:51Z</time>
      </trkpt>
      <trkpt lat="48.485" lon="2.19166">
        <ele>70</ele>
        <time>2020-02-12T12:14:52Z</time>
      </trkpt>
      <trkpt lat="48.48495" lon="2.19178">
        <ele>70</ele>
        <time>2020-02-12T12:14:53Z</time>
      </trkpt>
      <trkpt lat="48.48494" lon="2.19188">
        <ele>69</ele>
        <time>2020-02-12T12:14:55Z</time>
      </trkpt>
      <trkpt lat="48.48498" lon="2.19202">
        <ele>69</ele>
        <time>2020-02-12T12:14:56Z</time>
      </trkpt>
      <trkpt lat="48.48503" lon="2.19207">
        <ele>69</ele>
        <time>2020-02-12T12:14:57Z</time>
      </trkpt>
      <trkpt lat="48.48513" lon="2.19209">
        <ele>69</ele>
        <time>2020-02-12T12:14:59Z</time>
      </trkpt>
      <trkpt lat="48.48521" lon="2.19253">
        <ele>68</ele>
        <time>2020-02-12T12:15:05Z</time>
      </trkpt>
      <trkpt lat="48.48522" lon="2.19279">
        <ele>68</ele>
        <time>2020-02-12T12:15:08Z</time>
      </trkpt>
      <trkpt lat="48.4849" lon="2.1948">
        <ele>66</ele>
        <time>2020-02-12T12:15:32Z</time>
      </trkpt>
      <trkpt lat="48.48482" lon="2.19481">
        <ele>66</ele>
        <time>2020-02-12T12:15:33Z</time>
      </trkpt>
      <trkpt lat="48.48473" lon="2.19488">
        <ele>65</ele>
        <time>2020-02-12T12:15:35Z</time>
      </trkpt>
      <trkpt lat="48.48465" lon="2.19507">
        <ele>65</ele>
        <time>2020-02-12T12:15:38Z</time>
      </trkpt>
      <trkpt lat="48.48466" lon="2.19521">
        <ele>64</ele>
        <time>2020-02-12T12:15:40Z</time>
      </trkpt>
      <trkpt lat="48.48469" lon="2.1953">
        <ele>64</ele>
        <time>2020-02-12T12:15:41Z</time>
      </trkpt>
      <trkpt lat="48.48478" lon="2.19541">
        <ele>64</ele>
        <time>2020-02-12T12:15:43Z</time>
      </trkpt>
      <trkpt lat="48.48478" lon="2.19551">
        <ele>63</ele>
        <time>2020-02-12T12:15:44Z</time>
      </trkpt>
      <trkpt lat="48.48472" lon="2.19602">
        <ele>62</ele>
        <time>2020-02-12T12:15:50Z</time>
      </trkpt>
      <trkpt lat="48.4846" lon="2.19672">
        <ele>62</ele>
        <time>2020-02-12T12:15:59Z</time>
      </trkpt>
      <trkpt lat="48.48453" lon="2.19755">
        <ele>63</ele>
        <time>2020-02-12T12:16:09Z</time>
      </trkpt>
      <trkpt lat="48.48459" lon="2.19812">
        <ele>63</ele>
        <time>2020-02-12T12:16:15Z</time>
      </trkpt>
      <trkpt lat="48.48513" lon="2.20143">
        <ele>66</ele>
        <time>2020-02-12T12:16:56Z</time>
      </trkpt>
      <trkpt lat="48.48517" lon="2.20207">
        <ele>67</ele>
        <time>2020-02-12T12:17:03Z</time>
      </trkpt>
      <trkpt lat="48.48512" lon="2.20248">
        <ele>68</ele>
        <time>2020-02-12T12:17:08Z</time>
      </trkpt>
      <trkpt lat="48.48502" lon="2.20289">
        <ele>68</ele>
        <time>2020-02-12T12:17:13Z</time>
      </trkpt>
      <trkpt lat="48.48421" lon="2.20509">
        <ele>72</ele>
        <time>2020-02-12T12:17:43Z</time>
      </trkpt>
      <trkpt lat="48.48408" lon="2.20534">
        <ele>72</ele>
        <time>2020-02-12T12:17:47Z</time>
      </trkpt>
      <trkpt lat="48.48401" lon="2.20532">
        <ele>73</ele>
        <time>2020-02-12T12:17:48Z</time>
      </trkpt>
      <trkpt lat="48.48392" lon="2.20539">
        <ele>73</ele>
        <time>2020-02-12T12:17:50Z</time>
      </trkpt>
      <trkpt lat="48.48392" lon="2.20557">
        <ele>73</ele>
        <time>2020-02-12T12:17:52Z</time>
      </trkpt>
      <trkpt lat="48.48398" lon="2.20564">
        <ele>73</ele>
        <time>2020-02-12T12:17:53Z</time>
      </trkpt>
      <trkpt lat="48.48391" lon="2.20608">
        <ele>73</ele>
        <time>2020-02-12T12:17:58Z</time>
      </trkpt>
      <trkpt lat="48.48356" lon="2.20765">
        <ele>76</ele>
        <time>2020-02-12T12:18:18Z</time>
      </trkpt>
      <trkpt lat="48.48338" lon="2.20835">
        <ele>76</ele>
        <time>2020-02-12T12:18:27Z</time>
      </trkpt>
      <trkpt lat="48.48212" lon="2.21134">
        <ele>87</ele>
        <time>2020-02-12T12:19:09Z</time>
      </trkpt>
      <trkpt lat="48.48196" lon="2.2118">
        <ele>90</ele>
        <time>2020-02-12T12:19:15Z</time>
      </trkpt>
      <trkpt lat="48.48185" lon="2.21223">
        <ele>92</ele>
        <time>2020-02-12T12:19:20Z</time>
      </trkpt>
      <trkpt lat="48.48159" lon="2.21354">
        <ele>95</ele>
        <time>2020-02-12T12:19:36Z</time>
      </trkpt>
      <trkpt lat="48.48148" lon="2.21418">
        <ele>94</ele>
        <time>2020-02-12T12:19:44Z</time>
      </trkpt>
      <trkpt lat="48.48132" lon="2.21539">
        <ele>95</ele>
        <time>2020-02-12T12:19:59Z</time>
      </trkpt>
      <trkpt lat="48.48121" lon="2.21589">
        <ele>96</ele>
        <time>2020-02-12T12:20:05Z</time>
      </trkpt>
      <trkpt lat="48.48105" lon="2.21619">
        <ele>97</ele>
        <time>2020-02-12T12:20:09Z</time>
      </trkpt>
      <trkpt lat="48.48054" lon="2.21664">
        <ele>100</ele>
        <time>2020-02-12T12:20:20Z</time>
      </trkpt>
      <trkpt lat="48.48027" lon="2.21696">
        <ele>102</ele>
        <time>2020-02-12T12:20:26Z</time>
      </trkpt>
      <trkpt lat="48.47999" lon="2.21738">
        <ele>104</ele>
        <time>2020-02-12T12:20:33Z</time>
      </trkpt>
      <trkpt lat="48.47977" lon="2.21788">
        <ele>108</ele>
        <time>2020-02-12T12:20:40Z</time>
      </trkpt>
      <trkpt lat="48.47951" lon="2.21861">
        <ele>115</ele>
        <time>2020-02-12T12:20:50Z</time>
      </trkpt>
      <trkpt lat="48.47931" lon="2.21941">
        <ele>120</ele>
        <time>2020-02-12T12:21:00Z</time>
      </trkpt>
      <trkpt lat="48.47914" lon="2.21993">
        <ele>121</ele>
        <time>2020-02-12T12:21:07Z</time>
      </trkpt>
      <trkpt lat="48.47883" lon="2.22063">
        <ele>126</ele>
        <time>2020-02-12T12:21:17Z</time>
      </trkpt>
      <trkpt lat="48.47869" lon="2.22102">
        <ele>128</ele>
        <time>2020-02-12T12:21:22Z</time>
      </trkpt>
      <trkpt lat="48.47867" lon="2.22137">
        <ele>128</ele>
        <time>2020-02-12T12:21:26Z</time>
      </trkpt>
      <trkpt lat="48.47887" lon="2.22283">
        <ele>126</ele>
        <time>2020-02-12T12:21:44Z</time>
      </trkpt>
      <trkpt lat="48.47886" lon="2.22312">
        <ele>126</ele>
        <time>2020-02-12T12:21:47Z</time>
      </trkpt>
      <trkpt lat="48.47876" lon="2.22351">
        <ele>128</ele>
        <time>2020-02-12T12:21:52Z</time>
      </trkpt>
      <trkpt lat="48.47866" lon="2.2237">
        <ele>129</ele>
        <time>2020-02-12T12:21:55Z</time>
      </trkpt>
      <trkpt lat="48.4786" lon="2.22376">
        <ele>129</ele>
        <time>2020-02-12T12:21:56Z</time>
      </trkpt>
      <trkpt lat="48.47853" lon="2.22381">
        <ele>130</ele>
        <time>2020-02-12T12:21:58Z</time>
      </trkpt>
      <trkpt lat="48.47845" lon="2.22383">
        <ele>130</ele>
        <time>2020-02-12T12:21:59Z</time>
      </trkpt>
      <trkpt lat="48.47838" lon="2.22381">
        <ele>130</ele>
        <time>2020-02-12T12:22:00Z</time>
      </trkpt>
      <trkpt lat="48.47825" lon="2.22371">
        <ele>130</ele>
        <time>2020-02-12T12:22:03Z</time>
      </trkpt>
      <trkpt lat="48.47787" lon="2.22314">
        <ele>130</ele>
        <time>2020-02-12T12:22:12Z</time>
      </trkpt>
      <trkpt lat="48.4777" lon="2.22307">
        <ele>131</ele>
        <time>2020-02-12T12:22:16Z</time>
      </trkpt>
      <trkpt lat="48.47759" lon="2.2231">
        <ele>131</ele>
        <time>2020-02-12T12:22:18Z</time>
      </trkpt>
      <trkpt lat="48.47738" lon="2.22321">
        <ele>131</ele>
        <time>2020-02-12T12:22:22Z</time>
      </trkpt>
      <trkpt lat="48.47713" lon="2.22341">
        <ele>131</ele>
        <time>2020-02-12T12:22:27Z</time>
      </trkpt>
      <trkpt lat="48.4769" lon="2.22368">
        <ele>132</ele>
        <time>2020-02-12T12:22:32Z</time>
      </trkpt>
      <trkpt lat="48.47624" lon="2.22456">
        <ele>136</ele>
        <time>2020-02-12T12:22:47Z</time>
      </trkpt>
      <trkpt lat="48.47568" lon="2.22513">
        <ele>138</ele>
        <time>2020-02-12T12:22:59Z</time>
      </trkpt>
      <trkpt lat="48.47526" lon="2.22563">
        <ele>139</ele>
        <time>2020-02-12T12:23:09Z</time>
      </trkpt>
      <trkpt lat="48.47497" lon="2.2261">
        <ele>140</ele>
        <time>2020-02-12T12:23:17Z</time>
      </trkpt>
      <trkpt lat="48.47324" lon="2.22916">
        <ele>146</ele>
        <time>2020-02-12T12:24:04Z</time>
      </trkpt>
      <trkpt lat="48.47314" lon="2.22937">
        <ele>147</ele>
        <time>2020-02-12T12:24:07Z</time>
      </trkpt>
      <trkpt lat="48.47297" lon="2.22984">
        <ele>148</ele>
        <time>2020-02-12T12:24:13Z</time>
      </trkpt>
      <trkpt lat="48.47286" lon="2.23032">
        <ele>148</ele>
        <time>2020-02-12T12:24:19Z</time>
      </trkpt>
      <trkpt lat="48.47281" lon="2.23082">
        <ele>147</ele>
        <time>2020-02-12T12:24:25Z</time>
      </trkpt>
      <trkpt lat="48.47283" lon="2.23133">
        <ele>147</ele>
        <time>2020-02-12T12:24:31Z</time>
      </trkpt>
      <trkpt lat="48.47311" lon="2.23376">
        <ele>144</ele>
        <time>2020-02-12T12:25:00Z</time>
      </trkpt>
      <trkpt lat="48.4732" lon="2.23495">
        <ele>143</ele>
        <time>2020-02-12T12:25:15Z</time>
      </trkpt>
      <trkpt lat="48.47315" lon="2.23635">
        <ele>138</ele>
        <time>2020-02-12T12:25:31Z</time>
      </trkpt>
      <trkpt lat="48.47323" lon="2.23858">
        <ele>136</ele>
        <time>2020-02-12T12:25:57Z</time>
      </trkpt>
      <trkpt lat="48.47326" lon="2.23882">
        <ele>136</ele>
        <time>2020-02-12T12:26:00Z</time>
      </trkpt>
      <trkpt lat="48.4735" lon="2.2399">
        <ele>137</ele>
        <time>2020-02-12T12:26:14Z</time>
      </trkpt>
      <trkpt lat="48.47441" lon="2.24282">
        <ele>132</ele>
        <time>2020-02-12T12:26:52Z</time>
      </trkpt>
      <trkpt lat="48.47447" lon="2.24314">
        <ele>131</ele>
        <time>2020-02-12T12:26:56Z</time>
      </trkpt>
      <trkpt lat="48.4745" lon="2.24362">
        <ele>132</ele>
        <time>2020-02-12T12:27:01Z</time>
      </trkpt>
      <trkpt lat="48.47455" lon="2.24397">
        <ele>132</ele>
        <time>2020-02-12T12:27:06Z</time>
      </trkpt>
      <trkpt lat="48.47464" lon="2.2443">
        <ele>132</ele>
        <time>2020-02-12T12:27:10Z</time>
      </trkpt>
      <trkpt lat="48.47484" lon="2.24484">
        <ele>133</ele>
        <time>2020-02-12T12:27:17Z</time>
      </trkpt>
      <trkpt lat="48.47493" lon="2.24521">
        <ele>134</ele>
        <time>2020-02-12T12:27:22Z</time>
      </trkpt>
      <trkpt lat="48.47499" lon="2.24597">
        <ele>136</ele>
        <time>2020-02-12T12:27:31Z</time>
      </trkpt>
      <trkpt lat="48.47504" lon="2.24611">
        <ele>136</ele>
        <time>2020-02-12T12:27:33Z</time>
      </trkpt>
      <trkpt lat="48.47529" lon="2.24653">
        <ele>135</ele>
        <time>2020-02-12T12:27:39Z</time>
      </trkpt>
      <trkpt lat="48.4754" lon="2.24692">
        <ele>135</ele>
        <time>2020-02-12T12:27:44Z</time>
      </trkpt>
      <trkpt lat="48.47541" lon="2.2471">
        <ele>135</ele>
        <time>2020-02-12T12:27:47Z</time>
      </trkpt>
      <trkpt lat="48.47536" lon="2.24773">
        <ele>135</ele>
        <time>2020-02-12T12:27:54Z</time>
      </trkpt>
      <trkpt lat="48.47529" lon="2.24821">
        <ele>136</ele>
        <time>2020-02-12T12:28:00Z</time>
      </trkpt>
      <trkpt lat="48.47527" lon="2.24896">
        <ele>135</ele>
        <time>2020-02-12T12:28:09Z</time>
      </trkpt>
      <trkpt lat="48.47514" lon="2.24993">
        <ele>134</ele>
        <time>2020-02-12T12:28:20Z</time>
      </trkpt>
      <trkpt lat="48.47508" lon="2.25022">
        <ele>134</ele>
        <time>2020-02-12T12:28:24Z</time>
      </trkpt>
      <trkpt lat="48.47499" lon="2.25043">
        <ele>134</ele>
        <time>2020-02-12T12:28:27Z</time>
      </trkpt>
      <trkpt lat="48.47484" lon="2.2506">
        <ele>134</ele>
        <time>2020-02-12T12:28:30Z</time>
      </trkpt>
      <trkpt lat="48.47437" lon="2.25089">
        <ele>134</ele>
        <time>2020-02-12T12:28:39Z</time>
      </trkpt>
      <trkpt lat="48.47424" lon="2.25103">
        <ele>134</ele>
        <time>2020-02-12T12:28:42Z</time>
      </trkpt>
      <trkpt lat="48.47415" lon="2.25124">
        <ele>134</ele>
        <time>2020-02-12T12:28:45Z</time>
      </trkpt>
      <trkpt lat="48.47406" lon="2.25162">
        <ele>133</ele>
        <time>2020-02-12T12:28:50Z</time>
      </trkpt>
      <trkpt lat="48.47407" lon="2.25203">
        <ele>133</ele>
        <time>2020-02-12T12:28:55Z</time>
      </trkpt>
      <trkpt lat="48.47429" lon="2.25302">
        <ele>134</ele>
        <time>2020-02-12T12:29:07Z</time>
      </trkpt>
      <trkpt lat="48.47434" lon="2.25334">
        <ele>134</ele>
        <time>2020-02-12T12:29:11Z</time>
      </trkpt>
      <trkpt lat="48.47439" lon="2.25391">
        <ele>136</ele>
        <time>2020-02-12T12:29:18Z</time>
      </trkpt>
      <trkpt lat="48.47441" lon="2.25471">
        <ele>136</ele>
        <time>2020-02-12T12:29:27Z</time>
      </trkpt>
      <trkpt lat="48.47435" lon="2.25636">
        <ele>137</ele>
        <time>2020-02-12T12:29:47Z</time>
      </trkpt>
      <trkpt lat="48.47396" lon="2.25869">
        <ele>138</ele>
        <time>2020-02-12T12:30:15Z</time>
      </trkpt>
      <trkpt lat="48.47393" lon="2.25908">
        <ele>138</ele>
        <time>2020-02-12T12:30:20Z</time>
      </trkpt>
      <trkpt lat="48.47394" lon="2.25948">
        <ele>138</ele>
        <time>2020-02-12T12:30:24Z</time>
      </trkpt>
      <trkpt lat="48.47399" lon="2.25985">
        <ele>138</ele>
        <time>2020-02-12T12:30:29Z</time>
      </trkpt>
      <trkpt lat="48.47408" lon="2.2602">
        <ele>138</ele>
        <time>2020-02-12T12:30:33Z</time>
      </trkpt>
      <trkpt lat="48.47421" lon="2.26045">
        <ele>139</ele>
        <time>2020-02-12T12:30:37Z</time>
      </trkpt>
      <trkpt lat="48.47438" lon="2.26067">
        <ele>139</ele>
        <time>2020-02-12T12:30:41Z</time>
      </trkpt>
      <trkpt lat="48.4745" lon="2.2609">
        <ele>140</ele>
        <time>2020-02-12T12:30:44Z</time>
      </trkpt>
      <trkpt lat="48.47459" lon="2.26125">
        <ele>143</ele>
        <time>2020-02-12T12:30:49Z</time>
      </trkpt>
      <trkpt lat="48.47461" lon="2.26143">
        <ele>144</ele>
        <time>2020-02-12T12:30:51Z</time>
      </trkpt>
      <trkpt lat="48.4746" lon="2.26179">
        <ele>145</ele>
        <time>2020-02-12T12:30:55Z</time>
      </trkpt>
      <trkpt lat="48.4743" lon="2.26523">
        <ele>147</ele>
        <time>2020-02-12T12:31:36Z</time>
      </trkpt>
      <trkpt lat="48.47417" lon="2.26642">
        <ele>148</ele>
        <time>2020-02-12T12:31:50Z</time>
      </trkpt>
      <trkpt lat="48.47407" lon="2.2669">
        <ele>148</ele>
        <time>2020-02-12T12:31:56Z</time>
      </trkpt>
      <trkpt lat="48.47394" lon="2.2673">
        <ele>148</ele>
        <time>2020-02-12T12:32:01Z</time>
      </trkpt>
      <trkpt lat="48.47345" lon="2.26859">
        <ele>146</ele>
        <time>2020-02-12T12:32:19Z</time>
      </trkpt>
      <trkpt lat="48.47324" lon="2.26901">
        <ele>147</ele>
        <time>2020-02-12T12:32:25Z</time>
      </trkpt>
      <trkpt lat="48.47309" lon="2.26923">
        <ele>147</ele>
        <time>2020-02-12T12:32:29Z</time>
      </trkpt>
      <trkpt lat="48.47287" lon="2.26948">
        <ele>147</ele>
        <time>2020-02-12T12:32:34Z</time>
      </trkpt>
      <trkpt lat="48.47176" lon="2.27045">
        <ele>143</ele>
        <time>2020-02-12T12:32:57Z</time>
      </trkpt>
      <trkpt lat="48.47161" lon="2.27063">
        <ele>142</ele>
        <time>2020-02-12T12:33:00Z</time>
      </trkpt>
      <trkpt lat="48.47151" lon="2.27085">
        <ele>141</ele>
        <time>2020-02-12T12:33:03Z</time>
      </trkpt>
      <trkpt lat="48.47147" lon="2.271">
        <ele>140</ele>
        <time>2020-02-12T12:33:05Z</time>
      </trkpt>
      <trkpt lat="48.47147" lon="2.27134">
        <ele>138</ele>
        <time>2020-02-12T12:33:09Z</time>
      </trkpt>
      <trkpt lat="48.47153" lon="2.27164">
        <ele>136</ele>
        <time>2020-02-12T12:33:13Z</time>
      </trkpt>
      <trkpt lat="48.47165" lon="2.27197">
        <ele>134</ele>
        <time>2020-02-12T12:33:17Z</time>
      </trkpt>
      <trkpt lat="48.47202" lon="2.27275">
        <ele>133</ele>
        <time>2020-02-12T12:33:29Z</time>
      </trkpt>
      <trkpt lat="48.47206" lon="2.27289">
        <ele>133</ele>
        <time>2020-02-12T12:33:30Z</time>
      </trkpt>
      <trkpt lat="48.47208" lon="2.27315">
        <ele>132</ele>
        <time>2020-02-12T12:33:33Z</time>
      </trkpt>
      <trkpt lat="48.47196" lon="2.27375">
        <ele>126</ele>
        <time>2020-02-12T12:33:41Z</time>
      </trkpt>
      <trkpt lat="48.47197" lon="2.27398">
        <ele>125</ele>
        <time>2020-02-12T12:33:44Z</time>
      </trkpt>
      <trkpt lat="48.47204" lon="2.27424">
        <ele>124</ele>
        <time>2020-02-12T12:33:47Z</time>
      </trkpt>
      <trkpt lat="48.47216" lon="2.27451">
        <ele>123</ele>
        <time>2020-02-12T12:33:51Z</time>
      </trkpt>
      <trkpt lat="48.47331" lon="2.27664">
        <ele>110</ele>
        <time>2020-02-12T12:34:23Z</time>
      </trkpt>
      <trkpt lat="48.47345" lon="2.27703">
        <ele>108</ele>
        <time>2020-02-12T12:34:28Z</time>
      </trkpt>
      <trkpt lat="48.47348" lon="2.27724">
        <ele>106</ele>
        <time>2020-02-12T12:34:31Z</time>
      </trkpt>
      <trkpt lat="48.47347" lon="2.27742">
        <ele>104</ele>
        <time>2020-02-12T12:34:33Z</time>
      </trkpt>
      <trkpt lat="48.47344" lon="2.27757">
        <ele>102</ele>
        <time>2020-02-12T12:34:35Z</time>
      </trkpt>
      <trkpt lat="48.47328" lon="2.27798">
        <ele>98</ele>
        <time>2020-02-12T12:34:40Z</time>
      </trkpt>
      <trkpt lat="48.4728" lon="2.27893">
        <ele>91</ele>
        <time>2020-02-12T12:34:55Z</time>
      </trkpt>
      <trkpt lat="48.47156" lon="2.28151">
        <ele>81</ele>
        <time>2020-02-12T12:35:32Z</time>
      </trkpt>
      <trkpt lat="48.47131" lon="2.2829">
        <ele>79</ele>
        <time>2020-02-12T12:35:49Z</time>
      </trkpt>
      <trkpt lat="48.4712" lon="2.28322">
        <ele>79</ele>
        <time>2020-02-12T12:35:53Z</time>
      </trkpt>
      <trkpt lat="48.4711" lon="2.28308">
        <ele>79</ele>
        <time>2020-02-12T12:35:56Z</time>
      </trkpt>
      <trkpt lat="48.47104" lon="2.28304">
        <ele>79</ele>
        <time>2020-02-12T12:35:57Z</time>
      </trkpt>
      <trkpt lat="48.4703" lon="2.28286">
        <ele>77</ele>
        <time>2020-02-12T12:36:10Z</time>
      </trkpt>
      <trkpt lat="48.47015" lon="2.28279">
        <ele>76</ele>
        <time>2020-02-12T12:36:13Z</time>
      </trkpt>
      <trkpt lat="48.46996" lon="2.28266">
        <ele>76</ele>
        <time>2020-02-12T12:36:17Z</time>
      </trkpt>
      <trkpt lat="48.46769" lon="2.28038">
        <ele>81</ele>
        <time>2020-02-12T12:37:05Z</time>
      </trkpt>
      <trkpt lat="48.46738" lon="2.27998">
        <ele>82</ele>
        <time>2020-02-12T12:37:13Z</time>
      </trkpt>
      <trkpt lat="48.46729" lon="2.2798">
        <ele>82</ele>
        <time>2020-02-12T12:37:15Z</time>
      </trkpt>
      <trkpt lat="48.46718" lon="2.27947">
        <ele>81</ele>
        <time>2020-02-12T12:37:20Z</time>
      </trkpt>
      <trkpt lat="48.46682" lon="2.2781">
        <ele>84</ele>
        <time>2020-02-12T12:37:37Z</time>
      </trkpt>
      <trkpt lat="48.46653" lon="2.27712">
        <ele>87</ele>
        <time>2020-02-12T12:37:50Z</time>
      </trkpt>
      <trkpt lat="48.46594" lon="2.2758">
        <ele>90</ele>
        <time>2020-02-12T12:38:08Z</time>
      </trkpt>
      <trkpt lat="48.46578" lon="2.2755">
        <ele>92</ele>
        <time>2020-02-12T12:38:13Z</time>
      </trkpt>
      <trkpt lat="48.46555" lon="2.27491">
        <ele>94</ele>
        <time>2020-02-12T12:38:21Z</time>
      </trkpt>
      <trkpt lat="48.4653" lon="2.27371">
        <ele>100</ele>
        <time>2020-02-12T12:38:36Z</time>
      </trkpt>
      <trkpt lat="48.46522" lon="2.27346">
        <ele>101</ele>
        <time>2020-02-12T12:38:39Z</time>
      </trkpt>
      <trkpt lat="48.46495" lon="2.27283">
        <ele>101</ele>
        <time>2020-02-12T12:38:48Z</time>
      </trkpt>
      <trkpt lat="48.46483" lon="2.27262">
        <ele>101</ele>
        <time>2020-02-12T12:38:51Z</time>
      </trkpt>
      <trkpt lat="48.46424" lon="2.27177">
        <ele>105</ele>
        <time>2020-02-12T12:39:06Z</time>
      </trkpt>
      <trkpt lat="48.46398" lon="2.27127">
        <ele>106</ele>
        <time>2020-02-12T12:39:13Z</time>
      </trkpt>
      <trkpt lat="48.46383" lon="2.27047">
        <ele>108</ele>
        <time>2020-02-12T12:39:23Z</time>
      </trkpt>
      <trkpt lat="48.46363" lon="2.26995">
        <ele>108</ele>
        <time>2020-02-12T12:39:30Z</time>
      </trkpt>
      <trkpt lat="48.46323" lon="2.26928">
        <ele>110</ele>
        <time>2020-02-12T12:39:41Z</time>
      </trkpt>
      <trkpt lat="48.46298" lon="2.26897">
        <ele>112</ele>
        <time>2020-02-12T12:39:47Z</time>
      </trkpt>
      <trkpt lat="48.46264" lon="2.26874">
        <ele>113</ele>
        <time>2020-02-12T12:39:53Z</time>
      </trkpt>
      <trkpt lat="48.46216" lon="2.26852">
        <ele>115</ele>
        <time>2020-02-12T12:40:02Z</time>
      </trkpt>
      <trkpt lat="48.46206" lon="2.26844">
        <ele>115</ele>
        <time>2020-02-12T12:40:04Z</time>
      </trkpt>
      <trkpt lat="48.46174" lon="2.26813">
        <ele>116</ele>
        <time>2020-02-12T12:40:11Z</time>
      </trkpt>
      <trkpt lat="48.46147" lon="2.26779">
        <ele>119</ele>
        <time>2020-02-12T12:40:17Z</time>
      </trkpt>
      <trkpt lat="48.46121" lon="2.26751">
        <ele>121</ele>
        <time>2020-02-12T12:40:23Z</time>
      </trkpt>
      <trkpt lat="48.46017" lon="2.26599">
        <ele>122</ele>
        <time>2020-02-12T12:40:49Z</time>
      </trkpt>
      <trkpt lat="48.45994" lon="2.2656">
        <ele>122</ele>
        <time>2020-02-12T12:40:55Z</time>
      </trkpt>
      <trkpt lat="48.45815" lon="2.2622">
        <ele>123</ele>
        <time>2020-02-12T12:41:46Z</time>
      </trkpt>
      <trkpt lat="48.45781" lon="2.26174">
        <ele>124</ele>
        <time>2020-02-12T12:41:54Z</time>
      </trkpt>
      <trkpt lat="48.4569" lon="2.26097">
        <ele>125</ele>
        <time>2020-02-12T12:42:13Z</time>
      </trkpt>
      <trkpt lat="48.45651" lon="2.26059">
        <ele>126</ele>
        <time>2020-02-12T12:42:21Z</time>
      </trkpt>
      <trkpt lat="48.45626" lon="2.26025">
        <ele>126</ele>
        <time>2020-02-12T12:42:27Z</time>
      </trkpt>
      <trkpt lat="48.45603" lon="2.25985">
        <ele>126</ele>
        <time>2020-02-12T12:42:33Z</time>
      </trkpt>
      <trkpt lat="48.45585" lon="2.25943">
        <ele>125</ele>
        <time>2020-02-12T12:42:39Z</time>
      </trkpt>
      <trkpt lat="48.45558" lon="2.25847">
        <ele>127</ele>
        <time>2020-02-12T12:42:51Z</time>
      </trkpt>
      <trkpt lat="48.45547" lon="2.25825">
        <ele>127</ele>
        <time>2020-02-12T12:42:55Z</time>
      </trkpt>
      <trkpt lat="48.45532" lon="2.25807">
        <ele>127</ele>
        <time>2020-02-12T12:42:58Z</time>
      </trkpt>
      <trkpt lat="48.45477" lon="2.25763">
        <ele>127</ele>
        <time>2020-02-12T12:43:09Z</time>
      </trkpt>
      <trkpt lat="48.45453" lon="2.25738">
        <ele>128</ele>
        <time>2020-02-12T12:43:14Z</time>
      </trkpt>
      <trkpt lat="48.45438" lon="2.25712">
        <ele>128</ele>
        <time>2020-02-12T12:43:18Z</time>
      </trkpt>
      <trkpt lat="48.45382" lon="2.25586">
        <ele>132</ele>
        <time>2020-02-12T12:43:36Z</time>
      </trkpt>
      <trkpt lat="48.45332" lon="2.2549">
        <ele>131</ele>
        <time>2020-02-12T12:43:51Z</time>
      </trkpt>
      <trkpt lat="48.4531" lon="2.25417">
        <ele>130</ele>
        <time>2020-02-12T12:44:00Z</time>
      </trkpt>
      <trkpt lat="48.45244" lon="2.2513">
        <ele>135</ele>
        <time>2020-02-12T12:44:36Z</time>
      </trkpt>
      <trkpt lat="48.44997" lon="2.23283">
        <ele>148</ele>
        <time>2020-02-12T12:48:18Z</time>
      </trkpt>
      <trkpt lat="48.44986" lon="2.23231">
        <ele>148</ele>
        <time>2020-02-12T12:48:25Z</time>
      </trkpt>
      <trkpt lat="48.44978" lon="2.23206">
        <ele>148</ele>
        <time>2020-02-12T12:48:28Z</time>
      </trkpt>
      <trkpt lat="48.44774" lon="2.22736">
        <ele>149</ele>
        <time>2020-02-12T12:49:34Z</time>
      </trkpt>
      <trkpt lat="48.44729" lon="2.22635">
        <ele>150</ele>
        <time>2020-02-12T12:49:49Z</time>
      </trkpt>
      <trkpt lat="48.44705" lon="2.22588">
        <ele>149</ele>
        <time>2020-02-12T12:49:56Z</time>
      </trkpt>
      <trkpt lat="48.44663" lon="2.22525">
        <ele>150</ele>
        <time>2020-02-12T12:50:06Z</time>
      </trkpt>
      <trkpt lat="48.4435" lon="2.22083">
        <ele>153</ele>
        <time>2020-02-12T12:51:23Z</time>
      </trkpt>
      <trkpt lat="48.44326" lon="2.22044">
        <ele>152</ele>
        <time>2020-02-12T12:51:29Z</time>
      </trkpt>
      <trkpt lat="48.44317" lon="2.22022">
        <ele>152</ele>
        <time>2020-02-12T12:51:32Z</time>
      </trkpt>
      <trkpt lat="48.44309" lon="2.21999">
        <ele>151</ele>
        <time>2020-02-12T12:51:35Z</time>
      </trkpt>
      <trkpt lat="48.44299" lon="2.2195">
        <ele>151</ele>
        <time>2020-02-12T12:51:41Z</time>
      </trkpt>
      <trkpt lat="48.44284" lon="2.21778">
        <ele>152</ele>
        <time>2020-02-12T12:52:02Z</time>
      </trkpt>
      <trkpt lat="48.44276" lon="2.21595">
        <ele>150</ele>
        <time>2020-02-12T12:52:23Z</time>
      </trkpt>
      <trkpt lat="48.44267" lon="2.21537">
        <ele>150</ele>
        <time>2020-02-12T12:52:30Z</time>
      </trkpt>
      <trkpt lat="48.44126" lon="2.20945">
        <ele>150</ele>
        <time>2020-02-12T12:53:45Z</time>
      </trkpt>
      <trkpt lat="48.44113" lon="2.20901">
        <ele>150</ele>
        <time>2020-02-12T12:53:50Z</time>
      </trkpt>
      <trkpt lat="48.44104" lon="2.20881">
        <ele>149</ele>
        <time>2020-02-12T12:53:53Z</time>
      </trkpt>
      <trkpt lat="48.4408" lon="2.20847">
        <ele>149</ele>
        <time>2020-02-12T12:53:59Z</time>
      </trkpt>
      <trkpt lat="48.43895" lon="2.20673">
        <ele>145</ele>
        <time>2020-02-12T12:54:38Z</time>
      </trkpt>
      <trkpt lat="48.43848" lon="2.20617">
        <ele>143</ele>
        <time>2020-02-12T12:54:48Z</time>
      </trkpt>
      <trkpt lat="48.43769" lon="2.20504">
        <ele>141</ele>
        <time>2020-02-12T12:55:08Z</time>
      </trkpt>
      <trkpt lat="48.43648" lon="2.20324">
        <ele>134</ele>
        <time>2020-02-12T12:55:38Z</time>
      </trkpt>
      <trkpt lat="48.43544" lon="2.2018">
        <ele>131</ele>
        <time>2020-02-12T12:56:03Z</time>
      </trkpt>
      <trkpt lat="48.43547" lon="2.20166">
        <ele>130</ele>
        <time>2020-02-12T12:56:05Z</time>
      </trkpt>
      <trkpt lat="48.43546" lon="2.20156">
        <ele>130</ele>
        <time>2020-02-12T12:56:06Z</time>
      </trkpt>
      <trkpt lat="48.43541" lon="2.20149">
        <ele>130</ele>
        <time>2020-02-12T12:56:07Z</time>
      </trkpt>
      <trkpt lat="48.43533" lon="2.20147">
        <ele>130</ele>
        <time>2020-02-12T12:56:09Z</time>
      </trkpt>
      <trkpt lat="48.43527" lon="2.20149">
        <ele>130</ele>
        <time>2020-02-12T12:56:10Z</time>
      </trkpt>
      <trkpt lat="48.43522" lon="2.20156">
        <ele>130</ele>
        <time>2020-02-12T12:56:11Z</time>
      </trkpt>
      <trkpt lat="48.43522" lon="2.20176">
        <ele>131</ele>
        <time>2020-02-12T12:56:13Z</time>
      </trkpt>
      <trkpt lat="48.43527" lon="2.20183">
        <ele>131</ele>
        <time>2020-02-12T12:56:15Z</time>
      </trkpt>
      <trkpt lat="48.43441" lon="2.20463">
        <ele>139</ele>
        <time>2020-02-12T12:56:51Z</time>
      </trkpt>
      <trkpt lat="48.43374" lon="2.20716">
        <ele>144</ele>
        <time>2020-02-12T12:57:23Z</time>
      </trkpt>
      <trkpt lat="48.43359" lon="2.20762">
        <ele>145</ele>
        <time>2020-02-12T12:57:29Z</time>
      </trkpt>
      <trkpt lat="48.43335" lon="2.20813">
        <ele>145</ele>
        <time>2020-02-12T12:57:37Z</time>
      </trkpt>
      <trkpt lat="48.43023" lon="2.21391">
        <ele>147</ele>
        <time>2020-02-12T12:59:05Z</time>
      </trkpt>
      <trkpt lat="48.42997" lon="2.21425">
        <ele>146</ele>
        <time>2020-02-12T12:59:11Z</time>
      </trkpt>
      <trkpt lat="48.42824" lon="2.21625">
        <ele>140</ele>
        <time>2020-02-12T12:59:49Z</time>
      </trkpt>
      <trkpt lat="48.42699" lon="2.21744">
        <ele>142</ele>
        <time>2020-02-12T13:00:16Z</time>
      </trkpt>
      <trkpt lat="48.42635" lon="2.2183">
        <ele>144</ele>
        <time>2020-02-12T13:00:31Z</time>
      </trkpt>
      <trkpt lat="48.42575" lon="2.2192">
        <ele>145</ele>
        <time>2020-02-12T13:00:46Z</time>
      </trkpt>
      <trkpt lat="48.42551" lon="2.21971">
        <ele>146</ele>
        <time>2020-02-12T13:00:53Z</time>
      </trkpt>
      <trkpt lat="48.42502" lon="2.2211">
        <ele>146</ele>
        <time>2020-02-12T13:01:12Z</time>
      </trkpt>
      <trkpt lat="48.42446" lon="2.22252">
        <ele>146</ele>
        <time>2020-02-12T13:01:32Z</time>
      </trkpt>
      <trkpt lat="48.42439" lon="2.22277">
        <ele>146</ele>
        <time>2020-02-12T13:01:35Z</time>
      </trkpt>
      <trkpt lat="48.42433" lon="2.22306">
        <ele>146</ele>
        <time>2020-02-12T13:01:38Z</time>
      </trkpt>
      <trkpt lat="48.42426" lon="2.22365">
        <ele>146</ele>
        <time>2020-02-12T13:01:45Z</time>
      </trkpt>
      <trkpt lat="48.42417" lon="2.22598">
        <ele>143</ele>
        <time>2020-02-12T13:02:13Z</time>
      </trkpt>
      <trkpt lat="48.42419" lon="2.22653">
        <ele>141</ele>
        <time>2020-02-12T13:02:20Z</time>
      </trkpt>
      <trkpt lat="48.42432" lon="2.22773">
        <ele>139</ele>
        <time>2020-02-12T13:02:34Z</time>
      </trkpt>
      <trkpt lat="48.42444" lon="2.22851">
        <ele>139</ele>
        <time>2020-02-12T13:02:43Z</time>
      </trkpt>
      <trkpt lat="48.42538" lon="2.2322">
        <ele>133</ele>
        <time>2020-02-12T13:03:30Z</time>
      </trkpt>
      <trkpt lat="48.42568" lon="2.23358">
        <ele>131</ele>
        <time>2020-02-12T13:03:47Z</time>
      </trkpt>
      <trkpt lat="48.42603" lon="2.23597">
        <ele>135</ele>
        <time>2020-02-12T13:04:16Z</time>
      </trkpt>
      <trkpt lat="48.4264" lon="2.2391">
        <ele>129</ele>
        <time>2020-02-12T13:04:54Z</time>
      </trkpt>
      <trkpt lat="48.42641" lon="2.2398">
        <ele>129</ele>
        <time>2020-02-12T13:05:02Z</time>
      </trkpt>
      <trkpt lat="48.42633" lon="2.24085">
        <ele>127</ele>
        <time>2020-02-12T13:05:14Z</time>
      </trkpt>
      <trkpt lat="48.42634" lon="2.24117">
        <ele>125</ele>
        <time>2020-02-12T13:05:18Z</time>
      </trkpt>
      <trkpt lat="48.4264" lon="2.24156">
        <ele>123</ele>
        <time>2020-02-12T13:05:23Z</time>
      </trkpt>
      <trkpt lat="48.42841" lon="2.2513">
        <ele>96</ele>
        <time>2020-02-12T13:07:23Z</time>
      </trkpt>
      <trkpt lat="48.42863" lon="2.25206">
        <ele>95</ele>
        <time>2020-02-12T13:07:33Z</time>
      </trkpt>
      <trkpt lat="48.42894" lon="2.25299">
        <ele>92</ele>
        <time>2020-02-12T13:07:45Z</time>
      </trkpt>
      <trkpt lat="48.42948" lon="2.25482">
        <ele>87</ele>
        <time>2020-02-12T13:08:09Z</time>
      </trkpt>
      <trkpt lat="48.43121" lon="2.26177">
        <ele>79</ele>
        <time>2020-02-12T13:09:37Z</time>
      </trkpt>
      <trkpt lat="48.43141" lon="2.26269">
        <ele>79</ele>
        <time>2020-02-12T13:09:48Z</time>
      </trkpt>
      <trkpt lat="48.43149" lon="2.2632">
        <ele>79</ele>
        <time>2020-02-12T13:09:54Z</time>
      </trkpt>
      <trkpt lat="48.43151" lon="2.26341">
        <ele>79</ele>
        <time>2020-02-12T13:09:57Z</time>
      </trkpt>
      <trkpt lat="48.4315" lon="2.26378">
        <ele>78</ele>
        <time>2020-02-12T13:10:01Z</time>
      </trkpt>
      <trkpt lat="48.43141" lon="2.26422">
        <ele>78</ele>
        <time>2020-02-12T13:10:07Z</time>
      </trkpt>
      <trkpt lat="48.43132" lon="2.26446">
        <ele>78</ele>
        <time>2020-02-12T13:10:10Z</time>
      </trkpt>
      <trkpt lat="48.43091" lon="2.26534">
        <ele>77</ele>
        <time>2020-02-12T13:10:22Z</time>
      </trkpt>
      <trkpt lat="48.43086" lon="2.26548">
        <ele>76</ele>
        <time>2020-02-12T13:10:24Z</time>
      </trkpt>
      <trkpt lat="48.43082" lon="2.26573">
        <ele>76</ele>
        <time>2020-02-12T13:10:27Z</time>
      </trkpt>
      <trkpt lat="48.43082" lon="2.26592">
        <ele>76</ele>
        <time>2020-02-12T13:10:30Z</time>
      </trkpt>
      <trkpt lat="48.43088" lon="2.2663">
        <ele>75</ele>
        <time>2020-02-12T13:10:34Z</time>
      </trkpt>
      <trkpt lat="48.43104" lon="2.26687">
        <ele>75</ele>
        <time>2020-02-12T13:10:42Z</time>
      </trkpt>
      <trkpt lat="48.43113" lon="2.26743">
        <ele>75</ele>
        <time>2020-02-12T13:10:48Z</time>
      </trkpt>
      <trkpt lat="48.43128" lon="2.26996">
        <ele>74</ele>
        <time>2020-02-12T13:11:18Z</time>
      </trkpt>
      <trkpt lat="48.43128" lon="2.27022">
        <ele>74</ele>
        <time>2020-02-12T13:11:21Z</time>
      </trkpt>
      <trkpt lat="48.43122" lon="2.27065">
        <ele>74</ele>
        <time>2020-02-12T13:11:27Z</time>
      </trkpt>
      <trkpt lat="48.43117" lon="2.27083">
        <ele>73</ele>
        <time>2020-02-12T13:11:29Z</time>
      </trkpt>
      <trkpt lat="48.4309" lon="2.27148">
        <ele>72</ele>
        <time>2020-02-12T13:11:38Z</time>
      </trkpt>
      <trkpt lat="48.431" lon="2.27172">
        <ele>72</ele>
        <time>2020-02-12T13:11:41Z</time>
      </trkpt>
      <trkpt lat="48.43107" lon="2.2724">
        <ele>73</ele>
        <time>2020-02-12T13:11:49Z</time>
      </trkpt>
      <trkpt lat="48.4313" lon="2.27333">
        <ele>73</ele>
        <time>2020-02-12T13:12:01Z</time>
      </trkpt>
      <trkpt lat="48.43146" lon="2.27444">
        <ele>72</ele>
        <time>2020-02-12T13:12:15Z</time>
      </trkpt>
      <trkpt lat="48.43188" lon="2.27663">
        <ele>71</ele>
        <time>2020-02-12T13:12:41Z</time>
      </trkpt>
      <trkpt lat="48.43238" lon="2.27997">
        <ele>75</ele>
        <time>2020-02-12T13:13:22Z</time>
      </trkpt>
      <trkpt lat="48.43251" lon="2.28109">
        <ele>73</ele>
        <time>2020-02-12T13:13:35Z</time>
      </trkpt>
      <trkpt lat="48.43248" lon="2.28134">
        <ele>72</ele>
        <time>2020-02-12T13:13:38Z</time>
      </trkpt>
      <trkpt lat="48.43216" lon="2.28248">
        <ele>71</ele>
        <time>2020-02-12T13:13:53Z</time>
      </trkpt>
      <trkpt lat="48.4317" lon="2.28376">
        <ele>70</ele>
        <time>2020-02-12T13:14:10Z</time>
      </trkpt>
      <trkpt lat="48.43164" lon="2.28414">
        <ele>69</ele>
        <time>2020-02-12T13:14:15Z</time>
      </trkpt>
      <trkpt lat="48.43159" lon="2.28492">
        <ele>70</ele>
        <time>2020-02-12T13:14:24Z</time>
      </trkpt>
      <trkpt lat="48.43172" lon="2.28504">
        <ele>70</ele>
        <time>2020-02-12T13:14:27Z</time>
      </trkpt>
      <trkpt lat="48.43205" lon="2.28545">
        <ele>70</ele>
        <time>2020-02-12T13:14:34Z</time>
      </trkpt>
      <trkpt lat="48.43184" lon="2.28869">
        <ele>69</ele>
        <time>2020-02-12T13:15:13Z</time>
      </trkpt>
      <trkpt lat="48.43175" lon="2.28927">
        <ele>69</ele>
        <time>2020-02-12T13:15:20Z</time>
      </trkpt>
      <trkpt lat="48.42991" lon="2.29522">
        <ele>68</ele>
        <time>2020-02-12T13:16:37Z</time>
      </trkpt>
      <trkpt lat="48.42856" lon="2.30069">
        <ele>84</ele>
        <time>2020-02-12T13:17:46Z</time>
      </trkpt>
      <trkpt lat="48.42841" lon="2.30103">
        <ele>85</ele>
        <time>2020-02-12T13:17:51Z</time>
      </trkpt>
      <trkpt lat="48.42822" lon="2.30129">
        <ele>87</ele>
        <time>2020-02-12T13:17:56Z</time>
      </trkpt>
      <trkpt lat="48.4281" lon="2.30139">
        <ele>87</ele>
        <time>2020-02-12T13:17:58Z</time>
      </trkpt>
      <trkpt lat="48.42772" lon="2.30153">
        <ele>89</ele>
        <time>2020-02-12T13:18:05Z</time>
      </trkpt>
      <trkpt lat="48.42751" lon="2.30165">
        <ele>90</ele>
        <time>2020-02-12T13:18:09Z</time>
      </trkpt>
      <trkpt lat="48.42743" lon="2.30173">
        <ele>91</ele>
        <time>2020-02-12T13:18:11Z</time>
      </trkpt>
      <trkpt lat="48.4273" lon="2.30197">
        <ele>94</ele>
        <time>2020-02-12T13:18:14Z</time>
      </trkpt>
      <trkpt lat="48.42723" lon="2.30232">
        <ele>96</ele>
        <time>2020-02-12T13:18:19Z</time>
      </trkpt>
      <trkpt lat="48.4272" lon="2.30292">
        <ele>97</ele>
        <time>2020-02-12T13:18:26Z</time>
      </trkpt>
      <trkpt lat="48.42717" lon="2.3031">
        <ele>97</ele>
        <time>2020-02-12T13:18:28Z</time>
      </trkpt>
      <trkpt lat="48.42698" lon="2.30363">
        <ele>100</ele>
        <time>2020-02-12T13:18:35Z</time>
      </trkpt>
      <trkpt lat="48.42666" lon="2.30424">
        <ele>104</ele>
        <time>2020-02-12T13:18:44Z</time>
      </trkpt>
      <trkpt lat="48.4266" lon="2.3044">
        <ele>105</ele>
        <time>2020-02-12T13:18:46Z</time>
      </trkpt>
      <trkpt lat="48.4263" lon="2.3057">
        <ele>114</ele>
        <time>2020-02-12T13:19:03Z</time>
      </trkpt>
      <trkpt lat="48.4263" lon="2.30601">
        <ele>115</ele>
        <time>2020-02-12T13:19:06Z</time>
      </trkpt>
      <trkpt lat="48.4265" lon="2.30681">
        <ele>113</ele>
        <time>2020-02-12T13:19:16Z</time>
      </trkpt>
      <trkpt lat="48.42654" lon="2.30713">
        <ele>112</ele>
        <time>2020-02-12T13:19:20Z</time>
      </trkpt>
      <trkpt lat="48.4265" lon="2.30742">
        <ele>112</ele>
        <time>2020-02-12T13:19:24Z</time>
      </trkpt>
      <trkpt lat="48.42638" lon="2.30763">
        <ele>114</ele>
        <time>2020-02-12T13:19:27Z</time>
      </trkpt>
      <trkpt lat="48.42617" lon="2.30781">
        <ele>117</ele>
        <time>2020-02-12T13:19:31Z</time>
      </trkpt>
      <trkpt lat="48.42602" lon="2.30798">
        <ele>119</ele>
        <time>2020-02-12T13:19:35Z</time>
      </trkpt>
      <trkpt lat="48.42579" lon="2.30849">
        <ele>121</ele>
        <time>2020-02-12T13:19:42Z</time>
      </trkpt>
      <trkpt lat="48.42564" lon="2.30901">
        <ele>122</ele>
        <time>2020-02-12T13:19:49Z</time>
      </trkpt>
      <trkpt lat="48.42559" lon="2.30948">
        <ele>123</ele>
        <time>2020-02-12T13:19:54Z</time>
      </trkpt>
      <trkpt lat="48.42573" lon="2.31218">
        <ele>132</ele>
        <time>2020-02-12T13:20:26Z</time>
      </trkpt>
      <trkpt lat="48.4255" lon="2.32438">
        <ele>138</ele>
        <time>2020-02-12T13:22:50Z</time>
      </trkpt>
      <trkpt lat="48.42557" lon="2.3248">
        <ele>137</ele>
        <time>2020-02-12T13:22:55Z</time>
      </trkpt>
      <trkpt lat="48.42564" lon="2.32498">
        <ele>136</ele>
        <time>2020-02-12T13:22:58Z</time>
      </trkpt>
      <trkpt lat="48.42589" lon="2.32535">
        <ele>136</ele>
        <time>2020-02-12T13:23:04Z</time>
      </trkpt>
      <trkpt lat="48.42648" lon="2.32602">
        <ele>132</ele>
        <time>2020-02-12T13:23:17Z</time>
      </trkpt>
      <trkpt lat="48.42672" lon="2.32616">
        <ele>130</ele>
        <time>2020-02-12T13:23:22Z</time>
      </trkpt>
      <trkpt lat="48.42706" lon="2.32628">
        <ele>130</ele>
        <time>2020-02-12T13:23:28Z</time>
      </trkpt>
      <trkpt lat="48.42716" lon="2.32636">
        <ele>129</ele>
        <time>2020-02-12T13:23:30Z</time>
      </trkpt>
      <trkpt lat="48.42732" lon="2.32662">
        <ele>127</ele>
        <time>2020-02-12T13:23:34Z</time>
      </trkpt>
      <trkpt lat="48.42741" lon="2.32695">
        <ele>125</ele>
        <time>2020-02-12T13:23:39Z</time>
      </trkpt>
      <trkpt lat="48.42752" lon="2.32796">
        <ele>117</ele>
        <time>2020-02-12T13:23:51Z</time>
      </trkpt>
      <trkpt lat="48.42749" lon="2.32826">
        <ele>114</ele>
        <time>2020-02-12T13:23:54Z</time>
      </trkpt>
      <trkpt lat="48.42737" lon="2.32877">
        <ele>111</ele>
        <time>2020-02-12T13:24:01Z</time>
      </trkpt>
      <trkpt lat="48.42734" lon="2.32918">
        <ele>110</ele>
        <time>2020-02-12T13:24:05Z</time>
      </trkpt>
      <trkpt lat="48.42735" lon="2.32935">
        <ele>109</ele>
        <time>2020-02-12T13:24:07Z</time>
      </trkpt>
      <trkpt lat="48.4274" lon="2.32965">
        <ele>108</ele>
        <time>2020-02-12T13:24:11Z</time>
      </trkpt>
      <trkpt lat="48.42786" lon="2.33161">
        <ele>99</ele>
        <time>2020-02-12T13:24:36Z</time>
      </trkpt>
      <trkpt lat="48.428" lon="2.33205">
        <ele>97</ele>
        <time>2020-02-12T13:24:41Z</time>
      </trkpt>
      <trkpt lat="48.42818" lon="2.33248">
        <ele>96</ele>
        <time>2020-02-12T13:24:47Z</time>
      </trkpt>
      <trkpt lat="48.42862" lon="2.33314">
        <ele>95</ele>
        <time>2020-02-12T13:24:58Z</time>
      </trkpt>
      <trkpt lat="48.42882" lon="2.33349">
        <ele>94</ele>
        <time>2020-02-12T13:25:04Z</time>
      </trkpt>
      <trkpt lat="48.42957" lon="2.33509">
        <ele>87</ele>
        <time>2020-02-12T13:25:27Z</time>
      </trkpt>
      <trkpt lat="48.43025" lon="2.3374">
        <ele>78</ele>
        <time>2020-02-12T13:25:57Z</time>
      </trkpt>
      <trkpt lat="48.43056" lon="2.33836">
        <ele>80</ele>
        <time>2020-02-12T13:26:09Z</time>
      </trkpt>
      <trkpt lat="48.43112" lon="2.33995">
        <ele>76</ele>
        <time>2020-02-12T13:26:31Z</time>
      </trkpt>
      <trkpt lat="48.43136" lon="2.34084">
        <ele>74</ele>
        <time>2020-02-12T13:26:42Z</time>
      </trkpt>
      <trkpt lat="48.4319" lon="2.34333">
        <ele>69</ele>
        <time>2020-02-12T13:27:13Z</time>
      </trkpt>
      <trkpt lat="48.43213" lon="2.34455">
        <ele>68</ele>
        <time>2020-02-12T13:27:28Z</time>
      </trkpt>
      <trkpt lat="48.43229" lon="2.34551">
        <ele>69</ele>
        <time>2020-02-12T13:27:40Z</time>
      </trkpt>
      <trkpt lat="48.43233" lon="2.3459">
        <ele>69</ele>
        <time>2020-02-12T13:27:44Z</time>
      </trkpt>
      <trkpt lat="48.43285" lon="2.35437">
        <ele>60</ele>
        <time>2020-02-12T13:29:25Z</time>
      </trkpt>
      <trkpt lat="48.43289" lon="2.35545">
        <ele>59</ele>
        <time>2020-02-12T13:29:38Z</time>
      </trkpt>
      <trkpt lat="48.43288" lon="2.35592">
        <ele>59</ele>
        <time>2020-02-12T13:29:43Z</time>
      </trkpt>
      <trkpt lat="48.43284" lon="2.35657">
        <ele>59</ele>
        <time>2020-02-12T13:29:51Z</time>
      </trkpt>
      <trkpt lat="48.43271" lon="2.35725">
        <ele>59</ele>
        <time>2020-02-12T13:29:59Z</time>
      </trkpt>
      <trkpt lat="48.43271" lon="2.3575">
        <ele>59</ele>
        <time>2020-02-12T13:30:02Z</time>
      </trkpt>
      <trkpt lat="48.43265" lon="2.35752">
        <ele>59</ele>
        <time>2020-02-12T13:30:03Z</time>
      </trkpt>
      <trkpt lat="48.43259" lon="2.35768">
        <ele>60</ele>
        <time>2020-02-12T13:30:05Z</time>
      </trkpt>
      <trkpt lat="48.43265" lon="2.35784">
        <ele>61</ele>
        <time>2020-02-12T13:30:07Z</time>
      </trkpt>
      <trkpt lat="48.43262" lon="2.35815">
        <ele>62</ele>
        <time>2020-02-12T13:30:11Z</time>
      </trkpt>
      <trkpt lat="48.43222" lon="2.36005">
        <ele>67</ele>
        <time>2020-02-12T13:30:35Z</time>
      </trkpt>
      <trkpt lat="48.43193" lon="2.36132">
        <ele>67</ele>
        <time>2020-02-12T13:30:51Z</time>
      </trkpt>
      <trkpt lat="48.43178" lon="2.36187">
        <ele>69</ele>
        <time>2020-02-12T13:30:58Z</time>
      </trkpt>
      <trkpt lat="48.43134" lon="2.36282">
        <ele>73</ele>
        <time>2020-02-12T13:31:11Z</time>
      </trkpt>
      <trkpt lat="48.42893" lon="2.36769">
        <ele>82</ele>
        <time>2020-02-12T13:32:23Z</time>
      </trkpt>
      <trkpt lat="48.42858" lon="2.36834">
        <ele>81</ele>
        <time>2020-02-12T13:32:33Z</time>
      </trkpt>
      <trkpt lat="48.42752" lon="2.36991">
        <ele>81</ele>
        <time>2020-02-12T13:32:59Z</time>
      </trkpt>
      <trkpt lat="48.426" lon="2.37205">
        <ele>76</ele>
        <time>2020-02-12T13:33:36Z</time>
      </trkpt>
      <trkpt lat="48.42575" lon="2.37238">
        <ele>75</ele>
        <time>2020-02-12T13:33:42Z</time>
      </trkpt>
      <trkpt lat="48.4255" lon="2.37261">
        <ele>73</ele>
        <time>2020-02-12T13:33:47Z</time>
      </trkpt>
      <trkpt lat="48.42444" lon="2.37337">
        <ele>70</ele>
        <time>2020-02-12T13:34:08Z</time>
      </trkpt>
      <trkpt lat="48.42423" lon="2.37348">
        <ele>70</ele>
        <time>2020-02-12T13:34:12Z</time>
      </trkpt>
      <trkpt lat="48.42401" lon="2.37355">
        <ele>70</ele>
        <time>2020-02-12T13:34:16Z</time>
      </trkpt>
      <trkpt lat="48.42293" lon="2.37364">
        <ele>72</ele>
        <time>2020-02-12T13:34:36Z</time>
      </trkpt>
      <trkpt lat="48.42274" lon="2.37368">
        <ele>72</ele>
        <time>2020-02-12T13:34:39Z</time>
      </trkpt>
      <trkpt lat="48.42245" lon="2.37405">
        <ele>71</ele>
        <time>2020-02-12T13:34:46Z</time>
      </trkpt>
      <trkpt lat="48.42243" lon="2.37384">
        <ele>71</ele>
        <time>2020-02-12T13:34:48Z</time>
      </trkpt>
      <trkpt lat="48.42233" lon="2.37369">
        <ele>71</ele>
        <time>2020-02-12T13:34:51Z</time>
      </trkpt>
      <trkpt lat="48.42224" lon="2.37367">
        <ele>71</ele>
        <time>2020-02-12T13:34:52Z</time>
      </trkpt>
      <trkpt lat="48.4221" lon="2.37372">
        <ele>71</ele>
        <time>2020-02-12T13:34:55Z</time>
      </trkpt>
      <trkpt lat="48.42205" lon="2.37378">
        <ele>71</ele>
        <time>2020-02-12T13:34:56Z</time>
      </trkpt>
      <trkpt lat="48.42201" lon="2.3739">
        <ele>71</ele>
        <time>2020-02-12T13:34:58Z</time>
      </trkpt>
      <trkpt lat="48.42201" lon="2.37407">
        <ele>70</ele>
        <time>2020-02-12T13:35:00Z</time>
      </trkpt>
      <trkpt lat="48.42203" lon="2.37412">
        <ele>70</ele>
        <time>2020-02-12T13:35:00Z</time>
      </trkpt>
      <trkpt lat="48.42212" lon="2.37422">
        <ele>70</ele>
        <time>2020-02-12T13:35:02Z</time>
      </trkpt>
      <trkpt lat="48.42236" lon="2.37473">
        <ele>69</ele>
        <time>2020-02-12T13:35:10Z</time>
      </trkpt>
      <trkpt lat="48.42263" lon="2.37601">
        <ele>66</ele>
        <time>2020-02-12T13:35:26Z</time>
      </trkpt>
      <trkpt lat="48.42277" lon="2.37701">
        <ele>64</ele>
        <time>2020-02-12T13:35:38Z</time>
      </trkpt>
      <trkpt lat="48.42281" lon="2.37783">
        <ele>62</ele>
        <time>2020-02-12T13:35:47Z</time>
      </trkpt>
      <trkpt lat="48.42278" lon="2.37944">
        <ele>60</ele>
        <time>2020-02-12T13:36:06Z</time>
      </trkpt>
      <trkpt lat="48.4228" lon="2.381">
        <ele>61</ele>
        <time>2020-02-12T13:36:25Z</time>
      </trkpt>
      <trkpt lat="48.42286" lon="2.3819">
        <ele>60</ele>
        <time>2020-02-12T13:36:35Z</time>
      </trkpt>
      <trkpt lat="48.42295" lon="2.38274">
        <ele>61</ele>
        <time>2020-02-12T13:36:46Z</time>
      </trkpt>
      <trkpt lat="48.42323" lon="2.38438">
        <ele>62</ele>
        <time>2020-02-12T13:37:06Z</time>
      </trkpt>
      <trkpt lat="48.4234" lon="2.38508">
        <ele>62</ele>
        <time>2020-02-12T13:37:14Z</time>
      </trkpt>
      <trkpt lat="48.42367" lon="2.38599">
        <ele>61</ele>
        <time>2020-02-12T13:37:26Z</time>
      </trkpt>
      <trkpt lat="48.42433" lon="2.3878">
        <ele>60</ele>
        <time>2020-02-12T13:37:50Z</time>
      </trkpt>
      <trkpt lat="48.42456" lon="2.38831">
        <ele>61</ele>
        <time>2020-02-12T13:37:58Z</time>
      </trkpt>
      <trkpt lat="48.42451" lon="2.38843">
        <ele>61</ele>
        <time>2020-02-12T13:37:59Z</time>
      </trkpt>
      <trkpt lat="48.42451" lon="2.38862">
        <ele>61</ele>
        <time>2020-02-12T13:38:02Z</time>
      </trkpt>
      <trkpt lat="48.42457" lon="2.38876">
        <ele>61</ele>
        <time>2020-02-12T13:38:04Z</time>
      </trkpt>
      <trkpt lat="48.42461" lon="2.3888">
        <ele>62</ele>
        <time>2020-02-12T13:38:04Z</time>
      </trkpt>
      <trkpt lat="48.42472" lon="2.38882">
        <ele>62</ele>
        <time>2020-02-12T13:38:06Z</time>
      </trkpt>
      <trkpt lat="48.42494" lon="2.38925">
        <ele>63</ele>
        <time>2020-02-12T13:38:13Z</time>
      </trkpt>
      <trkpt lat="48.42516" lon="2.38983">
        <ele>63</ele>
        <time>2020-02-12T13:38:21Z</time>
      </trkpt>
      <trkpt lat="48.42543" lon="2.39075">
        <ele>63</ele>
        <time>2020-02-12T13:38:33Z</time>
      </trkpt>
      <trkpt lat="48.42561" lon="2.39153">
        <ele>63</ele>
        <time>2020-02-12T13:38:42Z</time>
      </trkpt>
      <trkpt lat="48.42612" lon="2.39402">
        <ele>65</ele>
        <time>2020-02-12T13:39:13Z</time>
      </trkpt>
      <trkpt lat="48.42682" lon="2.39767">
        <ele>68</ele>
        <time>2020-02-12T13:39:58Z</time>
      </trkpt>
      <trkpt lat="48.42689" lon="2.39816">
        <ele>68</ele>
        <time>2020-02-12T13:40:04Z</time>
      </trkpt>
      <trkpt lat="48.42692" lon="2.39888">
        <ele>70</ele>
        <time>2020-02-12T13:40:12Z</time>
      </trkpt>
      <trkpt lat="48.42672" lon="2.40219">
        <ele>83</ele>
        <time>2020-02-12T13:40:52Z</time>
      </trkpt>
      <trkpt lat="48.42671" lon="2.4027">
        <ele>87</ele>
        <time>2020-02-12T13:40:58Z</time>
      </trkpt>
      <trkpt lat="48.42673" lon="2.4031">
        <ele>90</ele>
        <time>2020-02-12T13:41:02Z</time>
      </trkpt>
      <trkpt lat="48.42682" lon="2.40374">
        <ele>96</ele>
        <time>2020-02-12T13:41:10Z</time>
      </trkpt>
      <trkpt lat="48.42789" lon="2.40857">
        <ele>124</ele>
        <time>2020-02-12T13:42:10Z</time>
      </trkpt>
      <trkpt lat="48.42796" lon="2.40917">
        <ele>125</ele>
        <time>2020-02-12T13:42:18Z</time>
      </trkpt>
      <trkpt lat="48.42789" lon="2.40986">
        <ele>127</ele>
        <time>2020-02-12T13:42:26Z</time>
      </trkpt>
      <trkpt lat="48.42777" lon="2.41029">
        <ele>128</ele>
        <time>2020-02-12T13:42:31Z</time>
      </trkpt>
      <trkpt lat="48.42755" lon="2.41073">
        <ele>128</ele>
        <time>2020-02-12T13:42:38Z</time>
      </trkpt>
      <trkpt lat="48.42722" lon="2.4111">
        <ele>131</ele>
        <time>2020-02-12T13:42:45Z</time>
      </trkpt>
      <trkpt lat="48.42624" lon="2.412">
        <ele>136</ele>
        <time>2020-02-12T13:43:05Z</time>
      </trkpt>
      <trkpt lat="48.42604" lon="2.41228">
        <ele>135</ele>
        <time>2020-02-12T13:43:10Z</time>
      </trkpt>
      <trkpt lat="48.42589" lon="2.41258">
        <ele>136</ele>
        <time>2020-02-12T13:43:15Z</time>
      </trkpt>
      <trkpt lat="48.42578" lon="2.41297">
        <ele>138</ele>
        <time>2020-02-12T13:43:20Z</time>
      </trkpt>
      <trkpt lat="48.42562" lon="2.41407">
        <ele>141</ele>
        <time>2020-02-12T13:43:33Z</time>
      </trkpt>
      <trkpt lat="48.42546" lon="2.41471">
        <ele>144</ele>
        <time>2020-02-12T13:43:41Z</time>
      </trkpt>
      <trkpt lat="48.42521" lon="2.41532">
        <ele>145</ele>
        <time>2020-02-12T13:43:50Z</time>
      </trkpt>
      <trkpt lat="48.42458" lon="2.41658">
        <ele>142</ele>
        <time>2020-02-12T13:44:08Z</time>
      </trkpt>
      <trkpt lat="48.42441" lon="2.41697">
        <ele>142</ele>
        <time>2020-02-12T13:44:14Z</time>
      </trkpt>
      <trkpt lat="48.42425" lon="2.41743">
        <ele>141</ele>
        <time>2020-02-12T13:44:20Z</time>
      </trkpt>
      <trkpt lat="48.42378" lon="2.41925">
        <ele>140</ele>
        <time>2020-02-12T13:44:43Z</time>
      </trkpt>
      <trkpt lat="48.42344" lon="2.42034">
        <ele>140</ele>
        <time>2020-02-12T13:44:57Z</time>
      </trkpt>
      <trkpt lat="48.42299" lon="2.42139">
        <ele>140</ele>
        <time>2020-02-12T13:45:12Z</time>
      </trkpt>
      <trkpt lat="48.42246" lon="2.42246">
        <ele>139</ele>
        <time>2020-02-12T13:45:28Z</time>
      </trkpt>
      <trkpt lat="48.42188" lon="2.42351">
        <ele>137</ele>
        <time>2020-02-12T13:45:44Z</time>
      </trkpt>
      <trkpt lat="48.4215" lon="2.42426">
        <ele>134</ele>
        <time>2020-02-12T13:45:55Z</time>
      </trkpt>
      <trkpt lat="48.4198" lon="2.42855">
        <ele>135</ele>
        <time>2020-02-12T13:46:54Z</time>
      </trkpt>
      <trkpt lat="48.41959" lon="2.42899">
        <ele>133</ele>
        <time>2020-02-12T13:47:00Z</time>
      </trkpt>
      <trkpt lat="48.41949" lon="2.42915">
        <ele>132</ele>
        <time>2020-02-12T13:47:03Z</time>
      </trkpt>
      <trkpt lat="48.41925" lon="2.42942">
        <ele>130</ele>
        <time>2020-02-12T13:47:08Z</time>
      </trkpt>
      <trkpt lat="48.419" lon="2.42956">
        <ele>127</ele>
        <time>2020-02-12T13:47:13Z</time>
      </trkpt>
      <trkpt lat="48.41871" lon="2.42963">
        <ele>124</ele>
        <time>2020-02-12T13:47:18Z</time>
      </trkpt>
      <trkpt lat="48.41831" lon="2.42961">
        <ele>122</ele>
        <time>2020-02-12T13:47:25Z</time>
      </trkpt>
      <trkpt lat="48.41803" lon="2.42963">
        <ele>120</ele>
        <time>2020-02-12T13:47:30Z</time>
      </trkpt>
      <trkpt lat="48.41774" lon="2.42972">
        <ele>118</ele>
        <time>2020-02-12T13:47:36Z</time>
      </trkpt>
      <trkpt lat="48.41745" lon="2.42988">
        <ele>116</ele>
        <time>2020-02-12T13:47:41Z</time>
      </trkpt>
      <trkpt lat="48.41718" lon="2.43013">
        <ele>116</ele>
        <time>2020-02-12T13:47:47Z</time>
      </trkpt>
      <trkpt lat="48.41705" lon="2.43029">
        <ele>116</ele>
        <time>2020-02-12T13:47:50Z</time>
      </trkpt>
      <trkpt lat="48.41683" lon="2.43064">
        <ele>115</ele>
        <time>2020-02-12T13:47:55Z</time>
      </trkpt>
      <trkpt lat="48.41648" lon="2.4314">
        <ele>110</ele>
        <time>2020-02-12T13:48:06Z</time>
      </trkpt>
      <trkpt lat="48.41639" lon="2.43155">
        <ele>108</ele>
        <time>2020-02-12T13:48:09Z</time>
      </trkpt>
      <trkpt lat="48.41622" lon="2.43174">
        <ele>106</ele>
        <time>2020-02-12T13:48:13Z</time>
      </trkpt>
      <trkpt lat="48.416" lon="2.43189">
        <ele>103</ele>
        <time>2020-02-12T13:48:17Z</time>
      </trkpt>
      <trkpt lat="48.41549" lon="2.43197">
        <ele>100</ele>
        <time>2020-02-12T13:48:26Z</time>
      </trkpt>
      <trkpt lat="48.41526" lon="2.43206">
        <ele>98</ele>
        <time>2020-02-12T13:48:30Z</time>
      </trkpt>
      <trkpt lat="48.41514" lon="2.43215">
        <ele>96</ele>
        <time>2020-02-12T13:48:33Z</time>
      </trkpt>
      <trkpt lat="48.4149" lon="2.43243">
        <ele>93</ele>
        <time>2020-02-12T13:48:38Z</time>
      </trkpt>
      <trkpt lat="48.41351" lon="2.43462">
        <ele>79</ele>
        <time>2020-02-12T13:49:14Z</time>
      </trkpt>
      <trkpt lat="48.41328" lon="2.43506">
        <ele>78</ele>
        <time>2020-02-12T13:49:20Z</time>
      </trkpt>
      <trkpt lat="48.41302" lon="2.43572">
        <ele>76</ele>
        <time>2020-02-12T13:49:29Z</time>
      </trkpt>
      <trkpt lat="48.40948" lon="2.44647">
        <ele>72</ele>
        <time>2020-02-12T13:51:51Z</time>
      </trkpt>
      <trkpt lat="48.40785" lon="2.4515">
        <ele>73</ele>
        <time>2020-02-12T13:52:57Z</time>
      </trkpt>
      <trkpt lat="48.40715" lon="2.45375">
        <ele>73</ele>
        <time>2020-02-12T13:53:27Z</time>
      </trkpt>
      <trkpt lat="48.4069" lon="2.45442">
        <ele>70</ele>
        <time>2020-02-12T13:53:36Z</time>
      </trkpt>
      <trkpt lat="48.4066" lon="2.45502">
        <ele>67</ele>
        <time>2020-02-12T13:53:45Z</time>
      </trkpt>
      <trkpt lat="48.40721" lon="2.4557">
        <ele>68</ele>
        <time>2020-02-12T13:53:58Z</time>
      </trkpt>
      <trkpt lat="48.40767" lon="2.45631">
        <ele>70</ele>
        <time>2020-02-12T13:54:09Z</time>
      </trkpt>
      <trkpt lat="48.40821" lon="2.45719">
        <ele>71</ele>
        <time>2020-02-12T13:54:23Z</time>
      </trkpt>
      <trkpt lat="48.40863" lon="2.45796">
        <ele>72</ele>
        <time>2020-02-12T13:54:35Z</time>
      </trkpt>
      <trkpt lat="48.40933" lon="2.45961">
        <ele>68</ele>
        <time>2020-02-12T13:54:58Z</time>
      </trkpt>
      <trkpt lat="48.41028" lon="2.46269">
        <ele>64</ele>
        <time>2020-02-12T13:55:38Z</time>
      </trkpt>
      <trkpt lat="48.41043" lon="2.4631">
        <ele>64</ele>
        <time>2020-02-12T13:55:44Z</time>
      </trkpt>
      <trkpt lat="48.41078" lon="2.4639">
        <ele>64</ele>
        <time>2020-02-12T13:55:55Z</time>
      </trkpt>
      <trkpt lat="48.41141" lon="2.46497">
        <ele>63</ele>
        <time>2020-02-12T13:56:12Z</time>
      </trkpt>
      <trkpt lat="48.41149" lon="2.46524">
        <ele>64</ele>
        <time>2020-02-12T13:56:15Z</time>
      </trkpt>
      <trkpt lat="48.41148" lon="2.46562">
        <ele>65</ele>
        <time>2020-02-12T13:56:20Z</time>
      </trkpt>
      <trkpt lat="48.41141" lon="2.4657">
        <ele>65</ele>
        <time>2020-02-12T13:56:21Z</time>
      </trkpt>
      <trkpt lat="48.41131" lon="2.46596">
        <ele>66</ele>
        <time>2020-02-12T13:56:25Z</time>
      </trkpt>
      <trkpt lat="48.41131" lon="2.46627">
        <ele>66</ele>
        <time>2020-02-12T13:56:29Z</time>
      </trkpt>
      <trkpt lat="48.41134" lon="2.4664">
        <ele>66</ele>
        <time>2020-02-12T13:56:30Z</time>
      </trkpt>
      <trkpt lat="48.4114" lon="2.46652">
        <ele>66</ele>
        <time>2020-02-12T13:56:32Z</time>
      </trkpt>
      <trkpt lat="48.41156" lon="2.46669">
        <ele>66</ele>
        <time>2020-02-12T13:56:36Z</time>
      </trkpt>
      <trkpt lat="48.41164" lon="2.46682">
        <ele>66</ele>
        <time>2020-02-12T13:56:38Z</time>
      </trkpt>
      <trkpt lat="48.41169" lon="2.46699">
        <ele>66</ele>
        <time>2020-02-12T13:56:40Z</time>
      </trkpt>
      <trkpt lat="48.41174" lon="2.46742">
        <ele>66</ele>
        <time>2020-02-12T13:56:45Z</time>
      </trkpt>
      <trkpt lat="48.41171" lon="2.46814">
        <ele>67</ele>
        <time>2020-02-12T13:56:53Z</time>
      </trkpt>
      <trkpt lat="48.41167" lon="2.46849">
        <ele>67</ele>
        <time>2020-02-12T13:56:58Z</time>
      </trkpt>
      <trkpt lat="48.41156" lon="2.46918">
        <ele>69</ele>
        <time>2020-02-12T13:57:06Z</time>
      </trkpt>
      <trkpt lat="48.41144" lon="2.46973">
        <ele>67</ele>
        <time>2020-02-12T13:57:13Z</time>
      </trkpt>
      <trkpt lat="48.41119" lon="2.47049">
        <ele>67</ele>
        <time>2020-02-12T13:57:23Z</time>
      </trkpt>
      <trkpt lat="48.41094" lon="2.47111">
        <ele>67</ele>
        <time>2020-02-12T13:57:31Z</time>
      </trkpt>
      <trkpt lat="48.41056" lon="2.47183">
        <ele>67</ele>
        <time>2020-02-12T13:57:42Z</time>
      </trkpt>
      <trkpt lat="48.41027" lon="2.47226">
        <ele>68</ele>
        <time>2020-02-12T13:57:50Z</time>
      </trkpt>
      <trkpt lat="48.41002" lon="2.47257">
        <ele>68</ele>
        <time>2020-02-12T13:57:55Z</time>
      </trkpt>
      <trkpt lat="48.40953" lon="2.4731">
        <ele>69</ele>
        <time>2020-02-12T13:58:06Z</time>
      </trkpt>
      <trkpt lat="48.40876" lon="2.4738">
        <ele>69</ele>
        <time>2020-02-12T13:58:22Z</time>
      </trkpt>
      <trkpt lat="48.40827" lon="2.47416">
        <ele>68</ele>
        <time>2020-02-12T13:58:32Z</time>
      </trkpt>
      <trkpt lat="48.4078" lon="2.47446">
        <ele>69</ele>
        <time>2020-02-12T13:58:41Z</time>
      </trkpt>
      <trkpt lat="48.40665" lon="2.47508">
        <ele>68</ele>
        <time>2020-02-12T13:59:03Z</time>
      </trkpt>
      <trkpt lat="48.40604" lon="2.47546">
        <ele>68</ele>
        <time>2020-02-12T13:59:14Z</time>
      </trkpt>
      <trkpt lat="48.4056" lon="2.4758">
        <ele>67</ele>
        <time>2020-02-12T13:59:23Z</time>
      </trkpt>
      <trkpt lat="48.40506" lon="2.47628">
        <ele>67</ele>
        <time>2020-02-12T13:59:34Z</time>
      </trkpt>
      <trkpt lat="48.40393" lon="2.47749">
        <ele>68</ele>
        <time>2020-02-12T13:59:59Z</time>
      </trkpt>
      <trkpt lat="48.40353" lon="2.47787">
        <ele>68</ele>
        <time>2020-02-12T14:00:07Z</time>
      </trkpt>
      <trkpt lat="48.40313" lon="2.4782">
        <ele>68</ele>
        <time>2020-02-12T14:00:16Z</time>
      </trkpt>
      <trkpt lat="48.40219" lon="2.4788">
        <ele>68</ele>
        <time>2020-02-12T14:00:34Z</time>
      </trkpt>
      <trkpt lat="48.40208" lon="2.47937">
        <ele>67</ele>
        <time>2020-02-12T14:00:41Z</time>
      </trkpt>
      <trkpt lat="48.40168" lon="2.48248">
        <ele>72</ele>
        <time>2020-02-12T14:01:18Z</time>
      </trkpt>
      <trkpt lat="48.40094" lon="2.48686">
        <ele>73</ele>
        <time>2020-02-12T14:02:11Z</time>
      </trkpt>
      <trkpt lat="48.40089" lon="2.48729">
        <ele>74</ele>
        <time>2020-02-12T14:02:17Z</time>
      </trkpt>
      <trkpt lat="48.40086" lon="2.48783">
        <ele>75</ele>
        <time>2020-02-12T14:02:23Z</time>
      </trkpt>
      <trkpt lat="48.40084" lon="2.48957">
        <ele>78</ele>
        <time>2020-02-12T14:02:44Z</time>
      </trkpt>
      <trkpt lat="48.40084" lon="2.49248">
        <ele>77</ele>
        <time>2020-02-12T14:03:18Z</time>
      </trkpt>
      <trkpt lat="48.40091" lon="2.49324">
        <ele>76</ele>
        <time>2020-02-12T14:03:27Z</time>
      </trkpt>
      <trkpt lat="48.40193" lon="2.49838">
        <ele>73</ele>
        <time>2020-02-12T14:04:30Z</time>
      </trkpt>
      <trkpt lat="48.40246" lon="2.50043">
        <ele>73</ele>
        <time>2020-02-12T14:04:56Z</time>
      </trkpt>
      <trkpt lat="48.40261" lon="2.50091">
        <ele>72</ele>
        <time>2020-02-12T14:05:03Z</time>
      </trkpt>
      <trkpt lat="48.40421" lon="2.50465">
        <ele>72</ele>
        <time>2020-02-12T14:05:55Z</time>
      </trkpt>
      <trkpt lat="48.40431" lon="2.50492">
        <ele>72</ele>
        <time>2020-02-12T14:05:59Z</time>
      </trkpt>
      <trkpt lat="48.40446" lon="2.5055">
        <ele>74</ele>
        <time>2020-02-12T14:06:06Z</time>
      </trkpt>
      <trkpt lat="48.40462" lon="2.50665">
        <ele>77</ele>
        <time>2020-02-12T14:06:20Z</time>
      </trkpt>
      <trkpt lat="48.40488" lon="2.50889">
        <ele>75</ele>
        <time>2020-02-12T14:06:47Z</time>
      </trkpt>
      <trkpt lat="48.40542" lon="2.5145">
        <ele>76</ele>
        <time>2020-02-12T14:07:54Z</time>
      </trkpt>
      <trkpt lat="48.40561" lon="2.51613">
        <ele>74</ele>
        <time>2020-02-12T14:08:13Z</time>
      </trkpt>
      <trkpt lat="48.40564" lon="2.51681">
        <ele>73</ele>
        <time>2020-02-12T14:08:22Z</time>
      </trkpt>
      <trkpt lat="48.40562" lon="2.51746">
        <ele>74</ele>
        <time>2020-02-12T14:08:29Z</time>
      </trkpt>
      <trkpt lat="48.40555" lon="2.51814">
        <ele>75</ele>
        <time>2020-02-12T14:08:37Z</time>
      </trkpt>
      <trkpt lat="48.40463" lon="2.52396">
        <ele>81</ele>
        <time>2020-02-12T14:09:48Z</time>
      </trkpt>
      <trkpt lat="48.40433" lon="2.5261">
        <ele>82</ele>
        <time>2020-02-12T14:10:14Z</time>
      </trkpt>
      <trkpt lat="48.40432" lon="2.52661">
        <ele>84</ele>
        <time>2020-02-12T14:10:20Z</time>
      </trkpt>
      <trkpt lat="48.40449" lon="2.52947">
        <ele>86</ele>
        <time>2020-02-12T14:10:54Z</time>
      </trkpt>
      <trkpt lat="48.4045" lon="2.53051">
        <ele>88</ele>
        <time>2020-02-12T14:11:06Z</time>
      </trkpt>
      <trkpt lat="48.40444" lon="2.53153">
        <ele>91</ele>
        <time>2020-02-12T14:11:18Z</time>
      </trkpt>
      <trkpt lat="48.40431" lon="2.53307">
        <ele>93</ele>
        <time>2020-02-12T14:11:37Z</time>
      </trkpt>
      <trkpt lat="48.40428" lon="2.53375">
        <ele>94</ele>
        <time>2020-02-12T14:11:45Z</time>
      </trkpt>
      <trkpt lat="48.40419" lon="2.5347">
        <ele>97</ele>
        <time>2020-02-12T14:11:56Z</time>
      </trkpt>
      <trkpt lat="48.40385" lon="2.53642">
        <ele>99</ele>
        <time>2020-02-12T14:12:17Z</time>
      </trkpt>
      <trkpt lat="48.40204" lon="2.54488">
        <ele>81</ele>
        <time>2020-02-12T14:14:02Z</time>
      </trkpt>
      <trkpt lat="48.40177" lon="2.54606">
        <ele>82</ele>
        <time>2020-02-12T14:14:17Z</time>
      </trkpt>
      <trkpt lat="48.40125" lon="2.54857">
        <ele>81</ele>
        <time>2020-02-12T14:14:48Z</time>
      </trkpt>
      <trkpt lat="48.40114" lon="2.54925">
        <ele>81</ele>
        <time>2020-02-12T14:14:56Z</time>
      </trkpt>
      <trkpt lat="48.40108" lon="2.54983">
        <ele>79</ele>
        <time>2020-02-12T14:15:03Z</time>
      </trkpt>
      <trkpt lat="48.40107" lon="2.55037">
        <ele>79</ele>
        <time>2020-02-12T14:15:09Z</time>
      </trkpt>
      <trkpt lat="48.40109" lon="2.55083">
        <ele>79</ele>
        <time>2020-02-12T14:15:15Z</time>
      </trkpt>
      <trkpt lat="48.40116" lon="2.55135">
        <ele>79</ele>
        <time>2020-02-12T14:15:21Z</time>
      </trkpt>
      <trkpt lat="48.40132" lon="2.5522">
        <ele>80</ele>
        <time>2020-02-12T14:15:32Z</time>
      </trkpt>
      <trkpt lat="48.40154" lon="2.55289">
        <ele>80</ele>
        <time>2020-02-12T14:15:41Z</time>
      </trkpt>
      <trkpt lat="48.40281" lon="2.5559">
        <ele>76</ele>
        <time>2020-02-12T14:16:23Z</time>
      </trkpt>
      <trkpt lat="48.40309" lon="2.55646">
        <ele>77</ele>
        <time>2020-02-12T14:16:31Z</time>
      </trkpt>
      <trkpt lat="48.4034" lon="2.55699">
        <ele>77</ele>
        <time>2020-02-12T14:16:39Z</time>
      </trkpt>
      <trkpt lat="48.40381" lon="2.55751">
        <ele>77</ele>
        <time>2020-02-12T14:16:49Z</time>
      </trkpt>
      <trkpt lat="48.40416" lon="2.55789">
        <ele>78</ele>
        <time>2020-02-12T14:16:57Z</time>
      </trkpt>
      <trkpt lat="48.40893" lon="2.56273">
        <ele>76</ele>
        <time>2020-02-12T14:18:39Z</time>
      </trkpt>
      <trkpt lat="48.40902" lon="2.56286">
        <ele>75</ele>
        <time>2020-02-12T14:18:41Z</time>
      </trkpt>
      <trkpt lat="48.40904" lon="2.56293">
        <ele>75</ele>
        <time>2020-02-12T14:18:42Z</time>
      </trkpt>
      <trkpt lat="48.40899" lon="2.56302">
        <ele>76</ele>
        <time>2020-02-12T14:18:43Z</time>
      </trkpt>
      <trkpt lat="48.40898" lon="2.56314">
        <ele>75</ele>
        <time>2020-02-12T14:18:45Z</time>
      </trkpt>
      <trkpt lat="48.40885" lon="2.56312">
        <ele>76</ele>
        <time>2020-02-12T14:18:47Z</time>
      </trkpt>
      <trkpt lat="48.40871" lon="2.56306">
        <ele>76</ele>
        <time>2020-02-12T14:18:50Z</time>
      </trkpt>
      <trkpt lat="48.40792" lon="2.56255">
        <ele>77</ele>
        <time>2020-02-12T14:19:05Z</time>
      </trkpt>
      <trkpt lat="48.40759" lon="2.56239">
        <ele>77</ele>
        <time>2020-02-12T14:19:11Z</time>
      </trkpt>
      <trkpt lat="48.40275" lon="2.56064">
        <ele>74</ele>
        <time>2020-02-12T14:20:40Z</time>
      </trkpt>
      <trkpt lat="48.39913" lon="2.55937">
        <ele>75</ele>
        <time>2020-02-12T14:21:46Z</time>
      </trkpt>
      <trkpt lat="48.39874" lon="2.55912">
        <ele>75</ele>
        <time>2020-02-12T14:21:54Z</time>
      </trkpt>
      <trkpt lat="48.39804" lon="2.55846">
        <ele>77</ele>
        <time>2020-02-12T14:22:08Z</time>
      </trkpt>
      <trkpt lat="48.39774" lon="2.55822">
        <ele>77</ele>
        <time>2020-02-12T14:22:14Z</time>
      </trkpt>
      <trkpt lat="48.39613" lon="2.55718">
        <ele>78</ele>
        <time>2020-02-12T14:22:45Z</time>
      </trkpt>
      <trkpt lat="48.39517" lon="2.55652">
        <ele>78</ele>
        <time>2020-02-12T14:23:04Z</time>
      </trkpt>
      <trkpt lat="48.39397" lon="2.55535">
        <ele>79</ele>
        <time>2020-02-12T14:23:30Z</time>
      </trkpt>
      <trkpt lat="48.39373" lon="2.55523">
        <ele>78</ele>
        <time>2020-02-12T14:23:34Z</time>
      </trkpt>
      <trkpt lat="48.39346" lon="2.55517">
        <ele>78</ele>
        <time>2020-02-12T14:23:39Z</time>
      </trkpt>
      <trkpt lat="48.39324" lon="2.55518">
        <ele>78</ele>
        <time>2020-02-12T14:23:43Z</time>
      </trkpt>
      <trkpt lat="48.39287" lon="2.5553">
        <ele>77</ele>
        <time>2020-02-12T14:23:50Z</time>
      </trkpt>
      <trkpt lat="48.3927" lon="2.5554">
        <ele>77</ele>
        <time>2020-02-12T14:23:53Z</time>
      </trkpt>
      <trkpt lat="48.39236" lon="2.55572">
        <ele>77</ele>
        <time>2020-02-12T14:24:00Z</time>
      </trkpt>
      <trkpt lat="48.38797" lon="2.56112">
        <ele>78</ele>
        <time>2020-02-12T14:25:41Z</time>
      </trkpt>
      <trkpt lat="48.38763" lon="2.56153">
        <ele>79</ele>
        <time>2020-02-12T14:25:49Z</time>
      </trkpt>
      <trkpt lat="48.38745" lon="2.56171">
        <ele>79</ele>
        <time>2020-02-12T14:25:52Z</time>
      </trkpt>
      <trkpt lat="48.38706" lon="2.56204">
        <ele>81</ele>
        <time>2020-02-12T14:26:00Z</time>
      </trkpt>
      <trkpt lat="48.38652" lon="2.56235">
        <ele>82</ele>
        <time>2020-02-12T14:26:11Z</time>
      </trkpt>
      <trkpt lat="48.38638" lon="2.56237">
        <ele>83</ele>
        <time>2020-02-12T14:26:13Z</time>
      </trkpt>
      <trkpt lat="48.38603" lon="2.56228">
        <ele>86</ele>
        <time>2020-02-12T14:26:20Z</time>
      </trkpt>
      <trkpt lat="48.38592" lon="2.56231">
        <ele>86</ele>
        <time>2020-02-12T14:26:22Z</time>
      </trkpt>
      <trkpt lat="48.38582" lon="2.56238">
        <ele>87</ele>
        <time>2020-02-12T14:26:23Z</time>
      </trkpt>
      <trkpt lat="48.38574" lon="2.56248">
        <ele>87</ele>
        <time>2020-02-12T14:26:25Z</time>
      </trkpt>
      <trkpt lat="48.38555" lon="2.56286">
        <ele>89</ele>
        <time>2020-02-12T14:26:31Z</time>
      </trkpt>
      <trkpt lat="48.38549" lon="2.56293">
        <ele>89</ele>
        <time>2020-02-12T14:26:32Z</time>
      </trkpt>
      <trkpt lat="48.38543" lon="2.56297">
        <ele>90</ele>
        <time>2020-02-12T14:26:33Z</time>
      </trkpt>
      <trkpt lat="48.38512" lon="2.56303">
        <ele>93</ele>
        <time>2020-02-12T14:26:39Z</time>
      </trkpt>
      <trkpt lat="48.38501" lon="2.56315">
        <ele>94</ele>
        <time>2020-02-12T14:26:41Z</time>
      </trkpt>
      <trkpt lat="48.38478" lon="2.56357">
        <ele>96</ele>
        <time>2020-02-12T14:26:48Z</time>
      </trkpt>
      <trkpt lat="48.38466" lon="2.56365">
        <ele>97</ele>
        <time>2020-02-12T14:26:50Z</time>
      </trkpt>
      <trkpt lat="48.38449" lon="2.56369">
        <ele>99</ele>
        <time>2020-02-12T14:26:53Z</time>
      </trkpt>
      <trkpt lat="48.38434" lon="2.56381">
        <ele>101</ele>
        <time>2020-02-12T14:26:56Z</time>
      </trkpt>
      <trkpt lat="48.38426" lon="2.56391">
        <ele>101</ele>
        <time>2020-02-12T14:26:58Z</time>
      </trkpt>
      <trkpt lat="48.38412" lon="2.56418">
        <ele>101</ele>
        <time>2020-02-12T14:27:02Z</time>
      </trkpt>
      <trkpt lat="48.38397" lon="2.56461">
        <ele>102</ele>
        <time>2020-02-12T14:27:08Z</time>
      </trkpt>
      <trkpt lat="48.38385" lon="2.56486">
        <ele>102</ele>
        <time>2020-02-12T14:27:12Z</time>
      </trkpt>
      <trkpt lat="48.38373" lon="2.56496">
        <ele>103</ele>
        <time>2020-02-12T14:27:14Z</time>
      </trkpt>
      <trkpt lat="48.38341" lon="2.56506">
        <ele>107</ele>
        <time>2020-02-12T14:27:20Z</time>
      </trkpt>
      <trkpt lat="48.38327" lon="2.56518">
        <ele>108</ele>
        <time>2020-02-12T14:27:23Z</time>
      </trkpt>
      <trkpt lat="48.38315" lon="2.56534">
        <ele>108</ele>
        <time>2020-02-12T14:27:26Z</time>
      </trkpt>
      <trkpt lat="48.38303" lon="2.56545">
        <ele>108</ele>
        <time>2020-02-12T14:27:28Z</time>
      </trkpt>
      <trkpt lat="48.38286" lon="2.56552">
        <ele>110</ele>
        <time>2020-02-12T14:27:31Z</time>
      </trkpt>
      <trkpt lat="48.38249" lon="2.56545">
        <ele>113</ele>
        <time>2020-02-12T14:27:38Z</time>
      </trkpt>
      <trkpt lat="48.38239" lon="2.56547">
        <ele>113</ele>
        <time>2020-02-12T14:27:40Z</time>
      </trkpt>
      <trkpt lat="48.38213" lon="2.56558">
        <ele>115</ele>
        <time>2020-02-12T14:27:44Z</time>
      </trkpt>
      <trkpt lat="48.38161" lon="2.56561">
        <ele>117</ele>
        <time>2020-02-12T14:27:54Z</time>
      </trkpt>
      <trkpt lat="48.38071" lon="2.56579">
        <ele>116</ele>
        <time>2020-02-12T14:28:10Z</time>
      </trkpt>
      <trkpt lat="48.38063" lon="2.56579">
        <ele>117</ele>
        <time>2020-02-12T14:28:11Z</time>
      </trkpt>
      <trkpt lat="48.38048" lon="2.56573">
        <ele>119</ele>
        <time>2020-02-12T14:28:14Z</time>
      </trkpt>
      <trkpt lat="48.38038" lon="2.56562">
        <ele>120</ele>
        <time>2020-02-12T14:28:16Z</time>
      </trkpt>
      <trkpt lat="48.38036" lon="2.56554">
        <ele>120</ele>
        <time>2020-02-12T14:28:17Z</time>
      </trkpt>
      <trkpt lat="48.38034" lon="2.56537">
        <ele>121</ele>
        <time>2020-02-12T14:28:19Z</time>
      </trkpt>
      <trkpt lat="48.38034" lon="2.56454">
        <ele>123</ele>
        <time>2020-02-12T14:28:29Z</time>
      </trkpt>
      <trkpt lat="48.38031" lon="2.5644">
        <ele>124</ele>
        <time>2020-02-12T14:28:31Z</time>
      </trkpt>
      <trkpt lat="48.3802" lon="2.56422">
        <ele>125</ele>
        <time>2020-02-12T14:28:34Z</time>
      </trkpt>
      <trkpt lat="48.37973" lon="2.56398">
        <ele>126</ele>
        <time>2020-02-12T14:28:43Z</time>
      </trkpt>
      <trkpt lat="48.37937" lon="2.56385">
        <ele>124</ele>
        <time>2020-02-12T14:28:49Z</time>
      </trkpt>
      <trkpt lat="48.37909" lon="2.56382">
        <ele>123</ele>
        <time>2020-02-12T14:28:54Z</time>
      </trkpt>
      <trkpt lat="48.37846" lon="2.56392">
        <ele>120</ele>
        <time>2020-02-12T14:29:05Z</time>
      </trkpt>
      <trkpt lat="48.37824" lon="2.56386">
        <ele>119</ele>
        <time>2020-02-12T14:29:09Z</time>
      </trkpt>
      <trkpt lat="48.37802" lon="2.56373">
        <ele>119</ele>
        <time>2020-02-12T14:29:14Z</time>
      </trkpt>
      <trkpt lat="48.37731" lon="2.56312">
        <ele>120</ele>
        <time>2020-02-12T14:29:28Z</time>
      </trkpt>
      <trkpt lat="48.37705" lon="2.56283">
        <ele>120</ele>
        <time>2020-02-12T14:29:34Z</time>
      </trkpt>
      <trkpt lat="48.3767" lon="2.5623">
        <ele>119</ele>
        <time>2020-02-12T14:29:43Z</time>
      </trkpt>
      <trkpt lat="48.37621" lon="2.56137">
        <ele>121</ele>
        <time>2020-02-12T14:29:57Z</time>
      </trkpt>
      <trkpt lat="48.37598" lon="2.56103">
        <ele>122</ele>
        <time>2020-02-12T14:30:02Z</time>
      </trkpt>
      <trkpt lat="48.37566" lon="2.56075">
        <ele>123</ele>
        <time>2020-02-12T14:30:09Z</time>
      </trkpt>
      <trkpt lat="48.37534" lon="2.56062">
        <ele>123</ele>
        <time>2020-02-12T14:30:15Z</time>
      </trkpt>
      <trkpt lat="48.37497" lon="2.56062">
        <ele>123</ele>
        <time>2020-02-12T14:30:22Z</time>
      </trkpt>
      <trkpt lat="48.37406" lon="2.56086">
        <ele>123</ele>
        <time>2020-02-12T14:30:38Z</time>
      </trkpt>
      <trkpt lat="48.37368" lon="2.56091">
        <ele>124</ele>
        <time>2020-02-12T14:30:45Z</time>
      </trkpt>
      <trkpt lat="48.37335" lon="2.56088">
        <ele>125</ele>
        <time>2020-02-12T14:30:51Z</time>
      </trkpt>
      <trkpt lat="48.37199" lon="2.56055">
        <ele>121</ele>
        <time>2020-02-12T14:31:15Z</time>
      </trkpt>
      <trkpt lat="48.37167" lon="2.56051">
        <ele>121</ele>
        <time>2020-02-12T14:31:21Z</time>
      </trkpt>
      <trkpt lat="48.37145" lon="2.56055">
        <ele>121</ele>
        <time>2020-02-12T14:31:25Z</time>
      </trkpt>
      <trkpt lat="48.37124" lon="2.56065">
        <ele>121</ele>
        <time>2020-02-12T14:31:29Z</time>
      </trkpt>
      <trkpt lat="48.37102" lon="2.56084">
        <ele>121</ele>
        <time>2020-02-12T14:31:33Z</time>
      </trkpt>
      <trkpt lat="48.37078" lon="2.5612">
        <ele>121</ele>
        <time>2020-02-12T14:31:39Z</time>
      </trkpt>
      <trkpt lat="48.3701" lon="2.56245">
        <ele>124</ele>
        <time>2020-02-12T14:31:58Z</time>
      </trkpt>
      <trkpt lat="48.36989" lon="2.5627">
        <ele>124</ele>
        <time>2020-02-12T14:32:03Z</time>
      </trkpt>
      <trkpt lat="48.36965" lon="2.5629">
        <ele>124</ele>
        <time>2020-02-12T14:32:08Z</time>
      </trkpt>
      <trkpt lat="48.3692" lon="2.56314">
        <ele>125</ele>
        <time>2020-02-12T14:32:17Z</time>
      </trkpt>
      <trkpt lat="48.36521" lon="2.5648">
        <ele>122</ele>
        <time>2020-02-12T14:33:30Z</time>
      </trkpt>
      <trkpt lat="48.36425" lon="2.56518">
        <ele>118</ele>
        <time>2020-02-12T14:33:48Z</time>
      </trkpt>
      <trkpt lat="48.36393" lon="2.56525">
        <ele>117</ele>
        <time>2020-02-12T14:33:54Z</time>
      </trkpt>
      <trkpt lat="48.36359" lon="2.56527">
        <ele>115</ele>
        <time>2020-02-12T14:34:00Z</time>
      </trkpt>
      <trkpt lat="48.36323" lon="2.56524">
        <ele>114</ele>
        <time>2020-02-12T14:34:06Z</time>
      </trkpt>
      <trkpt lat="48.36292" lon="2.56517">
        <ele>113</ele>
        <time>2020-02-12T14:34:12Z</time>
      </trkpt>
      <trkpt lat="48.36265" lon="2.56506">
        <ele>113</ele>
        <time>2020-02-12T14:34:17Z</time>
      </trkpt>
      <trkpt lat="48.36203" lon="2.56471">
        <ele>113</ele>
        <time>2020-02-12T14:34:28Z</time>
      </trkpt>
      <trkpt lat="48.3605" lon="2.56373">
        <ele>115</ele>
        <time>2020-02-12T14:34:58Z</time>
      </trkpt>
      <trkpt lat="48.35989" lon="2.56337">
        <ele>115</ele>
        <time>2020-02-12T14:35:10Z</time>
      </trkpt>
      <trkpt lat="48.35911" lon="2.563">
        <ele>116</ele>
        <time>2020-02-12T14:35:24Z</time>
      </trkpt>
      <trkpt lat="48.35867" lon="2.56282">
        <ele>117</ele>
        <time>2020-02-12T14:35:32Z</time>
      </trkpt>
      <trkpt lat="48.35819" lon="2.56266">
        <ele>117</ele>
        <time>2020-02-12T14:35:41Z</time>
      </trkpt>
      <trkpt lat="48.35746" lon="2.56248">
        <ele>120</ele>
        <time>2020-02-12T14:35:54Z</time>
      </trkpt>
      <trkpt lat="48.3573" lon="2.56248">
        <ele>120</ele>
        <time>2020-02-12T14:35:57Z</time>
      </trkpt>
      <trkpt lat="48.35719" lon="2.56251">
        <ele>120</ele>
        <time>2020-02-12T14:35:59Z</time>
      </trkpt>
      <trkpt lat="48.35708" lon="2.56256">
        <ele>120</ele>
        <time>2020-02-12T14:36:01Z</time>
      </trkpt>
      <trkpt lat="48.35683" lon="2.56275">
        <ele>120</ele>
        <time>2020-02-12T14:36:06Z</time>
      </trkpt>
      <trkpt lat="48.35691" lon="2.55921">
        <ele>117</ele>
        <time>2020-02-12T14:36:48Z</time>
      </trkpt>
      <trkpt lat="48.35685" lon="2.55839">
        <ele>117</ele>
        <time>2020-02-12T14:36:58Z</time>
      </trkpt>
      <trkpt lat="48.35668" lon="2.55739">
        <ele>119</ele>
        <time>2020-02-12T14:37:10Z</time>
      </trkpt>
      <trkpt lat="48.35664" lon="2.55661">
        <ele>120</ele>
        <time>2020-02-12T14:37:19Z</time>
      </trkpt>
      <trkpt lat="48.35638" lon="2.55003">
        <ele>93</ele>
        <time>2020-02-12T14:38:37Z</time>
      </trkpt>
      <trkpt lat="48.35631" lon="2.5474">
        <ele>86</ele>
        <time>2020-02-12T14:39:08Z</time>
      </trkpt>
      <trkpt lat="48.35633" lon="2.54711">
        <ele>85</ele>
        <time>2020-02-12T14:39:12Z</time>
      </trkpt>
      <trkpt lat="48.35648" lon="2.54625">
        <ele>83</ele>
        <time>2020-02-12T14:39:22Z</time>
      </trkpt>
      <trkpt lat="48.35881" lon="2.53555">
        <ele>74</ele>
        <time>2020-02-12T14:41:35Z</time>
      </trkpt>
      <trkpt lat="48.35897" lon="2.53467">
        <ele>75</ele>
        <time>2020-02-12T14:41:46Z</time>
      </trkpt>
      <trkpt lat="48.35904" lon="2.53342">
        <ele>73</ele>
        <time>2020-02-12T14:42:01Z</time>
      </trkpt>
      <trkpt lat="48.35928" lon="2.52198">
        <ele>69</ele>
        <time>2020-02-12T14:44:16Z</time>
      </trkpt>
      <trkpt lat="48.35934" lon="2.52094">
        <ele>69</ele>
        <time>2020-02-12T14:44:29Z</time>
      </trkpt>
      <trkpt lat="48.35949" lon="2.51976">
        <ele>69</ele>
        <time>2020-02-12T14:44:43Z</time>
      </trkpt>
      <trkpt lat="48.3593" lon="2.51967">
        <ele>69</ele>
        <time>2020-02-12T14:44:46Z</time>
      </trkpt>
      <trkpt lat="48.35913" lon="2.51963">
        <ele>69</ele>
        <time>2020-02-12T14:44:49Z</time>
      </trkpt>
      <trkpt lat="48.35671" lon="2.51923">
        <ele>71</ele>
        <time>2020-02-12T14:45:33Z</time>
      </trkpt>
      <trkpt lat="48.35614" lon="2.51915">
        <ele>71</ele>
        <time>2020-02-12T14:45:43Z</time>
      </trkpt>
      <trkpt lat="48.35577" lon="2.51913">
        <ele>71</ele>
        <time>2020-02-12T14:45:49Z</time>
      </trkpt>
      <trkpt lat="48.35563" lon="2.51915">
        <ele>71</ele>
        <time>2020-02-12T14:45:52Z</time>
      </trkpt>
      <trkpt lat="48.35529" lon="2.51927">
        <ele>72</ele>
        <time>2020-02-12T14:45:58Z</time>
      </trkpt>
      <trkpt lat="48.35373" lon="2.52009">
        <ele>71</ele>
        <time>2020-02-12T14:46:28Z</time>
      </trkpt>
      <trkpt lat="48.3531" lon="2.52034">
        <ele>71</ele>
        <time>2020-02-12T14:46:39Z</time>
      </trkpt>
      <trkpt lat="48.35284" lon="2.5204">
        <ele>71</ele>
        <time>2020-02-12T14:46:44Z</time>
      </trkpt>
      <trkpt lat="48.35191" lon="2.52054">
        <ele>72</ele>
        <time>2020-02-12T14:47:01Z</time>
      </trkpt>
      <trkpt lat="48.35157" lon="2.52062">
        <ele>72</ele>
        <time>2020-02-12T14:47:07Z</time>
      </trkpt>
      <trkpt lat="48.35141" lon="2.52069">
        <ele>72</ele>
        <time>2020-02-12T14:47:10Z</time>
      </trkpt>
      <trkpt lat="48.35087" lon="2.52102">
        <ele>72</ele>
        <time>2020-02-12T14:47:20Z</time>
      </trkpt>
      <trkpt lat="48.35017" lon="2.52156">
        <ele>72</ele>
        <time>2020-02-12T14:47:34Z</time>
      </trkpt>
      <trkpt lat="48.34998" lon="2.52164">
        <ele>72</ele>
        <time>2020-02-12T14:47:37Z</time>
      </trkpt>
      <trkpt lat="48.34966" lon="2.52171">
        <ele>72</ele>
        <time>2020-02-12T14:47:43Z</time>
      </trkpt>
      <trkpt lat="48.34875" lon="2.52169">
        <ele>76</ele>
        <time>2020-02-12T14:47:59Z</time>
      </trkpt>
      <trkpt lat="48.34806" lon="2.52169">
        <ele>79</ele>
        <time>2020-02-12T14:48:12Z</time>
      </trkpt>
      <trkpt lat="48.34787" lon="2.52171">
        <ele>81</ele>
        <time>2020-02-12T14:48:15Z</time>
      </trkpt>
      <trkpt lat="48.34754" lon="2.52186">
        <ele>84</ele>
        <time>2020-02-12T14:48:21Z</time>
      </trkpt>
      <trkpt lat="48.34737" lon="2.52199">
        <ele>86</ele>
        <time>2020-02-12T14:48:25Z</time>
      </trkpt>
      <trkpt lat="48.34709" lon="2.52234">
        <ele>88</ele>
        <time>2020-02-12T14:48:31Z</time>
      </trkpt>
      <trkpt lat="48.34692" lon="2.52267">
        <ele>89</ele>
        <time>2020-02-12T14:48:36Z</time>
      </trkpt>
      <trkpt lat="48.34613" lon="2.52469">
        <ele>95</ele>
        <time>2020-02-12T14:49:04Z</time>
      </trkpt>
      <trkpt lat="48.34586" lon="2.52529">
        <ele>98</ele>
        <time>2020-02-12T14:49:12Z</time>
      </trkpt>
      <trkpt lat="48.34568" lon="2.52544">
        <ele>99</ele>
        <time>2020-02-12T14:49:16Z</time>
      </trkpt>
      <trkpt lat="48.34546" lon="2.52553">
        <ele>100</ele>
        <time>2020-02-12T14:49:20Z</time>
      </trkpt>
      <trkpt lat="48.34489" lon="2.52574">
        <ele>102</ele>
        <time>2020-02-12T14:49:30Z</time>
      </trkpt>
      <trkpt lat="48.34424" lon="2.52588">
        <ele>103</ele>
        <time>2020-02-12T14:49:42Z</time>
      </trkpt>
      <trkpt lat="48.3441" lon="2.52597">
        <ele>104</ele>
        <time>2020-02-12T14:49:45Z</time>
      </trkpt>
      <trkpt lat="48.34398" lon="2.52619">
        <ele>104</ele>
        <time>2020-02-12T14:49:48Z</time>
      </trkpt>
      <trkpt lat="48.3439" lon="2.52647">
        <ele>106</ele>
        <time>2020-02-12T14:49:52Z</time>
      </trkpt>
      <trkpt lat="48.34369" lon="2.52767">
        <ele>110</ele>
        <time>2020-02-12T14:50:07Z</time>
      </trkpt>
      <trkpt lat="48.34352" lon="2.52819">
        <ele>112</ele>
        <time>2020-02-12T14:50:13Z</time>
      </trkpt>
      <trkpt lat="48.34343" lon="2.52836">
        <ele>112</ele>
        <time>2020-02-12T14:50:16Z</time>
      </trkpt>
      <trkpt lat="48.3409" lon="2.532">
        <ele>111</ele>
        <time>2020-02-12T14:51:18Z</time>
      </trkpt>
      <trkpt lat="48.33939" lon="2.53393">
        <ele>111</ele>
        <time>2020-02-12T14:51:53Z</time>
      </trkpt>
      <trkpt lat="48.33922" lon="2.5342">
        <ele>112</ele>
        <time>2020-02-12T14:51:58Z</time>
      </trkpt>
      <trkpt lat="48.33907" lon="2.53448">
        <ele>112</ele>
        <time>2020-02-12T14:52:02Z</time>
      </trkpt>
      <trkpt lat="48.33891" lon="2.53489">
        <ele>112</ele>
        <time>2020-02-12T14:52:08Z</time>
      </trkpt>
      <trkpt lat="48.33705" lon="2.54008">
        <ele>117</ele>
        <time>2020-02-12T14:53:17Z</time>
      </trkpt>
      <trkpt lat="48.33676" lon="2.5408">
        <ele>117</ele>
        <time>2020-02-12T14:53:27Z</time>
      </trkpt>
      <trkpt lat="48.33576" lon="2.54293">
        <ele>113</ele>
        <time>2020-02-12T14:53:58Z</time>
      </trkpt>
      <trkpt lat="48.3355" lon="2.54372">
        <ele>112</ele>
        <time>2020-02-12T14:54:09Z</time>
      </trkpt>
      <trkpt lat="48.33537" lon="2.54404">
        <ele>111</ele>
        <time>2020-02-12T14:54:13Z</time>
      </trkpt>
      <trkpt lat="48.33501" lon="2.54474">
        <ele>112</ele>
        <time>2020-02-12T14:54:24Z</time>
      </trkpt>
      <trkpt lat="48.33478" lon="2.54506">
        <ele>112</ele>
        <time>2020-02-12T14:54:29Z</time>
      </trkpt>
      <trkpt lat="48.3345" lon="2.54538">
        <ele>113</ele>
        <time>2020-02-12T14:54:35Z</time>
      </trkpt>
      <trkpt lat="48.33407" lon="2.54576">
        <ele>114</ele>
        <time>2020-02-12T14:54:44Z</time>
      </trkpt>
      <trkpt lat="48.33225" lon="2.54711">
        <ele>115</ele>
        <time>2020-02-12T14:55:20Z</time>
      </trkpt>
      <trkpt lat="48.33187" lon="2.54743">
        <ele>115</ele>
        <time>2020-02-12T14:55:28Z</time>
      </trkpt>
      <trkpt lat="48.33155" lon="2.54777">
        <ele>116</ele>
        <time>2020-02-12T14:55:35Z</time>
      </trkpt>
      <trkpt lat="48.33123" lon="2.54817">
        <ele>117</ele>
        <time>2020-02-12T14:55:43Z</time>
      </trkpt>
      <trkpt lat="48.3305" lon="2.54923">
        <ele>119</ele>
        <time>2020-02-12T14:56:01Z</time>
      </trkpt>
      <trkpt lat="48.33014" lon="2.54981">
        <ele>119</ele>
        <time>2020-02-12T14:56:10Z</time>
      </trkpt>
      <trkpt lat="48.3296" lon="2.55088">
        <ele>118</ele>
        <time>2020-02-12T14:56:26Z</time>
      </trkpt>
      <trkpt lat="48.32789" lon="2.55448">
        <ele>119</ele>
        <time>2020-02-12T14:57:18Z</time>
      </trkpt>
      <trkpt lat="48.32759" lon="2.55523">
        <ele>119</ele>
        <time>2020-02-12T14:57:29Z</time>
      </trkpt>
      <trkpt lat="48.32658" lon="2.55832">
        <ele>118</ele>
        <time>2020-02-12T14:58:09Z</time>
      </trkpt>
      <trkpt lat="48.32635" lon="2.55886">
        <ele>118</ele>
        <time>2020-02-12T14:58:17Z</time>
      </trkpt>
      <trkpt lat="48.32483" lon="2.56167">
        <ele>120</ele>
        <time>2020-02-12T14:59:00Z</time>
      </trkpt>
      <trkpt lat="48.32461" lon="2.56202">
        <ele>120</ele>
        <time>2020-02-12T14:59:05Z</time>
      </trkpt>
      <trkpt lat="48.32437" lon="2.56234">
        <ele>120</ele>
        <time>2020-02-12T14:59:11Z</time>
      </trkpt>
      <trkpt lat="48.32273" lon="2.56424">
        <ele>118</ele>
        <time>2020-02-12T14:59:48Z</time>
      </trkpt>
      <trkpt lat="48.32198" lon="2.56515">
        <ele>121</ele>
        <time>2020-02-12T15:00:05Z</time>
      </trkpt>
      <trkpt lat="48.32164" lon="2.56553">
        <ele>122</ele>
        <time>2020-02-12T15:00:13Z</time>
      </trkpt>
      <trkpt lat="48.32147" lon="2.56567">
        <ele>122</ele>
        <time>2020-02-12T15:00:16Z</time>
      </trkpt>
      <trkpt lat="48.31945" lon="2.56776">
        <ele>123</ele>
        <time>2020-02-12T15:01:00Z</time>
      </trkpt>
      <trkpt lat="48.31744" lon="2.5704">
        <ele>121</ele>
        <time>2020-02-12T15:01:47Z</time>
      </trkpt>
      <trkpt lat="48.3172" lon="2.57069">
        <ele>122</ele>
        <time>2020-02-12T15:01:53Z</time>
      </trkpt>
      <trkpt lat="48.31688" lon="2.571">
        <ele>122</ele>
        <time>2020-02-12T15:01:59Z</time>
      </trkpt>
      <trkpt lat="48.3167" lon="2.57115">
        <ele>122</ele>
        <time>2020-02-12T15:02:03Z</time>
      </trkpt>
      <trkpt lat="48.31656" lon="2.57122">
        <ele>121</ele>
        <time>2020-02-12T15:02:06Z</time>
      </trkpt>
      <trkpt lat="48.31489" lon="2.5719">
        <ele>120</ele>
        <time>2020-02-12T15:02:37Z</time>
      </trkpt>
      <trkpt lat="48.31311" lon="2.5724">
        <ele>119</ele>
        <time>2020-02-12T15:03:09Z</time>
      </trkpt>
      <trkpt lat="48.31256" lon="2.57248">
        <ele>119</ele>
        <time>2020-02-12T15:03:19Z</time>
      </trkpt>
      <trkpt lat="48.30923" lon="2.57283">
        <ele>115</ele>
        <time>2020-02-12T15:04:18Z</time>
      </trkpt>
      <trkpt lat="48.30909" lon="2.57283">
        <ele>115</ele>
        <time>2020-02-12T15:04:20Z</time>
      </trkpt>
      <trkpt lat="48.30892" lon="2.57279">
        <ele>115</ele>
        <time>2020-02-12T15:04:24Z</time>
      </trkpt>
      <trkpt lat="48.30892" lon="2.57262">
        <ele>115</ele>
        <time>2020-02-12T15:04:26Z</time>
      </trkpt>
      <trkpt lat="48.30885" lon="2.57253">
        <ele>115</ele>
        <time>2020-02-12T15:04:27Z</time>
      </trkpt>
      <trkpt lat="48.3088" lon="2.57251">
        <ele>115</ele>
        <time>2020-02-12T15:04:28Z</time>
      </trkpt>
      <trkpt lat="48.30872" lon="2.57254">
        <ele>114</ele>
        <time>2020-02-12T15:04:30Z</time>
      </trkpt>
      <trkpt lat="48.30868" lon="2.5726">
        <ele>114</ele>
        <time>2020-02-12T15:04:31Z</time>
      </trkpt>
      <trkpt lat="48.30865" lon="2.5727">
        <ele>114</ele>
        <time>2020-02-12T15:04:32Z</time>
      </trkpt>
      <trkpt lat="48.30868" lon="2.57286">
        <ele>114</ele>
        <time>2020-02-12T15:04:34Z</time>
      </trkpt>
      <trkpt lat="48.30847" lon="2.57293">
        <ele>115</ele>
        <time>2020-02-12T15:04:38Z</time>
      </trkpt>
      <trkpt lat="48.30791" lon="2.57297">
        <ele>115</ele>
        <time>2020-02-12T15:04:48Z</time>
      </trkpt>
      <trkpt lat="48.30038" lon="2.57377">
        <ele>120</ele>
        <time>2020-02-12T15:07:02Z</time>
      </trkpt>
      <trkpt lat="48.2986" lon="2.57387">
        <ele>120</ele>
        <time>2020-02-12T15:07:34Z</time>
      </trkpt>
      <trkpt lat="48.29773" lon="2.57395">
        <ele>120</ele>
        <time>2020-02-12T15:07:49Z</time>
      </trkpt>
      <trkpt lat="48.29699" lon="2.57408">
        <ele>119</ele>
        <time>2020-02-12T15:08:02Z</time>
      </trkpt>
      <trkpt lat="48.29635" lon="2.5743">
        <ele>119</ele>
        <time>2020-02-12T15:08:14Z</time>
      </trkpt>
      <trkpt lat="48.29613" lon="2.5744">
        <ele>118</ele>
        <time>2020-02-12T15:08:18Z</time>
      </trkpt>
      <trkpt lat="48.29549" lon="2.57476">
        <ele>117</ele>
        <time>2020-02-12T15:08:30Z</time>
      </trkpt>
      <trkpt lat="48.28785" lon="2.57927">
        <ele>119</ele>
        <time>2020-02-12T15:10:56Z</time>
      </trkpt>
      <trkpt lat="48.28716" lon="2.57963">
        <ele>120</ele>
        <time>2020-02-12T15:11:09Z</time>
      </trkpt>
      <trkpt lat="48.28679" lon="2.57973">
        <ele>120</ele>
        <time>2020-02-12T15:11:16Z</time>
      </trkpt>
      <trkpt lat="48.28593" lon="2.57986">
        <ele>119</ele>
        <time>2020-02-12T15:11:31Z</time>
      </trkpt>
      <trkpt lat="48.2857" lon="2.57995">
        <ele>119</ele>
        <time>2020-02-12T15:11:36Z</time>
      </trkpt>
      <trkpt lat="48.28553" lon="2.58007">
        <ele>119</ele>
        <time>2020-02-12T15:11:39Z</time>
      </trkpt>
      <trkpt lat="48.28541" lon="2.57996">
        <ele>120</ele>
        <time>2020-02-12T15:11:42Z</time>
      </trkpt>
      <trkpt lat="48.28523" lon="2.57994">
        <ele>120</ele>
        <time>2020-02-12T15:11:45Z</time>
      </trkpt>
      <trkpt lat="48.28412" lon="2.58005">
        <ele>121</ele>
        <time>2020-02-12T15:12:05Z</time>
      </trkpt>
      <trkpt lat="48.28353" lon="2.58015">
        <ele>121</ele>
        <time>2020-02-12T15:12:15Z</time>
      </trkpt>
      <trkpt lat="48.28308" lon="2.58027">
        <ele>121</ele>
        <time>2020-02-12T15:12:23Z</time>
      </trkpt>
      <trkpt lat="48.28192" lon="2.58069">
        <ele>120</ele>
        <time>2020-02-12T15:12:44Z</time>
      </trkpt>
      <trkpt lat="48.28152" lon="2.58092">
        <ele>120</ele>
        <time>2020-02-12T15:12:52Z</time>
      </trkpt>
      <trkpt lat="48.28082" lon="2.58147">
        <ele>120</ele>
        <time>2020-02-12T15:13:06Z</time>
      </trkpt>
      <trkpt lat="48.28027" lon="2.58198">
        <ele>120</ele>
        <time>2020-02-12T15:13:18Z</time>
      </trkpt>
      <trkpt lat="48.27925" lon="2.583">
        <ele>120</ele>
        <time>2020-02-12T15:13:39Z</time>
      </trkpt>
      <trkpt lat="48.27902" lon="2.58327">
        <ele>120</ele>
        <time>2020-02-12T15:13:45Z</time>
      </trkpt>
      <trkpt lat="48.27859" lon="2.58393">
        <ele>120</ele>
        <time>2020-02-12T15:13:56Z</time>
      </trkpt>
      <trkpt lat="48.2769" lon="2.58682">
        <ele>121</ele>
        <time>2020-02-12T15:14:41Z</time>
      </trkpt>
      <trkpt lat="48.27642" lon="2.58759">
        <ele>119</ele>
        <time>2020-02-12T15:14:54Z</time>
      </trkpt>
      <trkpt lat="48.27538" lon="2.58916">
        <ele>118</ele>
        <time>2020-02-12T15:15:20Z</time>
      </trkpt>
      <trkpt lat="48.27448" lon="2.59071">
        <ele>117</ele>
        <time>2020-02-12T15:15:44Z</time>
      </trkpt>
      <trkpt lat="48.2737" lon="2.59226">
        <ele>116</ele>
        <time>2020-02-12T15:16:07Z</time>
      </trkpt>
      <trkpt lat="48.2731" lon="2.59364">
        <ele>109</ele>
        <time>2020-02-12T15:16:27Z</time>
      </trkpt>
      <trkpt lat="48.27261" lon="2.59492">
        <ele>96</ele>
        <time>2020-02-12T15:16:44Z</time>
      </trkpt>
      <trkpt lat="48.27205" lon="2.59659">
        <ele>91</ele>
        <time>2020-02-12T15:17:06Z</time>
      </trkpt>
      <trkpt lat="48.2717" lon="2.59742">
        <ele>92</ele>
        <time>2020-02-12T15:17:18Z</time>
      </trkpt>
      <trkpt lat="48.27127" lon="2.5982">
        <ele>98</ele>
        <time>2020-02-12T15:17:30Z</time>
      </trkpt>
      <trkpt lat="48.27113" lon="2.59837">
        <ele>99</ele>
        <time>2020-02-12T15:17:33Z</time>
      </trkpt>
      <trkpt lat="48.27089" lon="2.59852">
        <ele>100</ele>
        <time>2020-02-12T15:17:38Z</time>
      </trkpt>
      <trkpt lat="48.27086" lon="2.59859">
        <ele>101</ele>
        <time>2020-02-12T15:17:39Z</time>
      </trkpt>
      <trkpt lat="48.27086" lon="2.59876">
        <ele>103</ele>
        <time>2020-02-12T15:17:41Z</time>
      </trkpt>
      <trkpt lat="48.2709" lon="2.59884">
        <ele>104</ele>
        <time>2020-02-12T15:17:42Z</time>
      </trkpt>
      <trkpt lat="48.27107" lon="2.59904">
        <ele>108</ele>
        <time>2020-02-12T15:17:46Z</time>
      </trkpt>
      <trkpt lat="48.27122" lon="2.59939">
        <ele>110</ele>
        <time>2020-02-12T15:17:51Z</time>
      </trkpt>
      <trkpt lat="48.27131" lon="2.59989">
        <ele>111</ele>
        <time>2020-02-12T15:17:57Z</time>
      </trkpt>
      <trkpt lat="48.27132" lon="2.60008">
        <ele>111</ele>
        <time>2020-02-12T15:17:59Z</time>
      </trkpt>
      <trkpt lat="48.27129" lon="2.60047">
        <ele>109</ele>
        <time>2020-02-12T15:18:04Z</time>
      </trkpt>
      <trkpt lat="48.2712" lon="2.60086">
        <ele>106</ele>
        <time>2020-02-12T15:18:09Z</time>
      </trkpt>
      <trkpt lat="48.27115" lon="2.60127">
        <ele>105</ele>
        <time>2020-02-12T15:18:14Z</time>
      </trkpt>
      <trkpt lat="48.27118" lon="2.60167">
        <ele>104</ele>
        <time>2020-02-12T15:18:18Z</time>
      </trkpt>
      <trkpt lat="48.27132" lon="2.60247">
        <ele>103</ele>
        <time>2020-02-12T15:18:28Z</time>
      </trkpt>
      <trkpt lat="48.27137" lon="2.60291">
        <ele>102</ele>
        <time>2020-02-12T15:18:34Z</time>
      </trkpt>
      <trkpt lat="48.27139" lon="2.60334">
        <ele>101</ele>
        <time>2020-02-12T15:18:39Z</time>
      </trkpt>
      <trkpt lat="48.27135" lon="2.60376">
        <ele>102</ele>
        <time>2020-02-12T15:18:44Z</time>
      </trkpt>
      <trkpt lat="48.27123" lon="2.60414">
        <ele>102</ele>
        <time>2020-02-12T15:18:49Z</time>
      </trkpt>
      <trkpt lat="48.27113" lon="2.60429">
        <ele>103</ele>
        <time>2020-02-12T15:18:51Z</time>
      </trkpt>
      <trkpt lat="48.27102" lon="2.6044">
        <ele>103</ele>
        <time>2020-02-12T15:18:53Z</time>
      </trkpt>
      <trkpt lat="48.27089" lon="2.60449">
        <ele>103</ele>
        <time>2020-02-12T15:18:56Z</time>
      </trkpt>
      <trkpt lat="48.27075" lon="2.60454">
        <ele>104</ele>
        <time>2020-02-12T15:18:59Z</time>
      </trkpt>
      <trkpt lat="48.27034" lon="2.60463">
        <ele>106</ele>
        <time>2020-02-12T15:19:06Z</time>
      </trkpt>
      <trkpt lat="48.27022" lon="2.60468">
        <ele>106</ele>
        <time>2020-02-12T15:19:08Z</time>
      </trkpt>
      <trkpt lat="48.27003" lon="2.60491">
        <ele>106</ele>
        <time>2020-02-12T15:19:13Z</time>
      </trkpt>
      <trkpt lat="48.26988" lon="2.60522">
        <ele>106</ele>
        <time>2020-02-12T15:19:17Z</time>
      </trkpt>
      <trkpt lat="48.26974" lon="2.60558">
        <ele>107</ele>
        <time>2020-02-12T15:19:22Z</time>
      </trkpt>
      <trkpt lat="48.26944" lon="2.60659">
        <ele>97</ele>
        <time>2020-02-12T15:19:35Z</time>
      </trkpt>
      <trkpt lat="48.26936" lon="2.60675">
        <ele>94</ele>
        <time>2020-02-12T15:19:37Z</time>
      </trkpt>
      <trkpt lat="48.26908" lon="2.60714">
        <ele>88</ele>
        <time>2020-02-12T15:19:44Z</time>
      </trkpt>
      <trkpt lat="48.26901" lon="2.60732">
        <ele>86</ele>
        <time>2020-02-12T15:19:47Z</time>
      </trkpt>
      <trkpt lat="48.26887" lon="2.60822">
        <ele>82</ele>
        <time>2020-02-12T15:19:58Z</time>
      </trkpt>
      <trkpt lat="48.26883" lon="2.60871">
        <ele>80</ele>
        <time>2020-02-12T15:20:04Z</time>
      </trkpt>
      <trkpt lat="48.26881" lon="2.60918">
        <ele>79</ele>
        <time>2020-02-12T15:20:09Z</time>
      </trkpt>
      <trkpt lat="48.26885" lon="2.60963">
        <ele>79</ele>
        <time>2020-02-12T15:20:14Z</time>
      </trkpt>
      <trkpt lat="48.26897" lon="2.61005">
        <ele>78</ele>
        <time>2020-02-12T15:20:20Z</time>
      </trkpt>
      <trkpt lat="48.26915" lon="2.61046">
        <ele>77</ele>
        <time>2020-02-12T15:20:26Z</time>
      </trkpt>
      <trkpt lat="48.26938" lon="2.61086">
        <ele>76</ele>
        <time>2020-02-12T15:20:32Z</time>
      </trkpt>
      <trkpt lat="48.2699" lon="2.61167">
        <ele>76</ele>
        <time>2020-02-12T15:20:45Z</time>
      </trkpt>
      <trkpt lat="48.27032" lon="2.61224">
        <ele>74</ele>
        <time>2020-02-12T15:20:55Z</time>
      </trkpt>
      <trkpt lat="48.27124" lon="2.6132">
        <ele>76</ele>
        <time>2020-02-12T15:21:15Z</time>
      </trkpt>
      <trkpt lat="48.2715" lon="2.61354">
        <ele>76</ele>
        <time>2020-02-12T15:21:21Z</time>
      </trkpt>
      <trkpt lat="48.2717" lon="2.61394">
        <ele>77</ele>
        <time>2020-02-12T15:21:27Z</time>
      </trkpt>
      <trkpt lat="48.27224" lon="2.61525">
        <ele>76</ele>
        <time>2020-02-12T15:21:46Z</time>
      </trkpt>
      <trkpt lat="48.27278" lon="2.61631">
        <ele>77</ele>
        <time>2020-02-12T15:22:01Z</time>
      </trkpt>
      <trkpt lat="48.27304" lon="2.61668">
        <ele>76</ele>
        <time>2020-02-12T15:22:08Z</time>
      </trkpt>
      <trkpt lat="48.2735" lon="2.61712">
        <ele>75</ele>
        <time>2020-02-12T15:22:17Z</time>
      </trkpt>
      <trkpt lat="48.27399" lon="2.61749">
        <ele>75</ele>
        <time>2020-02-12T15:22:27Z</time>
      </trkpt>
      <trkpt lat="48.2743" lon="2.61776">
        <ele>74</ele>
        <time>2020-02-12T15:22:34Z</time>
      </trkpt>
      <trkpt lat="48.27533" lon="2.61902">
        <ele>74</ele>
        <time>2020-02-12T15:22:57Z</time>
      </trkpt>
      <trkpt lat="48.27659" lon="2.62045">
        <ele>76</ele>
        <time>2020-02-12T15:23:25Z</time>
      </trkpt>
      <trkpt lat="48.27661" lon="2.62041">
        <ele>76</ele>
        <time>2020-02-12T15:23:26Z</time>
      </trkpt>
      <trkpt lat="48.27909" lon="2.62327">
        <ele>73</ele>
        <time>2020-02-12T15:24:22Z</time>
      </trkpt>
      <trkpt lat="48.27533" lon="2.64181">
        <ele>69</ele>
        <time>2020-02-12T15:28:11Z</time>
      </trkpt>
      <trkpt lat="48.27495" lon="2.64381">
        <ele>74</ele>
        <time>2020-02-12T15:28:36Z</time>
      </trkpt>
      <trkpt lat="48.27261" lon="2.65537">
        <ele>79</ele>
        <time>2020-02-12T15:30:59Z</time>
      </trkpt>
      <trkpt lat="48.27003" lon="2.65416">
        <ele>67</ele>
        <time>2020-02-12T15:31:47Z</time>
      </trkpt>
      <trkpt lat="48.26809" lon="2.65318">
        <ele>74</ele>
        <time>2020-02-12T15:32:23Z</time>
      </trkpt>
      <trkpt lat="48.26746" lon="2.6529">
        <ele>75</ele>
        <time>2020-02-12T15:32:35Z</time>
      </trkpt>
      <trkpt lat="48.2667" lon="2.65246">
        <ele>74</ele>
        <time>2020-02-12T15:32:49Z</time>
      </trkpt>
      <trkpt lat="48.26628" lon="2.65217">
        <ele>79</ele>
        <time>2020-02-12T15:32:58Z</time>
      </trkpt>
      <trkpt lat="48.26616" lon="2.65202">
        <ele>81</ele>
        <time>2020-02-12T15:33:00Z</time>
      </trkpt>
      <trkpt lat="48.26609" lon="2.65186">
        <ele>81</ele>
        <time>2020-02-12T15:33:03Z</time>
      </trkpt>
      <trkpt lat="48.26582" lon="2.65109">
        <ele>85</ele>
        <time>2020-02-12T15:33:13Z</time>
      </trkpt>
      <trkpt lat="48.2656" lon="2.6498">
        <ele>95</ele>
        <time>2020-02-12T15:33:29Z</time>
      </trkpt>
      <trkpt lat="48.26557" lon="2.64937">
        <ele>99</ele>
        <time>2020-02-12T15:33:34Z</time>
      </trkpt>
      <trkpt lat="48.2656" lon="2.64908">
        <ele>101</ele>
        <time>2020-02-12T15:33:37Z</time>
      </trkpt>
      <trkpt lat="48.2656" lon="2.64877">
        <ele>103</ele>
        <time>2020-02-12T15:33:41Z</time>
      </trkpt>
      <trkpt lat="48.26556" lon="2.64864">
        <ele>104</ele>
        <time>2020-02-12T15:33:43Z</time>
      </trkpt>
      <trkpt lat="48.26549" lon="2.64856">
        <ele>105</ele>
        <time>2020-02-12T15:33:44Z</time>
      </trkpt>
      <trkpt lat="48.26542" lon="2.64856">
        <ele>106</ele>
        <time>2020-02-12T15:33:46Z</time>
      </trkpt>
      <trkpt lat="48.26531" lon="2.64862">
        <ele>106</ele>
        <time>2020-02-12T15:33:48Z</time>
      </trkpt>
      <trkpt lat="48.26523" lon="2.64876">
        <ele>106</ele>
        <time>2020-02-12T15:33:50Z</time>
      </trkpt>
      <trkpt lat="48.26504" lon="2.64926">
        <ele>105</ele>
        <time>2020-02-12T15:33:57Z</time>
      </trkpt>
      <trkpt lat="48.26447" lon="2.65025">
        <ele>108</ele>
        <time>2020-02-12T15:34:12Z</time>
      </trkpt>
      <trkpt lat="48.26437" lon="2.65069">
        <ele>110</ele>
        <time>2020-02-12T15:34:18Z</time>
      </trkpt>
      <trkpt lat="48.2643" lon="2.65127">
        <ele>111</ele>
        <time>2020-02-12T15:34:25Z</time>
      </trkpt>
      <trkpt lat="48.26417" lon="2.65177">
        <ele>112</ele>
        <time>2020-02-12T15:34:31Z</time>
      </trkpt>
      <trkpt lat="48.26389" lon="2.65245">
        <ele>113</ele>
        <time>2020-02-12T15:34:41Z</time>
      </trkpt>
      <trkpt lat="48.26381" lon="2.65257">
        <ele>114</ele>
        <time>2020-02-12T15:34:43Z</time>
      </trkpt>
      <trkpt lat="48.2637" lon="2.65267">
        <ele>114</ele>
        <time>2020-02-12T15:34:45Z</time>
      </trkpt>
      <trkpt lat="48.2619" lon="2.6535">
        <ele>118</ele>
        <time>2020-02-12T15:35:18Z</time>
      </trkpt>
      <trkpt lat="48.26104" lon="2.65411">
        <ele>119</ele>
        <time>2020-02-12T15:35:35Z</time>
      </trkpt>
      <trkpt lat="48.2591" lon="2.65585">
        <ele>117</ele>
        <time>2020-02-12T15:36:15Z</time>
      </trkpt>
      <trkpt lat="48.25883" lon="2.65597">
        <ele>116</ele>
        <time>2020-02-12T15:36:20Z</time>
      </trkpt>
      <trkpt lat="48.25854" lon="2.65605">
        <ele>115</ele>
        <time>2020-02-12T15:36:26Z</time>
      </trkpt>
      <trkpt lat="48.25581" lon="2.65639">
        <ele>112</ele>
        <time>2020-02-12T15:37:14Z</time>
      </trkpt>
      <trkpt lat="48.25586" lon="2.65784">
        <ele>110</ele>
        <time>2020-02-12T15:37:32Z</time>
      </trkpt>
      <trkpt lat="48.25595" lon="2.65882">
        <ele>110</ele>
        <time>2020-02-12T15:37:43Z</time>
      </trkpt>
      <trkpt lat="48.25604" lon="2.65928">
        <ele>110</ele>
        <time>2020-02-12T15:37:49Z</time>
      </trkpt>
      <trkpt lat="48.25635" lon="2.66033">
        <ele>109</ele>
        <time>2020-02-12T15:38:03Z</time>
      </trkpt>
      <trkpt lat="48.2565" lon="2.66124">
        <ele>109</ele>
        <time>2020-02-12T15:38:14Z</time>
      </trkpt>
      <trkpt lat="48.25699" lon="2.66619">
        <ele>109</ele>
        <time>2020-02-12T15:39:13Z</time>
      </trkpt>
      <trkpt lat="48.25712" lon="2.66768">
        <ele>102</ele>
        <time>2020-02-12T15:39:31Z</time>
      </trkpt>
      <trkpt lat="48.25721" lon="2.66936">
        <ele>95</ele>
        <time>2020-02-12T15:39:51Z</time>
      </trkpt>
      <trkpt lat="48.25731" lon="2.67039">
        <ele>93</ele>
        <time>2020-02-12T15:40:03Z</time>
      </trkpt>
      <trkpt lat="48.25759" lon="2.6724">
        <ele>95</ele>
        <time>2020-02-12T15:40:27Z</time>
      </trkpt>
      <trkpt lat="48.25785" lon="2.67367">
        <ele>89</ele>
        <time>2020-02-12T15:40:43Z</time>
      </trkpt>
      <trkpt lat="48.25796" lon="2.67436">
        <ele>85</ele>
        <time>2020-02-12T15:40:52Z</time>
      </trkpt>
      <trkpt lat="48.25799" lon="2.67574">
        <ele>83</ele>
        <time>2020-02-12T15:41:08Z</time>
      </trkpt>
      <trkpt lat="48.25804" lon="2.67668">
        <ele>81</ele>
        <time>2020-02-12T15:41:19Z</time>
      </trkpt>
      <trkpt lat="48.25846" lon="2.68106">
        <ele>86</ele>
        <time>2020-02-12T15:42:12Z</time>
      </trkpt>
      <trkpt lat="48.25861" lon="2.68215">
        <ele>85</ele>
        <time>2020-02-12T15:42:25Z</time>
      </trkpt>
      <trkpt lat="48.25859" lon="2.68234">
        <ele>85</ele>
        <time>2020-02-12T15:42:27Z</time>
      </trkpt>
      <trkpt lat="48.25853" lon="2.68246">
        <ele>84</ele>
        <time>2020-02-12T15:42:29Z</time>
      </trkpt>
      <trkpt lat="48.25047" lon="2.66651">
        <ele>71</ele>
        <time>2020-02-12T15:46:26Z</time>
      </trkpt>
      <trkpt lat="48.24989" lon="2.66528">
        <ele>71</ele>
        <time>2020-02-12T15:46:44Z</time>
      </trkpt>
      <trkpt lat="48.24825" lon="2.66154">
        <ele>84</ele>
        <time>2020-02-12T15:47:37Z</time>
      </trkpt>
      <trkpt lat="48.24666" lon="2.65836">
        <ele>101</ele>
        <time>2020-02-12T15:48:24Z</time>
      </trkpt>
      <trkpt lat="48.24646" lon="2.65803">
        <ele>104</ele>
        <time>2020-02-12T15:48:29Z</time>
      </trkpt>
      <trkpt lat="48.24582" lon="2.65731">
        <ele>109</ele>
        <time>2020-02-12T15:48:44Z</time>
      </trkpt>
      <trkpt lat="48.24499" lon="2.65581">
        <ele>112</ele>
        <time>2020-02-12T15:49:07Z</time>
      </trkpt>
      <trkpt lat="48.24454" lon="2.65509">
        <ele>111</ele>
        <time>2020-02-12T15:49:18Z</time>
      </trkpt>
      <trkpt lat="48.24399" lon="2.65433">
        <ele>110</ele>
        <time>2020-02-12T15:49:32Z</time>
      </trkpt>
      <trkpt lat="48.24261" lon="2.65274">
        <ele>110</ele>
        <time>2020-02-12T15:50:03Z</time>
      </trkpt>
      <trkpt lat="48.24215" lon="2.65202">
        <ele>111</ele>
        <time>2020-02-12T15:50:14Z</time>
      </trkpt>
      <trkpt lat="48.24155" lon="2.65081">
        <ele>113</ele>
        <time>2020-02-12T15:50:32Z</time>
      </trkpt>
      <trkpt lat="48.24101" lon="2.64983">
        <ele>112</ele>
        <time>2020-02-12T15:50:47Z</time>
      </trkpt>
      <trkpt lat="48.21792" lon="2.60843">
        <ele>108</ele>
        <time>2020-02-12T16:01:27Z</time>
      </trkpt>
      <trkpt lat="48.21733" lon="2.60725">
        <ele>108</ele>
        <time>2020-02-12T16:01:45Z</time>
      </trkpt>
      <trkpt lat="48.21685" lon="2.60611">
        <ele>109</ele>
        <time>2020-02-12T16:02:01Z</time>
      </trkpt>
      <trkpt lat="48.21652" lon="2.60652">
        <ele>109</ele>
        <time>2020-02-12T16:02:08Z</time>
      </trkpt>
      <trkpt lat="48.21609" lon="2.60712">
        <ele>109</ele>
        <time>2020-02-12T16:02:19Z</time>
      </trkpt>
      <trkpt lat="48.21595" lon="2.6074">
        <ele>109</ele>
        <time>2020-02-12T16:02:23Z</time>
      </trkpt>
      <trkpt lat="48.21571" lon="2.60801">
        <ele>109</ele>
        <time>2020-02-12T16:02:31Z</time>
      </trkpt>
      <trkpt lat="48.21557" lon="2.60828">
        <ele>109</ele>
        <time>2020-02-12T16:02:36Z</time>
      </trkpt>
      <trkpt lat="48.21453" lon="2.60972">
        <ele>109</ele>
        <time>2020-02-12T16:03:01Z</time>
      </trkpt>
      <trkpt lat="48.21438" lon="2.60995">
        <ele>109</ele>
        <time>2020-02-12T16:03:05Z</time>
      </trkpt>
      <trkpt lat="48.21431" lon="2.61011">
        <ele>109</ele>
        <time>2020-02-12T16:03:07Z</time>
      </trkpt>
      <trkpt lat="48.21415" lon="2.61075">
        <ele>111</ele>
        <time>2020-02-12T16:03:15Z</time>
      </trkpt>
      <trkpt lat="48.21406" lon="2.61125">
        <ele>111</ele>
        <time>2020-02-12T16:03:21Z</time>
      </trkpt>
      <trkpt lat="48.21379" lon="2.61321">
        <ele>111</ele>
        <time>2020-02-12T16:03:45Z</time>
      </trkpt>
      <trkpt lat="48.2135" lon="2.61496">
        <ele>112</ele>
        <time>2020-02-12T16:04:06Z</time>
      </trkpt>
      <trkpt lat="48.21332" lon="2.61563">
        <ele>112</ele>
        <time>2020-02-12T16:04:15Z</time>
      </trkpt>
      <trkpt lat="48.21288" lon="2.61688">
        <ele>112</ele>
        <time>2020-02-12T16:04:31Z</time>
      </trkpt>
      <trkpt lat="48.21266" lon="2.61763">
        <ele>111</ele>
        <time>2020-02-12T16:04:41Z</time>
      </trkpt>
      <trkpt lat="48.21133" lon="2.62272">
        <ele>106</ele>
        <time>2020-02-12T16:05:46Z</time>
      </trkpt>
      <trkpt lat="48.21125" lon="2.6232">
        <ele>106</ele>
        <time>2020-02-12T16:05:52Z</time>
      </trkpt>
      <trkpt lat="48.21107" lon="2.62486">
        <ele>105</ele>
        <time>2020-02-12T16:06:12Z</time>
      </trkpt>
      <trkpt lat="48.21058" lon="2.62867">
        <ele>103</ele>
        <time>2020-02-12T16:06:58Z</time>
      </trkpt>
      <trkpt lat="48.21042" lon="2.62954">
        <ele>103</ele>
        <time>2020-02-12T16:07:09Z</time>
      </trkpt>
      <trkpt lat="48.20953" lon="2.63253">
        <ele>106</ele>
        <time>2020-02-12T16:07:47Z</time>
      </trkpt>
      <trkpt lat="48.20927" lon="2.63326">
        <ele>106</ele>
        <time>2020-02-12T16:07:57Z</time>
      </trkpt>
      <trkpt lat="48.20908" lon="2.63364">
        <ele>107</ele>
        <time>2020-02-12T16:08:03Z</time>
      </trkpt>
      <trkpt lat="48.20858" lon="2.63448">
        <ele>108</ele>
        <time>2020-02-12T16:08:16Z</time>
      </trkpt>
      <trkpt lat="48.2078" lon="2.63557">
        <ele>107</ele>
        <time>2020-02-12T16:08:35Z</time>
      </trkpt>
      <trkpt lat="48.20764" lon="2.63583">
        <ele>107</ele>
        <time>2020-02-12T16:08:39Z</time>
      </trkpt>
      <trkpt lat="48.20654" lon="2.6378">
        <ele>111</ele>
        <time>2020-02-12T16:09:10Z</time>
      </trkpt>
      <trkpt lat="48.20516" lon="2.63999">
        <ele>111</ele>
        <time>2020-02-12T16:09:46Z</time>
      </trkpt>
      <trkpt lat="48.20473" lon="2.6408">
        <ele>111</ele>
        <time>2020-02-12T16:09:58Z</time>
      </trkpt>
      <trkpt lat="48.20424" lon="2.64179">
        <ele>112</ele>
        <time>2020-02-12T16:10:12Z</time>
      </trkpt>
      <trkpt lat="48.20404" lon="2.6423">
        <ele>112</ele>
        <time>2020-02-12T16:10:19Z</time>
      </trkpt>
      <trkpt lat="48.20303" lon="2.64533">
        <ele>114</ele>
        <time>2020-02-12T16:11:00Z</time>
      </trkpt>
      <trkpt lat="48.20285" lon="2.6458">
        <ele>114</ele>
        <time>2020-02-12T16:11:06Z</time>
      </trkpt>
      <trkpt lat="48.20259" lon="2.64636">
        <ele>114</ele>
        <time>2020-02-12T16:11:14Z</time>
      </trkpt>
      <trkpt lat="48.20202" lon="2.64739">
        <ele>115</ele>
        <time>2020-02-12T16:11:30Z</time>
      </trkpt>
      <trkpt lat="48.20135" lon="2.64852">
        <ele>115</ele>
        <time>2020-02-12T16:11:48Z</time>
      </trkpt>
      <trkpt lat="48.19992" lon="2.65067">
        <ele>116</ele>
        <time>2020-02-12T16:12:24Z</time>
      </trkpt>
      <trkpt lat="48.19878" lon="2.65227">
        <ele>115</ele>
        <time>2020-02-12T16:12:52Z</time>
      </trkpt>
      <trkpt lat="48.19812" lon="2.65305">
        <ele>115</ele>
        <time>2020-02-12T16:13:07Z</time>
      </trkpt>
      <trkpt lat="48.19783" lon="2.65349">
        <ele>115</ele>
        <time>2020-02-12T16:13:14Z</time>
      </trkpt>
      <trkpt lat="48.19761" lon="2.65407">
        <ele>115</ele>
        <time>2020-02-12T16:13:22Z</time>
      </trkpt>
      <trkpt lat="48.19735" lon="2.65524">
        <ele>115</ele>
        <time>2020-02-12T16:13:37Z</time>
      </trkpt>
      <trkpt lat="48.19728" lon="2.65591">
        <ele>116</ele>
        <time>2020-02-12T16:13:45Z</time>
      </trkpt>
      <trkpt lat="48.19726" lon="2.65697">
        <ele>116</ele>
        <time>2020-02-12T16:13:57Z</time>
      </trkpt>
      <trkpt lat="48.19722" lon="2.65722">
        <ele>117</ele>
        <time>2020-02-12T16:14:00Z</time>
      </trkpt>
      <trkpt lat="48.19714" lon="2.65729">
        <ele>117</ele>
        <time>2020-02-12T16:14:02Z</time>
      </trkpt>
      <trkpt lat="48.19682" lon="2.65732">
        <ele>117</ele>
        <time>2020-02-12T16:14:08Z</time>
      </trkpt>
      <trkpt lat="48.19673" lon="2.65735">
        <ele>117</ele>
        <time>2020-02-12T16:14:09Z</time>
      </trkpt>
      <trkpt lat="48.19632" lon="2.65754">
        <ele>117</ele>
        <time>2020-02-12T16:14:17Z</time>
      </trkpt>
      <trkpt lat="48.19586" lon="2.65763">
        <ele>116</ele>
        <time>2020-02-12T16:14:25Z</time>
      </trkpt>
      <trkpt lat="48.19482" lon="2.65814">
        <ele>115</ele>
        <time>2020-02-12T16:14:45Z</time>
      </trkpt>
      <trkpt lat="48.19465" lon="2.65826">
        <ele>115</ele>
        <time>2020-02-12T16:14:48Z</time>
      </trkpt>
      <trkpt lat="48.19458" lon="2.65835">
        <ele>116</ele>
        <time>2020-02-12T16:14:50Z</time>
      </trkpt>
      <trkpt lat="48.19438" lon="2.65646">
        <ele>113</ele>
        <time>2020-02-12T16:15:12Z</time>
      </trkpt>
      <trkpt lat="48.19438" lon="2.65516">
        <ele>114</ele>
        <time>2020-02-12T16:15:28Z</time>
      </trkpt>
      <trkpt lat="48.19395" lon="2.6527">
        <ele>114</ele>
        <time>2020-02-12T16:15:58Z</time>
      </trkpt>
      <trkpt lat="48.19354" lon="2.64922">
        <ele>113</ele>
        <time>2020-02-12T16:16:40Z</time>
      </trkpt>
      <trkpt lat="48.19299" lon="2.64533">
        <ele>114</ele>
        <time>2020-02-12T16:17:27Z</time>
      </trkpt>
      <trkpt lat="48.19278" lon="2.64417">
        <ele>113</ele>
        <time>2020-02-12T16:17:41Z</time>
      </trkpt>
      <trkpt lat="48.19201" lon="2.64142">
        <ele>111</ele>
        <time>2020-02-12T16:18:17Z</time>
      </trkpt>
      <trkpt lat="48.19129" lon="2.64015">
        <ele>111</ele>
        <time>2020-02-12T16:18:36Z</time>
      </trkpt>
      <trkpt lat="48.19109" lon="2.63975">
        <ele>110</ele>
        <time>2020-02-12T16:18:42Z</time>
      </trkpt>
      <trkpt lat="48.1902" lon="2.63773">
        <ele>110</ele>
        <time>2020-02-12T16:19:11Z</time>
      </trkpt>
      <trkpt lat="48.18883" lon="2.63433">
        <ele>111</ele>
        <time>2020-02-12T16:19:58Z</time>
      </trkpt>
      <trkpt lat="48.18879" lon="2.63416">
        <ele>111</ele>
        <time>2020-02-12T16:20:00Z</time>
      </trkpt>
      <trkpt lat="48.18876" lon="2.63398">
        <ele>111</ele>
        <time>2020-02-12T16:20:02Z</time>
      </trkpt>
      <trkpt lat="48.18872" lon="2.63239">
        <ele>109</ele>
        <time>2020-02-12T16:20:21Z</time>
      </trkpt>
      <trkpt lat="48.18864" lon="2.63145">
        <ele>109</ele>
        <time>2020-02-12T16:20:33Z</time>
      </trkpt>
      <trkpt lat="48.1885" lon="2.63044">
        <ele>109</ele>
        <time>2020-02-12T16:20:45Z</time>
      </trkpt>
      <trkpt lat="48.18802" lon="2.62752">
        <ele>111</ele>
        <time>2020-02-12T16:21:21Z</time>
      </trkpt>
      <trkpt lat="48.18793" lon="2.62679">
        <ele>110</ele>
        <time>2020-02-12T16:21:29Z</time>
      </trkpt>
      <trkpt lat="48.18791" lon="2.62605">
        <ele>109</ele>
        <time>2020-02-12T16:21:38Z</time>
      </trkpt>
      <trkpt lat="48.18807" lon="2.62595">
        <ele>109</ele>
        <time>2020-02-12T16:21:41Z</time>
      </trkpt>
      <trkpt lat="48.18809" lon="2.62581">
        <ele>108</ele>
        <time>2020-02-12T16:21:43Z</time>
      </trkpt>
      <trkpt lat="48.18809" lon="2.62486">
        <ele>109</ele>
        <time>2020-02-12T16:21:54Z</time>
      </trkpt>
      <trkpt lat="48.18805" lon="2.62479">
        <ele>109</ele>
        <time>2020-02-12T16:21:55Z</time>
      </trkpt>
      <trkpt lat="48.18772" lon="2.62465">
        <ele>109</ele>
        <time>2020-02-12T16:22:01Z</time>
      </trkpt>
      <trkpt lat="48.18757" lon="2.62455">
        <ele>109</ele>
        <time>2020-02-12T16:22:04Z</time>
      </trkpt>
      <trkpt lat="48.18703" lon="2.62412">
        <ele>109</ele>
        <time>2020-02-12T16:22:15Z</time>
      </trkpt>
      <trkpt lat="48.1861" lon="2.62311">
        <ele>107</ele>
        <time>2020-02-12T16:22:36Z</time>
      </trkpt>
      <trkpt lat="48.18572" lon="2.62273">
        <ele>107</ele>
        <time>2020-02-12T16:22:44Z</time>
      </trkpt>
      <trkpt lat="48.18472" lon="2.62185">
        <ele>107</ele>
        <time>2020-02-12T16:23:04Z</time>
      </trkpt>
      <trkpt lat="48.18454" lon="2.62178">
        <ele>107</ele>
        <time>2020-02-12T16:23:08Z</time>
      </trkpt>
      <trkpt lat="48.18103" lon="2.62143">
        <ele>107</ele>
        <time>2020-02-12T16:24:10Z</time>
      </trkpt>
      <trkpt lat="48.1806" lon="2.62132">
        <ele>107</ele>
        <time>2020-02-12T16:24:18Z</time>
      </trkpt>
      <trkpt lat="48.17828" lon="2.62061">
        <ele>107</ele>
        <time>2020-02-12T16:25:00Z</time>
      </trkpt>
      <trkpt lat="48.1769" lon="2.6203">
        <ele>106</ele>
        <time>2020-02-12T16:25:25Z</time>
      </trkpt>
      <trkpt lat="48.17673" lon="2.62022">
        <ele>106</ele>
        <time>2020-02-12T16:25:28Z</time>
      </trkpt>
      <trkpt lat="48.17394" lon="2.6179">
        <ele>101</ele>
        <time>2020-02-12T16:26:25Z</time>
      </trkpt>
      <trkpt lat="48.17316" lon="2.61735">
        <ele>100</ele>
        <time>2020-02-12T16:26:40Z</time>
      </trkpt>
      <trkpt lat="48.17281" lon="2.61717">
        <ele>100</ele>
        <time>2020-02-12T16:26:47Z</time>
      </trkpt>
      <trkpt lat="48.17266" lon="2.61712">
        <ele>100</ele>
        <time>2020-02-12T16:26:50Z</time>
      </trkpt>
      <trkpt lat="48.17235" lon="2.61709">
        <ele>101</ele>
        <time>2020-02-12T16:26:55Z</time>
      </trkpt>
      <trkpt lat="48.17126" lon="2.61718">
        <ele>101</ele>
        <time>2020-02-12T16:27:15Z</time>
      </trkpt>
      <trkpt lat="48.1709" lon="2.61714">
        <ele>100</ele>
        <time>2020-02-12T16:27:21Z</time>
      </trkpt>
      <trkpt lat="48.17047" lon="2.61693">
        <ele>100</ele>
        <time>2020-02-12T16:27:29Z</time>
      </trkpt>
      <trkpt lat="48.16894" lon="2.61591">
        <ele>101</ele>
        <time>2020-02-12T16:27:59Z</time>
      </trkpt>
      <trkpt lat="48.16856" lon="2.61571">
        <ele>100</ele>
        <time>2020-02-12T16:28:06Z</time>
      </trkpt>
      <trkpt lat="48.16829" lon="2.6156">
        <ele>100</ele>
        <time>2020-02-12T16:28:11Z</time>
      </trkpt>
      <trkpt lat="48.16812" lon="2.61556">
        <ele>100</ele>
        <time>2020-02-12T16:28:14Z</time>
      </trkpt>
      <trkpt lat="48.16769" lon="2.61552">
        <ele>99</ele>
        <time>2020-02-12T16:28:22Z</time>
      </trkpt>
      <trkpt lat="48.16609" lon="2.6157">
        <ele>99</ele>
        <time>2020-02-12T16:28:50Z</time>
      </trkpt>
      <trkpt lat="48.16578" lon="2.61569">
        <ele>99</ele>
        <time>2020-02-12T16:28:56Z</time>
      </trkpt>
      <trkpt lat="48.1654" lon="2.61559">
        <ele>99</ele>
        <time>2020-02-12T16:29:03Z</time>
      </trkpt>
      <trkpt lat="48.16331" lon="2.61476">
        <ele>102</ele>
        <time>2020-02-12T16:29:41Z</time>
      </trkpt>
      <trkpt lat="48.1626" lon="2.61453">
        <ele>102</ele>
        <time>2020-02-12T16:29:54Z</time>
      </trkpt>
      <trkpt lat="48.16072" lon="2.61412">
        <ele>100</ele>
        <time>2020-02-12T16:30:28Z</time>
      </trkpt>
      <trkpt lat="48.16028" lon="2.61411">
        <ele>99</ele>
        <time>2020-02-12T16:30:36Z</time>
      </trkpt>
      <trkpt lat="48.15929" lon="2.61415">
        <ele>99</ele>
        <time>2020-02-12T16:30:53Z</time>
      </trkpt>
      <trkpt lat="48.15898" lon="2.6141">
        <ele>99</ele>
        <time>2020-02-12T16:30:59Z</time>
      </trkpt>
      <trkpt lat="48.15495" lon="2.61235">
        <ele>98</ele>
        <time>2020-02-12T16:32:13Z</time>
      </trkpt>
      <trkpt lat="48.15439" lon="2.61213">
        <ele>98</ele>
        <time>2020-02-12T16:32:24Z</time>
      </trkpt>
      <trkpt lat="48.15185" lon="2.61122">
        <ele>98</ele>
        <time>2020-02-12T16:33:10Z</time>
      </trkpt>
      <trkpt lat="48.15093" lon="2.61093">
        <ele>97</ele>
        <time>2020-02-12T16:33:27Z</time>
      </trkpt>
      <trkpt lat="48.15026" lon="2.61075">
        <ele>96</ele>
        <time>2020-02-12T16:33:39Z</time>
      </trkpt>
      <trkpt lat="48.14978" lon="2.61065">
        <ele>96</ele>
        <time>2020-02-12T16:33:48Z</time>
      </trkpt>
      <trkpt lat="48.14867" lon="2.6105">
        <ele>96</ele>
        <time>2020-02-12T16:34:07Z</time>
      </trkpt>
      <trkpt lat="48.14679" lon="2.61007">
        <ele>96</ele>
        <time>2020-02-12T16:34:41Z</time>
      </trkpt>
      <trkpt lat="48.1463" lon="2.61001">
        <ele>96</ele>
        <time>2020-02-12T16:34:50Z</time>
      </trkpt>
      <trkpt lat="48.14601" lon="2.61008">
        <ele>97</ele>
        <time>2020-02-12T16:34:55Z</time>
      </trkpt>
      <trkpt lat="48.14593" lon="2.61007">
        <ele>97</ele>
        <time>2020-02-12T16:34:57Z</time>
      </trkpt>
      <trkpt lat="48.14521" lon="2.60973">
        <ele>96</ele>
        <time>2020-02-12T16:35:10Z</time>
      </trkpt>
      <trkpt lat="48.14487" lon="2.60963">
        <ele>96</ele>
        <time>2020-02-12T16:35:16Z</time>
      </trkpt>
      <trkpt lat="48.14457" lon="2.60958">
        <ele>97</ele>
        <time>2020-02-12T16:35:22Z</time>
      </trkpt>
      <trkpt lat="48.144" lon="2.60934">
        <ele>97</ele>
        <time>2020-02-12T16:35:32Z</time>
      </trkpt>
      <trkpt lat="48.14375" lon="2.60935">
        <ele>97</ele>
        <time>2020-02-12T16:35:37Z</time>
      </trkpt>
      <trkpt lat="48.14327" lon="2.60951">
        <ele>96</ele>
        <time>2020-02-12T16:35:45Z</time>
      </trkpt>
      <trkpt lat="48.14308" lon="2.60952">
        <ele>96</ele>
        <time>2020-02-12T16:35:49Z</time>
      </trkpt>
      <trkpt lat="48.14282" lon="2.60949">
        <ele>96</ele>
        <time>2020-02-12T16:35:53Z</time>
      </trkpt>
      <trkpt lat="48.14275" lon="2.60947">
        <ele>96</ele>
        <time>2020-02-12T16:35:55Z</time>
      </trkpt>
      <trkpt lat="48.14275" lon="2.60938">
        <ele>96</ele>
        <time>2020-02-12T16:35:56Z</time>
      </trkpt>
      <trkpt lat="48.14253" lon="2.60934">
        <ele>96</ele>
        <time>2020-02-12T16:36:00Z</time>
      </trkpt>
      <trkpt lat="48.1407" lon="2.60883">
        <ele>95</ele>
        <time>2020-02-12T16:36:33Z</time>
      </trkpt>
      <trkpt lat="48.14051" lon="2.60882">
        <ele>95</ele>
        <time>2020-02-12T16:36:36Z</time>
      </trkpt>
      <trkpt lat="48.14028" lon="2.60886">
        <ele>95</ele>
        <time>2020-02-12T16:36:40Z</time>
      </trkpt>
      <trkpt lat="48.13947" lon="2.60909">
        <ele>94</ele>
        <time>2020-02-12T16:36:55Z</time>
      </trkpt>
      <trkpt lat="48.13896" lon="2.60919">
        <ele>94</ele>
        <time>2020-02-12T16:37:04Z</time>
      </trkpt>
      <trkpt lat="48.13765" lon="2.60929">
        <ele>92</ele>
        <time>2020-02-12T16:37:27Z</time>
      </trkpt>
      <trkpt lat="48.13705" lon="2.60928">
        <ele>92</ele>
        <time>2020-02-12T16:37:38Z</time>
      </trkpt>
      <trkpt lat="48.13671" lon="2.60925">
        <ele>92</ele>
        <time>2020-02-12T16:37:44Z</time>
      </trkpt>
      <trkpt lat="48.13587" lon="2.60912">
        <ele>91</ele>
        <time>2020-02-12T16:37:59Z</time>
      </trkpt>
      <trkpt lat="48.13512" lon="2.60894">
        <ele>91</ele>
        <time>2020-02-12T16:38:13Z</time>
      </trkpt>
      <trkpt lat="48.13475" lon="2.60881">
        <ele>90</ele>
        <time>2020-02-12T16:38:20Z</time>
      </trkpt>
      <trkpt lat="48.13227" lon="2.60774">
        <ele>89</ele>
        <time>2020-02-12T16:39:05Z</time>
      </trkpt>
      <trkpt lat="48.13204" lon="2.60766">
        <ele>90</ele>
        <time>2020-02-12T16:39:10Z</time>
      </trkpt>
      <trkpt lat="48.1316" lon="2.60756">
        <ele>91</ele>
        <time>2020-02-12T16:39:18Z</time>
      </trkpt>
      <trkpt lat="48.1307" lon="2.60748">
        <ele>88</ele>
        <time>2020-02-12T16:39:34Z</time>
      </trkpt>
      <trkpt lat="48.13034" lon="2.60738">
        <ele>88</ele>
        <time>2020-02-12T16:39:40Z</time>
      </trkpt>
      <trkpt lat="48.12793" lon="2.60624">
        <ele>88</ele>
        <time>2020-02-12T16:40:25Z</time>
      </trkpt>
      <trkpt lat="48.1268" lon="2.60565">
        <ele>89</ele>
        <time>2020-02-12T16:40:46Z</time>
      </trkpt>
      <trkpt lat="48.12614" lon="2.60534">
        <ele>90</ele>
        <time>2020-02-12T16:40:59Z</time>
      </trkpt>
      <trkpt lat="48.12488" lon="2.6048">
        <ele>89</ele>
        <time>2020-02-12T16:41:22Z</time>
      </trkpt>
      <trkpt lat="48.12363" lon="2.60441">
        <ele>88</ele>
        <time>2020-02-12T16:41:45Z</time>
      </trkpt>
      <trkpt lat="48.12298" lon="2.60415">
        <ele>88</ele>
        <time>2020-02-12T16:41:57Z</time>
      </trkpt>
      <trkpt lat="48.12168" lon="2.60357">
        <ele>87</ele>
        <time>2020-02-12T16:42:21Z</time>
      </trkpt>
      <trkpt lat="48.12084" lon="2.60316">
        <ele>89</ele>
        <time>2020-02-12T16:42:37Z</time>
      </trkpt>
      <trkpt lat="48.11976" lon="2.60289">
        <ele>89</ele>
        <time>2020-02-12T16:42:56Z</time>
      </trkpt>
      <trkpt lat="48.11928" lon="2.60279">
        <ele>88</ele>
        <time>2020-02-12T16:43:05Z</time>
      </trkpt>
      <trkpt lat="48.11888" lon="2.60274">
        <ele>88</ele>
        <time>2020-02-12T16:43:12Z</time>
      </trkpt>
      <trkpt lat="48.11856" lon="2.60272">
        <ele>89</ele>
        <time>2020-02-12T16:43:18Z</time>
      </trkpt>
      <trkpt lat="48.11819" lon="2.60273">
        <ele>89</ele>
        <time>2020-02-12T16:43:24Z</time>
      </trkpt>
      <trkpt lat="48.1169" lon="2.60286">
        <ele>89</ele>
        <time>2020-02-12T16:43:47Z</time>
      </trkpt>
      <trkpt lat="48.11655" lon="2.60286">
        <ele>89</ele>
        <time>2020-02-12T16:43:53Z</time>
      </trkpt>
      <trkpt lat="48.11578" lon="2.60278">
        <ele>89</ele>
        <time>2020-02-12T16:44:07Z</time>
      </trkpt>
      <trkpt lat="48.11465" lon="2.60257">
        <ele>89</ele>
        <time>2020-02-12T16:44:27Z</time>
      </trkpt>
      <trkpt lat="48.11236" lon="2.60189">
        <ele>86</ele>
        <time>2020-02-12T16:45:09Z</time>
      </trkpt>
      <trkpt lat="48.11198" lon="2.60171">
        <ele>86</ele>
        <time>2020-02-12T16:45:16Z</time>
      </trkpt>
      <trkpt lat="48.11179" lon="2.60157">
        <ele>86</ele>
        <time>2020-02-12T16:45:20Z</time>
      </trkpt>
      <trkpt lat="48.10942" lon="2.59948">
        <ele>84</ele>
        <time>2020-02-12T16:46:09Z</time>
      </trkpt>
      <trkpt lat="48.10914" lon="2.59927">
        <ele>84</ele>
        <time>2020-02-12T16:46:14Z</time>
      </trkpt>
      <trkpt lat="48.10883" lon="2.59911">
        <ele>84</ele>
        <time>2020-02-12T16:46:20Z</time>
      </trkpt>
      <trkpt lat="48.10871" lon="2.59908">
        <ele>84</ele>
        <time>2020-02-12T16:46:22Z</time>
      </trkpt>
      <trkpt lat="48.10847" lon="2.59911">
        <ele>83</ele>
        <time>2020-02-12T16:46:27Z</time>
      </trkpt>
      <trkpt lat="48.10831" lon="2.59919">
        <ele>83</ele>
        <time>2020-02-12T16:46:30Z</time>
      </trkpt>
      <trkpt lat="48.10675" lon="2.60016">
        <ele>81</ele>
        <time>2020-02-12T16:47:00Z</time>
      </trkpt>
      <trkpt lat="48.10658" lon="2.60025">
        <ele>81</ele>
        <time>2020-02-12T16:47:03Z</time>
      </trkpt>
      <trkpt lat="48.10643" lon="2.60027">
        <ele>81</ele>
        <time>2020-02-12T16:47:05Z</time>
      </trkpt>
      <trkpt lat="48.10629" lon="2.60019">
        <ele>81</ele>
        <time>2020-02-12T16:47:08Z</time>
      </trkpt>
      <trkpt lat="48.10625" lon="2.60014">
        <ele>81</ele>
        <time>2020-02-12T16:47:09Z</time>
      </trkpt>
      <trkpt lat="48.10614" lon="2.59988">
        <ele>81</ele>
        <time>2020-02-12T16:47:13Z</time>
      </trkpt>
      <trkpt lat="48.10579" lon="2.59847">
        <ele>80</ele>
        <time>2020-02-12T16:47:31Z</time>
      </trkpt>
      <trkpt lat="48.10502" lon="2.59566">
        <ele>81</ele>
        <time>2020-02-12T16:48:07Z</time>
      </trkpt>
      <trkpt lat="48.10482" lon="2.59563">
        <ele>81</ele>
        <time>2020-02-12T16:48:10Z</time>
      </trkpt>
      <trkpt lat="48.10427" lon="2.59541">
        <ele>81</ele>
        <time>2020-02-12T16:48:20Z</time>
      </trkpt>
      <trkpt lat="48.10384" lon="2.59536">
        <ele>81</ele>
        <time>2020-02-12T16:48:28Z</time>
      </trkpt>
      <trkpt lat="48.10303" lon="2.59537">
        <ele>79</ele>
        <time>2020-02-12T16:48:42Z</time>
      </trkpt>
      <trkpt lat="48.10265" lon="2.5954">
        <ele>78</ele>
        <time>2020-02-12T16:48:49Z</time>
      </trkpt>
      <trkpt lat="48.10234" lon="2.59544">
        <ele>78</ele>
        <time>2020-02-12T16:48:55Z</time>
      </trkpt>
      <trkpt lat="48.10198" lon="2.59554">
        <ele>79</ele>
        <time>2020-02-12T16:49:01Z</time>
      </trkpt>
      <trkpt lat="48.10182" lon="2.59562">
        <ele>79</ele>
        <time>2020-02-12T16:49:04Z</time>
      </trkpt>
      <trkpt lat="48.10161" lon="2.59577">
        <ele>79</ele>
        <time>2020-02-12T16:49:08Z</time>
      </trkpt>
      <trkpt lat="48.10158" lon="2.59574">
        <ele>79</ele>
        <time>2020-02-12T16:49:09Z</time>
      </trkpt>
      <trkpt lat="48.10152" lon="2.59575">
        <ele>79</ele>
        <time>2020-02-12T16:49:10Z</time>
      </trkpt>
      <trkpt lat="48.10149" lon="2.59578">
        <ele>79</ele>
        <time>2020-02-12T16:49:11Z</time>
      </trkpt>
      <trkpt lat="48.10149" lon="2.59589">
        <ele>79</ele>
        <time>2020-02-12T16:49:12Z</time>
      </trkpt>
      <trkpt lat="48.10153" lon="2.59595">
        <ele>79</ele>
        <time>2020-02-12T16:49:13Z</time>
      </trkpt>
      <trkpt lat="48.10156" lon="2.59595">
        <ele>79</ele>
        <time>2020-02-12T16:49:14Z</time>
      </trkpt>
      <trkpt lat="48.10164" lon="2.59667">
        <ele>79</ele>
        <time>2020-02-12T16:49:22Z</time>
      </trkpt>
      <trkpt lat="48.10164" lon="2.59687">
        <ele>79</ele>
        <time>2020-02-12T16:49:25Z</time>
      </trkpt>
      <trkpt lat="48.10158" lon="2.59723">
        <ele>80</ele>
        <time>2020-02-12T16:49:29Z</time>
      </trkpt>
      <trkpt lat="48.10153" lon="2.59741">
        <ele>80</ele>
        <time>2020-02-12T16:49:31Z</time>
      </trkpt>
      <trkpt lat="48.10145" lon="2.59757">
        <ele>80</ele>
        <time>2020-02-12T16:49:34Z</time>
      </trkpt>
      <trkpt lat="48.10084" lon="2.59861">
        <ele>81</ele>
        <time>2020-02-12T16:49:50Z</time>
      </trkpt>
      <trkpt lat="48.10081" lon="2.59859">
        <ele>81</ele>
        <time>2020-02-12T16:49:51Z</time>
      </trkpt>
      <trkpt lat="48.10075" lon="2.59861">
        <ele>81</ele>
        <time>2020-02-12T16:49:52Z</time>
      </trkpt>
      <trkpt lat="48.10072" lon="2.5987">
        <ele>81</ele>
        <time>2020-02-12T16:49:53Z</time>
      </trkpt>
      <trkpt lat="48.10075" lon="2.59879">
        <ele>81</ele>
        <time>2020-02-12T16:49:54Z</time>
      </trkpt>
      <trkpt lat="48.1008" lon="2.59882">
        <ele>81</ele>
        <time>2020-02-12T16:49:55Z</time>
      </trkpt>
      <trkpt lat="48.10094" lon="2.60026">
        <ele>80</ele>
        <time>2020-02-12T16:50:13Z</time>
      </trkpt>
      <trkpt lat="48.10108" lon="2.60141">
        <ele>82</ele>
        <time>2020-02-12T16:50:26Z</time>
      </trkpt>
      <trkpt lat="48.10119" lon="2.60196">
        <ele>82</ele>
        <time>2020-02-12T16:50:33Z</time>
      </trkpt>
      <trkpt lat="48.10138" lon="2.60261">
        <ele>81</ele>
        <time>2020-02-12T16:50:42Z</time>
      </trkpt>
      <trkpt lat="48.10216" lon="2.60447">
        <ele>83</ele>
        <time>2020-02-12T16:51:08Z</time>
      </trkpt>
      <trkpt lat="48.10253" lon="2.6055">
        <ele>83</ele>
        <time>2020-02-12T16:51:22Z</time>
      </trkpt>
      <trkpt lat="48.10315" lon="2.60786">
        <ele>82</ele>
        <time>2020-02-12T16:51:52Z</time>
      </trkpt>
      <trkpt lat="48.10336" lon="2.6084">
        <ele>82</ele>
        <time>2020-02-12T16:51:59Z</time>
      </trkpt>
      <trkpt lat="48.10393" lon="2.60961">
        <ele>80</ele>
        <time>2020-02-12T16:52:17Z</time>
      </trkpt>
      <trkpt lat="48.10406" lon="2.61001">
        <ele>79</ele>
        <time>2020-02-12T16:52:22Z</time>
      </trkpt>
      <trkpt lat="48.10434" lon="2.61122">
        <ele>79</ele>
        <time>2020-02-12T16:52:37Z</time>
      </trkpt>
      <trkpt lat="48.10457" lon="2.61174">
        <ele>79</ele>
        <time>2020-02-12T16:52:45Z</time>
      </trkpt>
      <trkpt lat="48.10497" lon="2.61244">
        <ele>79</ele>
        <time>2020-02-12T16:52:56Z</time>
      </trkpt>
      <trkpt lat="48.10509" lon="2.61277">
        <ele>80</ele>
        <time>2020-02-12T16:53:00Z</time>
      </trkpt>
      <trkpt lat="48.10513" lon="2.61296">
        <ele>80</ele>
        <time>2020-02-12T16:53:03Z</time>
      </trkpt>
      <trkpt lat="48.10517" lon="2.61346">
        <ele>81</ele>
        <time>2020-02-12T16:53:08Z</time>
      </trkpt>
      <trkpt lat="48.10541" lon="2.62146">
        <ele>85</ele>
        <time>2020-02-12T16:54:44Z</time>
      </trkpt>
      <trkpt lat="48.10544" lon="2.62196">
        <ele>85</ele>
        <time>2020-02-12T16:54:50Z</time>
      </trkpt>
      <trkpt lat="48.10559" lon="2.62298">
        <ele>85</ele>
        <time>2020-02-12T16:55:02Z</time>
      </trkpt>
      <trkpt lat="48.10597" lon="2.62472">
        <ele>83</ele>
        <time>2020-02-12T16:55:24Z</time>
      </trkpt>
      <trkpt lat="48.10622" lon="2.62556">
        <ele>83</ele>
        <time>2020-02-12T16:55:35Z</time>
      </trkpt>
      <trkpt lat="48.10655" lon="2.62637">
        <ele>84</ele>
        <time>2020-02-12T16:55:46Z</time>
      </trkpt>
      <trkpt lat="48.10736" lon="2.62796">
        <ele>83</ele>
        <time>2020-02-12T16:56:10Z</time>
      </trkpt>
      <trkpt lat="48.10744" lon="2.62815">
        <ele>83</ele>
        <time>2020-02-12T16:56:12Z</time>
      </trkpt>
      <trkpt lat="48.10754" lon="2.6285">
        <ele>83</ele>
        <time>2020-02-12T16:56:17Z</time>
      </trkpt>
      <trkpt lat="48.10763" lon="2.62902">
        <ele>83</ele>
        <time>2020-02-12T16:56:23Z</time>
      </trkpt>
      <trkpt lat="48.10785" lon="2.63069">
        <ele>82</ele>
        <time>2020-02-12T16:56:44Z</time>
      </trkpt>
      <trkpt lat="48.10799" lon="2.6315">
        <ele>81</ele>
        <time>2020-02-12T16:56:53Z</time>
      </trkpt>
      <trkpt lat="48.10818" lon="2.63222">
        <ele>81</ele>
        <time>2020-02-12T16:57:03Z</time>
      </trkpt>
      <trkpt lat="48.10867" lon="2.63388">
        <ele>81</ele>
        <time>2020-02-12T16:57:24Z</time>
      </trkpt>
      <trkpt lat="48.10884" lon="2.63468">
        <ele>81</ele>
        <time>2020-02-12T16:57:34Z</time>
      </trkpt>
      <trkpt lat="48.10908" lon="2.63609">
        <ele>81</ele>
        <time>2020-02-12T16:57:51Z</time>
      </trkpt>
      <trkpt lat="48.1096" lon="2.63792">
        <ele>81</ele>
        <time>2020-02-12T16:58:15Z</time>
      </trkpt>
      <trkpt lat="48.10964" lon="2.63818">
        <ele>82</ele>
        <time>2020-02-12T16:58:18Z</time>
      </trkpt>
      <trkpt lat="48.10965" lon="2.63937">
        <ele>83</ele>
        <time>2020-02-12T16:58:32Z</time>
      </trkpt>
      <trkpt lat="48.10968" lon="2.6399">
        <ele>83</ele>
        <time>2020-02-12T16:58:39Z</time>
      </trkpt>
      <trkpt lat="48.10976" lon="2.6405">
        <ele>83</ele>
        <time>2020-02-12T16:58:46Z</time>
      </trkpt>
      <trkpt lat="48.11126" lon="2.64782">
        <ele>84</ele>
        <time>2020-02-12T17:00:17Z</time>
      </trkpt>
      <trkpt lat="48.11172" lon="2.65012">
        <ele>82</ele>
        <time>2020-02-12T17:00:46Z</time>
      </trkpt>
      <trkpt lat="48.1118" lon="2.65068">
        <ele>81</ele>
        <time>2020-02-12T17:00:52Z</time>
      </trkpt>
      <trkpt lat="48.11182" lon="2.65108">
        <ele>80</ele>
        <time>2020-02-12T17:00:57Z</time>
      </trkpt>
      <trkpt lat="48.11181" lon="2.65158">
        <ele>80</ele>
        <time>2020-02-12T17:01:03Z</time>
      </trkpt>
      <trkpt lat="48.11133" lon="2.65415">
        <ele>88</ele>
        <time>2020-02-12T17:01:35Z</time>
      </trkpt>
      <trkpt lat="48.11127" lon="2.65463">
        <ele>89</ele>
        <time>2020-02-12T17:01:41Z</time>
      </trkpt>
      <trkpt lat="48.11038" lon="2.66662">
        <ele>95</ele>
        <time>2020-02-12T17:04:04Z</time>
      </trkpt>
      <trkpt lat="48.11025" lon="2.66784">
        <ele>96</ele>
        <time>2020-02-12T17:04:19Z</time>
      </trkpt>
      <trkpt lat="48.10703" lon="2.68569">
        <ele>87</ele>
        <time>2020-02-12T17:07:58Z</time>
      </trkpt>
      <trkpt lat="48.10694" lon="2.68632">
        <ele>86</ele>
        <time>2020-02-12T17:08:06Z</time>
      </trkpt>
      <trkpt lat="48.10697" lon="2.68679">
        <ele>85</ele>
        <time>2020-02-12T17:08:11Z</time>
      </trkpt>
      <trkpt lat="48.10712" lon="2.68741">
        <ele>86</ele>
        <time>2020-02-12T17:08:19Z</time>
      </trkpt>
      <trkpt lat="48.10715" lon="2.68778">
        <ele>85</ele>
        <time>2020-02-12T17:08:24Z</time>
      </trkpt>
      <trkpt lat="48.10707" lon="2.68818">
        <ele>84</ele>
        <time>2020-02-12T17:08:29Z</time>
      </trkpt>
      <trkpt lat="48.10678" lon="2.6888">
        <ele>84</ele>
        <time>2020-02-12T17:08:38Z</time>
      </trkpt>
      <trkpt lat="48.1075" lon="2.6896">
        <ele>85</ele>
        <time>2020-02-12T17:08:54Z</time>
      </trkpt>
      <trkpt lat="48.10885" lon="2.69085">
        <ele>83</ele>
        <time>2020-02-12T17:09:22Z</time>
      </trkpt>
      <trkpt lat="48.10899" lon="2.69105">
        <ele>83</ele>
        <time>2020-02-12T17:09:25Z</time>
      </trkpt>
      <trkpt lat="48.10902" lon="2.69132">
        <ele>84</ele>
        <time>2020-02-12T17:09:29Z</time>
      </trkpt>
      <trkpt lat="48.10782" lon="2.69135">
        <ele>87</ele>
        <time>2020-02-12T17:09:50Z</time>
      </trkpt>
      <trkpt lat="48.10706" lon="2.69151">
        <ele>87</ele>
        <time>2020-02-12T17:10:04Z</time>
      </trkpt>
      <trkpt lat="48.1067" lon="2.69153">
        <ele>88</ele>
        <time>2020-02-12T17:10:10Z</time>
      </trkpt>
      <trkpt lat="48.10604" lon="2.69145">
        <ele>88</ele>
        <time>2020-02-12T17:10:22Z</time>
      </trkpt>
      <trkpt lat="48.10376" lon="2.69105">
        <ele>90</ele>
        <time>2020-02-12T17:11:03Z</time>
      </trkpt>
      <trkpt lat="48.10341" lon="2.69106">
        <ele>90</ele>
        <time>2020-02-12T17:11:09Z</time>
      </trkpt>
      <trkpt lat="48.10307" lon="2.6912">
        <ele>90</ele>
        <time>2020-02-12T17:11:15Z</time>
      </trkpt>
      <trkpt lat="48.10169" lon="2.69201">
        <ele>88</ele>
        <time>2020-02-12T17:11:41Z</time>
      </trkpt>
      <trkpt lat="48.10127" lon="2.6922">
        <ele>88</ele>
        <time>2020-02-12T17:11:49Z</time>
      </trkpt>
      <trkpt lat="48.10105" lon="2.69227">
        <ele>88</ele>
        <time>2020-02-12T17:11:53Z</time>
      </trkpt>
      <trkpt lat="48.09882" lon="2.69272">
        <ele>89</ele>
        <time>2020-02-12T17:12:33Z</time>
      </trkpt>
      <trkpt lat="48.09591" lon="2.69295">
        <ele>90</ele>
        <time>2020-02-12T17:13:25Z</time>
      </trkpt>
      <trkpt lat="48.09537" lon="2.69306">
        <ele>90</ele>
        <time>2020-02-12T17:13:35Z</time>
      </trkpt>
      <trkpt lat="48.09471" lon="2.69328">
        <ele>90</ele>
        <time>2020-02-12T17:13:47Z</time>
      </trkpt>
      <trkpt lat="48.09421" lon="2.69351">
        <ele>91</ele>
        <time>2020-02-12T17:13:56Z</time>
      </trkpt>
      <trkpt lat="48.09355" lon="2.69392">
        <ele>91</ele>
        <time>2020-02-12T17:14:09Z</time>
      </trkpt>
      <trkpt lat="48.09208" lon="2.69507">
        <ele>91</ele>
        <time>2020-02-12T17:14:38Z</time>
      </trkpt>
      <trkpt lat="48.09176" lon="2.69526">
        <ele>92</ele>
        <time>2020-02-12T17:14:45Z</time>
      </trkpt>
      <trkpt lat="48.09148" lon="2.69537">
        <ele>91</ele>
        <time>2020-02-12T17:14:50Z</time>
      </trkpt>
      <trkpt lat="48.09125" lon="2.69541">
        <ele>91</ele>
        <time>2020-02-12T17:14:54Z</time>
      </trkpt>
      <trkpt lat="48.09098" lon="2.69541">
        <ele>91</ele>
        <time>2020-02-12T17:14:59Z</time>
      </trkpt>
      <trkpt lat="48.09075" lon="2.69537">
        <ele>90</ele>
        <time>2020-02-12T17:15:03Z</time>
      </trkpt>
      <trkpt lat="48.09039" lon="2.69525">
        <ele>91</ele>
        <time>2020-02-12T17:15:09Z</time>
      </trkpt>
      <trkpt lat="48.08977" lon="2.69484">
        <ele>91</ele>
        <time>2020-02-12T17:15:21Z</time>
      </trkpt>
      <trkpt lat="48.0887" lon="2.69401">
        <ele>90</ele>
        <time>2020-02-12T17:15:43Z</time>
      </trkpt>
      <trkpt lat="48.08811" lon="2.69359">
        <ele>90</ele>
        <time>2020-02-12T17:15:54Z</time>
      </trkpt>
      <trkpt lat="48.08782" lon="2.69341">
        <ele>89</ele>
        <time>2020-02-12T17:16:00Z</time>
      </trkpt>
      <trkpt lat="48.08739" lon="2.6932">
        <ele>88</ele>
        <time>2020-02-12T17:16:08Z</time>
      </trkpt>
      <trkpt lat="48.08674" lon="2.69297">
        <ele>89</ele>
        <time>2020-02-12T17:16:20Z</time>
      </trkpt>
      <trkpt lat="48.08479" lon="2.69248">
        <ele>89</ele>
        <time>2020-02-12T17:16:55Z</time>
      </trkpt>
      <trkpt lat="48.0837" lon="2.69224">
        <ele>90</ele>
        <time>2020-02-12T17:17:15Z</time>
      </trkpt>
      <trkpt lat="48.08286" lon="2.69211">
        <ele>91</ele>
        <time>2020-02-12T17:17:30Z</time>
      </trkpt>
      <trkpt lat="48.08219" lon="2.69197">
        <ele>92</ele>
        <time>2020-02-12T17:17:42Z</time>
      </trkpt>
      <trkpt lat="48.08087" lon="2.69158">
        <ele>90</ele>
        <time>2020-02-12T17:18:06Z</time>
      </trkpt>
      <trkpt lat="48.08047" lon="2.6915">
        <ele>89</ele>
        <time>2020-02-12T17:18:13Z</time>
      </trkpt>
      <trkpt lat="48.08004" lon="2.69147">
        <ele>89</ele>
        <time>2020-02-12T17:18:21Z</time>
      </trkpt>
      <trkpt lat="48.0796" lon="2.69148">
        <ele>89</ele>
        <time>2020-02-12T17:18:28Z</time>
      </trkpt>
      <trkpt lat="48.07763" lon="2.69172">
        <ele>89</ele>
        <time>2020-02-12T17:19:04Z</time>
      </trkpt>
      <trkpt lat="48.07671" lon="2.6918">
        <ele>89</ele>
        <time>2020-02-12T17:19:20Z</time>
      </trkpt>
      <trkpt lat="48.07495" lon="2.69163">
        <ele>89</ele>
        <time>2020-02-12T17:19:51Z</time>
      </trkpt>
      <trkpt lat="48.07412" lon="2.6916">
        <ele>90</ele>
        <time>2020-02-12T17:20:06Z</time>
      </trkpt>
      <trkpt lat="48.07194" lon="2.69165">
        <ele>91</ele>
        <time>2020-02-12T17:20:45Z</time>
      </trkpt>
      <trkpt lat="48.07175" lon="2.69167">
        <ele>91</ele>
        <time>2020-02-12T17:20:48Z</time>
      </trkpt>
      <trkpt lat="48.07147" lon="2.69174">
        <ele>91</ele>
        <time>2020-02-12T17:20:53Z</time>
      </trkpt>
      <trkpt lat="48.07069" lon="2.6921">
        <ele>91</ele>
        <time>2020-02-12T17:21:08Z</time>
      </trkpt>
      <trkpt lat="48.07022" lon="2.69229">
        <ele>92</ele>
        <time>2020-02-12T17:21:17Z</time>
      </trkpt>
      <trkpt lat="48.06769" lon="2.69293">
        <ele>91</ele>
        <time>2020-02-12T17:22:02Z</time>
      </trkpt>
      <trkpt lat="48.06741" lon="2.69302">
        <ele>91</ele>
        <time>2020-02-12T17:22:07Z</time>
      </trkpt>
      <trkpt lat="48.06591" lon="2.69371">
        <ele>93</ele>
        <time>2020-02-12T17:22:35Z</time>
      </trkpt>
      <trkpt lat="48.0656" lon="2.6938">
        <ele>93</ele>
        <time>2020-02-12T17:22:41Z</time>
      </trkpt>
      <trkpt lat="48.06456" lon="2.69402">
        <ele>93</ele>
        <time>2020-02-12T17:23:00Z</time>
      </trkpt>
      <trkpt lat="48.064" lon="2.69418">
        <ele>93</ele>
        <time>2020-02-12T17:23:10Z</time>
      </trkpt>
      <trkpt lat="48.06356" lon="2.69436">
        <ele>93</ele>
        <time>2020-02-12T17:23:18Z</time>
      </trkpt>
      <trkpt lat="48.06212" lon="2.69505">
        <ele>93</ele>
        <time>2020-02-12T17:23:45Z</time>
      </trkpt>
      <trkpt lat="48.0617" lon="2.69528">
        <ele>93</ele>
        <time>2020-02-12T17:23:53Z</time>
      </trkpt>
      <trkpt lat="48.06148" lon="2.69545">
        <ele>93</ele>
        <time>2020-02-12T17:23:57Z</time>
      </trkpt>
      <trkpt lat="48.06084" lon="2.69615">
        <ele>93</ele>
        <time>2020-02-12T17:24:11Z</time>
      </trkpt>
      <trkpt lat="48.059" lon="2.69838">
        <ele>95</ele>
        <time>2020-02-12T17:24:53Z</time>
      </trkpt>
      <trkpt lat="48.05841" lon="2.69908">
        <ele>96</ele>
        <time>2020-02-12T17:25:07Z</time>
      </trkpt>
      <trkpt lat="48.05802" lon="2.6995">
        <ele>96</ele>
        <time>2020-02-12T17:25:15Z</time>
      </trkpt>
      <trkpt lat="48.05545" lon="2.70173">
        <ele>97</ele>
        <time>2020-02-12T17:26:08Z</time>
      </trkpt>
      <trkpt lat="48.05523" lon="2.70196">
        <ele>98</ele>
        <time>2020-02-12T17:26:13Z</time>
      </trkpt>
      <trkpt lat="48.05477" lon="2.70256">
        <ele>98</ele>
        <time>2020-02-12T17:26:24Z</time>
      </trkpt>
      <trkpt lat="48.05428" lon="2.70314">
        <ele>99</ele>
        <time>2020-02-12T17:26:35Z</time>
      </trkpt>
      <trkpt lat="48.05412" lon="2.70327">
        <ele>99</ele>
        <time>2020-02-12T17:26:38Z</time>
      </trkpt>
      <trkpt lat="48.05388" lon="2.70341">
        <ele>99</ele>
        <time>2020-02-12T17:26:43Z</time>
      </trkpt>
      <trkpt lat="48.05371" lon="2.70348">
        <ele>99</ele>
        <time>2020-02-12T17:26:46Z</time>
      </trkpt>
      <trkpt lat="48.05371" lon="2.70376">
        <ele>99</ele>
        <time>2020-02-12T17:26:49Z</time>
      </trkpt>
      <trkpt lat="48.05365" lon="2.70393">
        <ele>99</ele>
        <time>2020-02-12T17:26:51Z</time>
      </trkpt>
      <trkpt lat="48.05354" lon="2.70402">
        <ele>99</ele>
        <time>2020-02-12T17:26:54Z</time>
      </trkpt>
      <trkpt lat="48.05332" lon="2.70405">
        <ele>99</ele>
        <time>2020-02-12T17:26:58Z</time>
      </trkpt>
      <trkpt lat="48.05316" lon="2.70415">
        <ele>99</ele>
        <time>2020-02-12T17:27:01Z</time>
      </trkpt>
      <trkpt lat="48.05307" lon="2.70426">
        <ele>99</ele>
        <time>2020-02-12T17:27:03Z</time>
      </trkpt>
      <trkpt lat="48.05301" lon="2.70439">
        <ele>99</ele>
        <time>2020-02-12T17:27:05Z</time>
      </trkpt>
      <trkpt lat="48.05294" lon="2.7047">
        <ele>98</ele>
        <time>2020-02-12T17:27:09Z</time>
      </trkpt>
      <trkpt lat="48.05297" lon="2.70503">
        <ele>97</ele>
        <time>2020-02-12T17:27:12Z</time>
      </trkpt>
      <trkpt lat="48.053" lon="2.70513">
        <ele>97</ele>
        <time>2020-02-12T17:27:14Z</time>
      </trkpt>
      <trkpt lat="48.05312" lon="2.70533">
        <ele>97</ele>
        <time>2020-02-12T17:27:17Z</time>
      </trkpt>
      <trkpt lat="48.05346" lon="2.70567">
        <ele>97</ele>
        <time>2020-02-12T17:27:24Z</time>
      </trkpt>
      <trkpt lat="48.05451" lon="2.70662">
        <ele>96</ele>
        <time>2020-02-12T17:27:46Z</time>
      </trkpt>
      <trkpt lat="48.05518" lon="2.70726">
        <ele>96</ele>
        <time>2020-02-12T17:28:00Z</time>
      </trkpt>
      <trkpt lat="48.05652" lon="2.7088">
        <ele>94</ele>
        <time>2020-02-12T17:28:30Z</time>
      </trkpt>
      <trkpt lat="48.05683" lon="2.70912">
        <ele>95</ele>
        <time>2020-02-12T17:28:37Z</time>
      </trkpt>
      <trkpt lat="48.05759" lon="2.70981">
        <ele>97</ele>
        <time>2020-02-12T17:28:53Z</time>
      </trkpt>
      <trkpt lat="48.05773" lon="2.70998">
        <ele>97</ele>
        <time>2020-02-12T17:28:56Z</time>
      </trkpt>
      <trkpt lat="48.05787" lon="2.71021">
        <ele>98</ele>
        <time>2020-02-12T17:29:00Z</time>
      </trkpt>
      <trkpt lat="48.05814" lon="2.71093">
        <ele>99</ele>
        <time>2020-02-12T17:29:10Z</time>
      </trkpt>
      <trkpt lat="48.05831" lon="2.71131">
        <ele>99</ele>
        <time>2020-02-12T17:29:15Z</time>
      </trkpt>
      <trkpt lat="48.05997" lon="2.71428">
        <ele>98</ele>
        <time>2020-02-12T17:30:01Z</time>
      </trkpt>
      <trkpt lat="48.06013" lon="2.71445">
        <ele>98</ele>
        <time>2020-02-12T17:30:05Z</time>
      </trkpt>
      <trkpt lat="48.06146" lon="2.71555">
        <ele>97</ele>
        <time>2020-02-12T17:30:32Z</time>
      </trkpt>
      <trkpt lat="48.06157" lon="2.71563">
        <ele>97</ele>
        <time>2020-02-12T17:30:34Z</time>
      </trkpt>
      <trkpt lat="48.06183" lon="2.71572">
        <ele>97</ele>
        <time>2020-02-12T17:30:38Z</time>
      </trkpt>
      <trkpt lat="48.06188" lon="2.71576">
        <ele>97</ele>
        <time>2020-02-12T17:30:39Z</time>
      </trkpt>
      <trkpt lat="48.06193" lon="2.71596">
        <ele>96</ele>
        <time>2020-02-12T17:30:42Z</time>
      </trkpt>
      <trkpt lat="48.0619" lon="2.71627">
        <ele>96</ele>
        <time>2020-02-12T17:30:46Z</time>
      </trkpt>
      <trkpt lat="48.06169" lon="2.71693">
        <ele>96</ele>
        <time>2020-02-12T17:30:54Z</time>
      </trkpt>
      <trkpt lat="48.06141" lon="2.71875">
        <ele>92</ele>
        <time>2020-02-12T17:31:17Z</time>
      </trkpt>
      <trkpt lat="48.06133" lon="2.71903">
        <ele>92</ele>
        <time>2020-02-12T17:31:20Z</time>
      </trkpt>
      <trkpt lat="48.06102" lon="2.71972">
        <ele>94</ele>
        <time>2020-02-12T17:31:30Z</time>
      </trkpt>
      <trkpt lat="48.06094" lon="2.71995">
        <ele>94</ele>
        <time>2020-02-12T17:31:33Z</time>
      </trkpt>
      <trkpt lat="48.06081" lon="2.72042">
        <ele>94</ele>
        <time>2020-02-12T17:31:39Z</time>
      </trkpt>
      <trkpt lat="48.06069" lon="2.721">
        <ele>93</ele>
        <time>2020-02-12T17:31:47Z</time>
      </trkpt>
      <trkpt lat="48.06063" lon="2.72111">
        <ele>93</ele>
        <time>2020-02-12T17:31:48Z</time>
      </trkpt>
      <trkpt lat="48.06056" lon="2.72118">
        <ele>93</ele>
        <time>2020-02-12T17:31:50Z</time>
      </trkpt>
      <trkpt lat="48.06046" lon="2.72121">
        <ele>92</ele>
        <time>2020-02-12T17:31:52Z</time>
      </trkpt>
      <trkpt lat="48.06035" lon="2.72121">
        <ele>91</ele>
        <time>2020-02-12T17:31:53Z</time>
      </trkpt>
      <trkpt lat="48.05922" lon="2.72103">
        <ele>90</ele>
        <time>2020-02-12T17:32:14Z</time>
      </trkpt>
      <trkpt lat="48.05904" lon="2.72108">
        <ele>90</ele>
        <time>2020-02-12T17:32:17Z</time>
      </trkpt>
      <trkpt lat="48.05887" lon="2.72125">
        <ele>90</ele>
        <time>2020-02-12T17:32:21Z</time>
      </trkpt>
      <trkpt lat="48.05874" lon="2.72145">
        <ele>90</ele>
        <time>2020-02-12T17:32:24Z</time>
      </trkpt>
      <trkpt lat="48.05778" lon="2.72324">
        <ele>91</ele>
        <time>2020-02-12T17:32:51Z</time>
      </trkpt>
      <trkpt lat="48.05765" lon="2.72356">
        <ele>92</ele>
        <time>2020-02-12T17:32:56Z</time>
      </trkpt>
      <trkpt lat="48.05759" lon="2.72378">
        <ele>92</ele>
        <time>2020-02-12T17:32:58Z</time>
      </trkpt>
      <trkpt lat="48.05753" lon="2.72424">
        <ele>93</ele>
        <time>2020-02-12T17:33:04Z</time>
      </trkpt>
      <trkpt lat="48.05754" lon="2.72442">
        <ele>93</ele>
        <time>2020-02-12T17:33:06Z</time>
      </trkpt>
      <trkpt lat="48.05763" lon="2.72492">
        <ele>92</ele>
        <time>2020-02-12T17:33:12Z</time>
      </trkpt>
      <trkpt lat="48.05782" lon="2.72559">
        <ele>91</ele>
        <time>2020-02-12T17:33:21Z</time>
      </trkpt>
      <trkpt lat="48.05787" lon="2.72604">
        <ele>91</ele>
        <time>2020-02-12T17:33:26Z</time>
      </trkpt>
      <trkpt lat="48.05782" lon="2.72649">
        <ele>91</ele>
        <time>2020-02-12T17:33:32Z</time>
      </trkpt>
      <trkpt lat="48.05776" lon="2.72669">
        <ele>91</ele>
        <time>2020-02-12T17:33:34Z</time>
      </trkpt>
      <trkpt lat="48.05764" lon="2.72693">
        <ele>91</ele>
        <time>2020-02-12T17:33:38Z</time>
      </trkpt>
      <trkpt lat="48.05753" lon="2.72708">
        <ele>91</ele>
        <time>2020-02-12T17:33:41Z</time>
      </trkpt>
      <trkpt lat="48.05736" lon="2.72723">
        <ele>92</ele>
        <time>2020-02-12T17:33:44Z</time>
      </trkpt>
      <trkpt lat="48.05723" lon="2.72731">
        <ele>92</ele>
        <time>2020-02-12T17:33:47Z</time>
      </trkpt>
      <trkpt lat="48.05591" lon="2.72786">
        <ele>94</ele>
        <time>2020-02-12T17:34:11Z</time>
      </trkpt>
      <trkpt lat="48.05564" lon="2.72806">
        <ele>94</ele>
        <time>2020-02-12T17:34:16Z</time>
      </trkpt>
      <trkpt lat="48.05537" lon="2.72835">
        <ele>95</ele>
        <time>2020-02-12T17:34:22Z</time>
      </trkpt>
      <trkpt lat="48.05516" lon="2.72865">
        <ele>95</ele>
        <time>2020-02-12T17:34:28Z</time>
      </trkpt>
      <trkpt lat="48.05478" lon="2.72929">
        <ele>96</ele>
        <time>2020-02-12T17:34:38Z</time>
      </trkpt>
      <trkpt lat="48.05421" lon="2.73048">
        <ele>96</ele>
        <time>2020-02-12T17:34:55Z</time>
      </trkpt>
      <trkpt lat="48.05402" lon="2.73083">
        <ele>96</ele>
        <time>2020-02-12T17:35:00Z</time>
      </trkpt>
      <trkpt lat="48.05335" lon="2.73181">
        <ele>97</ele>
        <time>2020-02-12T17:35:17Z</time>
      </trkpt>
      <trkpt lat="48.05277" lon="2.73277">
        <ele>95</ele>
        <time>2020-02-12T17:35:33Z</time>
      </trkpt>
      <trkpt lat="48.05036" lon="2.73573">
        <ele>96</ele>
        <time>2020-02-12T17:36:28Z</time>
      </trkpt>
      <trkpt lat="48.05018" lon="2.736">
        <ele>95</ele>
        <time>2020-02-12T17:36:33Z</time>
      </trkpt>
      <trkpt lat="48.04996" lon="2.73642">
        <ele>95</ele>
        <time>2020-02-12T17:36:39Z</time>
      </trkpt>
      <trkpt lat="48.04977" lon="2.73668">
        <ele>95</ele>
        <time>2020-02-12T17:36:43Z</time>
      </trkpt>
      <trkpt lat="48.04964" lon="2.73677">
        <ele>95</ele>
        <time>2020-02-12T17:36:46Z</time>
      </trkpt>
      <trkpt lat="48.0495" lon="2.73681">
        <ele>95</ele>
        <time>2020-02-12T17:36:49Z</time>
      </trkpt>
      <trkpt lat="48.0494" lon="2.73681">
        <ele>96</ele>
        <time>2020-02-12T17:36:50Z</time>
      </trkpt>
      <trkpt lat="48.0484" lon="2.73661">
        <ele>94</ele>
        <time>2020-02-12T17:37:08Z</time>
      </trkpt>
      <trkpt lat="48.04823" lon="2.73663">
        <ele>94</ele>
        <time>2020-02-12T17:37:11Z</time>
      </trkpt>
      <trkpt lat="48.04791" lon="2.73672">
        <ele>93</ele>
        <time>2020-02-12T17:37:17Z</time>
      </trkpt>
      <trkpt lat="48.04773" lon="2.7367">
        <ele>92</ele>
        <time>2020-02-12T17:37:20Z</time>
      </trkpt>
      <trkpt lat="48.04748" lon="2.73662">
        <ele>91</ele>
        <time>2020-02-12T17:37:25Z</time>
      </trkpt>
      <trkpt lat="48.04729" lon="2.73662">
        <ele>91</ele>
        <time>2020-02-12T17:37:28Z</time>
      </trkpt>
      <trkpt lat="48.04714" lon="2.73668">
        <ele>90</ele>
        <time>2020-02-12T17:37:31Z</time>
      </trkpt>
      <trkpt lat="48.04667" lon="2.73711">
        <ele>90</ele>
        <time>2020-02-12T17:37:41Z</time>
      </trkpt>
      <trkpt lat="48.04596" lon="2.73756">
        <ele>87</ele>
        <time>2020-02-12T17:37:55Z</time>
      </trkpt>
      <trkpt lat="48.04577" lon="2.73771">
        <ele>87</ele>
        <time>2020-02-12T17:37:58Z</time>
      </trkpt>
      <trkpt lat="48.04566" lon="2.73783">
        <ele>86</ele>
        <time>2020-02-12T17:38:01Z</time>
      </trkpt>
      <trkpt lat="48.04548" lon="2.73811">
        <ele>85</ele>
        <time>2020-02-12T17:38:05Z</time>
      </trkpt>
      <trkpt lat="48.04552" lon="2.73834">
        <ele>85</ele>
        <time>2020-02-12T17:38:08Z</time>
      </trkpt>
      <trkpt lat="48.0455" lon="2.73871">
        <ele>84</ele>
        <time>2020-02-12T17:38:13Z</time>
      </trkpt>
      <trkpt lat="48.0454" lon="2.73895">
        <ele>82</ele>
        <time>2020-02-12T17:38:16Z</time>
      </trkpt>
      <trkpt lat="48.0453" lon="2.7391">
        <ele>81</ele>
        <time>2020-02-12T17:38:19Z</time>
      </trkpt>
      <trkpt lat="48.04455" lon="2.73994">
        <ele>79</ele>
        <time>2020-02-12T17:38:35Z</time>
      </trkpt>
      <trkpt lat="48.04383" lon="2.74048">
        <ele>79</ele>
        <time>2020-02-12T17:38:50Z</time>
      </trkpt>
      <trkpt lat="48.04366" lon="2.74065">
        <ele>79</ele>
        <time>2020-02-12T17:38:53Z</time>
      </trkpt>
      <trkpt lat="48.042" lon="2.74323">
        <ele>79</ele>
        <time>2020-02-12T17:39:36Z</time>
      </trkpt>
      <trkpt lat="48.04194" lon="2.74321">
        <ele>79</ele>
        <time>2020-02-12T17:39:37Z</time>
      </trkpt>
      <trkpt lat="48.04189" lon="2.74327">
        <ele>79</ele>
        <time>2020-02-12T17:39:38Z</time>
      </trkpt>
      <trkpt lat="48.04189" lon="2.74339">
        <ele>79</ele>
        <time>2020-02-12T17:39:39Z</time>
      </trkpt>
      <trkpt lat="48.04194" lon="2.74344">
        <ele>79</ele>
        <time>2020-02-12T17:39:41Z</time>
      </trkpt>
      <trkpt lat="48.04197" lon="2.74344">
        <ele>79</ele>
        <time>2020-02-12T17:39:41Z</time>
      </trkpt>
      <trkpt lat="48.04229" lon="2.7445">
        <ele>79</ele>
        <time>2020-02-12T17:39:55Z</time>
      </trkpt>
      <trkpt lat="48.04266" lon="2.74542">
        <ele>78</ele>
        <time>2020-02-12T17:40:08Z</time>
      </trkpt>
      <trkpt lat="48.04331" lon="2.74671">
        <ele>80</ele>
        <time>2020-02-12T17:40:27Z</time>
      </trkpt>
      <trkpt lat="48.04405" lon="2.7481">
        <ele>78</ele>
        <time>2020-02-12T17:40:48Z</time>
      </trkpt>
      <trkpt lat="48.04433" lon="2.74876">
        <ele>78</ele>
        <time>2020-02-12T17:40:57Z</time>
      </trkpt>
      <trkpt lat="48.04568" lon="2.75349">
        <ele>80</ele>
        <time>2020-02-12T17:41:58Z</time>
      </trkpt>
      <trkpt lat="48.04575" lon="2.75389">
        <ele>81</ele>
        <time>2020-02-12T17:42:03Z</time>
      </trkpt>
      <trkpt lat="48.04446" lon="2.75327">
        <ele>83</ele>
        <time>2020-02-12T17:42:28Z</time>
      </trkpt>
      <trkpt lat="48.04412" lon="2.75304">
        <ele>85</ele>
        <time>2020-02-12T17:42:34Z</time>
      </trkpt>
      <trkpt lat="48.04278" lon="2.7518">
        <ele>86</ele>
        <time>2020-02-12T17:43:02Z</time>
      </trkpt>
      <trkpt lat="48.04007" lon="2.74922">
        <ele>90</ele>
        <time>2020-02-12T17:43:59Z</time>
      </trkpt>
      <trkpt lat="48.03926" lon="2.74849">
        <ele>93</ele>
        <time>2020-02-12T17:44:16Z</time>
      </trkpt>
      <trkpt lat="48.03897" lon="2.74828">
        <ele>93</ele>
        <time>2020-02-12T17:44:22Z</time>
      </trkpt>
      <trkpt lat="48.03597" lon="2.74637">
        <ele>92</ele>
        <time>2020-02-12T17:45:20Z</time>
      </trkpt>
      <trkpt lat="48.02355" lon="2.73857">
        <ele>88</ele>
        <time>2020-02-12T17:49:20Z</time>
      </trkpt>
    </trkseg>
  </trk>
</gpx>